[[{"header":{"parameterUnit":"m.s-1","parameterCategory":1,"la1":30.6,"la2":28.766,"lo1":-90.7593,"lo2":-88.6598,"dy":0.0162,"dx":0.0183,"nx":116,"ny":114,"refTime":"2023-04-30T12:00:00:Z","depth":0,"parameterNumber":2,"parameterNumberName":"U-component_of_WINDS"},"data":[0.0,0.0,0.0,0.0,0.0,0.0,0.0,0.0,0.0,0.0,0.0,0.0,0.0,0.0,0.0,0.0,0.0,0.0,0.0,0.0,0.0,0.0,0.0,0.0,0.0,0.0,0.0,0.0,0.0,0.0,0.0,0.0,0.0,0.0,0.0,0.0,0.0,0.0,0.0,0.0,0.0,0.0,0.0,0.0,0.0,0.0,0.0,0.0,0.0,0.0,0.0,0.0,0.0,0.0,0.0,0.0,0.0,0.0,0.0,0.0,0.0,0.0,0.0,0.0,0.0,0.0,0.0,0.0,0.0,0.0,0.0,0.0,0.0,0.0,0.0,0.0,0.0,0.0,0.0,0.0,0.0,0.0,0.0,0.0,0.0,0.0,0.0,0.0,0.0,0.0,0.0,0.0,0.0,0.0,0.0,0.0,0.0,0.0,0.0,0.0,0.0,0.0,0.0,0.0,0.0,0.0,0.0,0.0,0.0,0.0,0.0,0.0,0.0,0.0,0.0,0.0,0.0,0.0,0.0,0.0,0.0,0.0,0.0,0.0,0.0,0.0,0.0,0.0,0.0,0.0,0.0,0.0,0.0,0.0,0.0,0.0,0.0,0.0,0.0,0.0,0.0,0.0,0.0,0.0,0.0,0.0,0.0,0.0,0.0,0.0,0.0,0.0,0.0,0.0,0.0,0.0,0.0,0.0,0.0,0.0,0.0,0.0,0.0,0.0,0.0,0.0,0.0,0.0,0.0,0.0,0.0,0.0,0.0,0.0,0.0,0.0,0.0,0.0,0.0,0.0,0.0,0.0,0.0,0.0,0.0,0.0,0.0,0.0,0.0,0.0,0.0,0.0,0.0,0.0,0.0,0.0,0.0,0.0,0.0,0.0,0.0,0.0,0.0,0.0,0.0,0.0,0.0,0.0,0.0,0.0,0.0,0.0,0.0,0.0,0.0,0.0,0.0,0.0,0.0,0.0,0.0,0.0,0.0,0.0,0.0,0.0,0.0,0.0,0.0,0.0,0.0,0.0,0.0,0.0,0.0,0.0,0.0,0.0,0.0,0.0,0.0,0.0,0.0,0.0,0.0,0.0,0.0,0.0,0.0,0.0,0.0,0.0,0.0,0.0,0.0,0.0,0.0,0.0,0.0,0.0,0.0,0.0,0.0,0.0,0.0,0.0,0.0,0.0,0.0,0.0,0.0,0.0,0.0,0.0,0.0,0.0,0.0,0.0,0.0,0.0,0.0,0.0,0.0,0.0,0.0,0.0,0.0,0.0,0.0,0.0,0.0,0.0,0.0,0.0,0.0,0.0,0.0,0.0,0.0,0.0,0.0,0.0,0.0,0.0,0.0,0.0,0.0,0.0,0.0,0.0,0.0,0.0,0.0,0.0,0.0,0.0,0.0,0.0,0.0,0.0,0.0,0.0,0.0,0.0,0.0,0.0,0.0,0.0,0.0,0.0,0.0,0.0,0.0,0.0,0.0,0.0,0.0,0.0,0.0,0.0,0.0,0.0,0.0,0.0,0.0,0.0,0.0,0.0,0.0,0.0,0.0,0.0,0.0,0.0,0.0,0.0,0.0,0.0,0.0,0.0,0.0,0.0,0.0,0.0,0.0,0.0,0.0,0.0,0.0,0.0,0.0,0.0,0.0,0.0,0.0,0.0,0.0,0.0,0.0,0.0,0.0,0.0,0.0,0.0,0.0,0.0,0.0,0.0,0.0,0.0,0.0,0.0,0.0,0.0,0.0,0.0,0.0,0.0,0.0,0.0,0.0,0.0,0.0,0.0,0.0,0.0,0.0,0.0,0.0,0.0,0.0,0.0,0.0,0.0,0.0,0.0,0.0,0.0,0.0,0.0,0.0,0.0,0.0,0.0,0.0,0.0,0.0,0.0,0.0,0.0,0.0,0.0,0.0,0.0,0.0,0.0,0.0,0.0,0.0,0.0,0.0,0.0,0.0,0.0,0.0,0.0,0.0,0.0,0.0,0.0,0.0,0.0,0.0,0.0,0.0,0.0,0.0,0.0,0.0,0.0,0.0,0.0,0.0,0.0,0.0,0.0,0.0,0.0,0.0,0.0,0.0,0.0,0.0,0.0,0.0,0.0,0.0,0.0,0.0,0.0,0.0,0.0,0.0,0.0,0.0,0.0,0.0,0.0,0.0,0.0,0.0,0.0,0.0,0.0,0.0,0.0,0.0,0.0,0.0,0.0,0.0,0.0,0.0,0.0,0.0,0.0,0.0,0.0,0.0,0.0,0.0,0.0,0.0,0.0,0.0,0.0,0.0,0.0,0.0,0.0,0.0,0.0,0.0,0.0,0.0,0.0,0.0,0.0,0.0,0.0,0.0,0.0,0.0,0.0,0.0,0.0,0.0,0.0,0.0,0.0,0.0,0.0,0.0,0.0,0.0,0.0,0.0,0.0,0.0,0.0,0.0,0.0,0.0,0.0,0.0,0.0,0.0,0.0,0.0,0.0,0.0,0.0,0.0,0.0,0.0,0.0,0.0,0.0,0.0,0.0,0.0,0.0,0.0,0.0,0.0,0.0,0.0,0.0,0.0,0.0,0.0,0.0,0.0,0.0,0.0,0.0,0.0,0.0,0.0,0.0,0.0,0.0,0.0,0.0,0.0,0.0,0.0,0.0,0.0,0.0,0.0,0.0,0.0,0.0,0.0,0.0,0.0,0.0,0.0,0.0,0.0,0.0,0.0,0.0,0.0,0.0,0.0,0.0,0.0,0.0,0.0,0.0,0.0,0.0,0.0,0.0,0.0,0.0,0.0,0.0,0.0,0.0,0.0,0.0,0.0,0.0,0.0,0.0,0.0,0.0,0.0,0.0,0.0,0.0,0.0,0.0,0.0,0.0,0.0,0.0,0.0,0.0,0.0,0.0,0.0,0.0,0.0,0.0,0.0,0.0,0.0,0.0,0.0,0.0,0.0,0.0,0.0,0.0,0.0,0.0,0.0,0.0,0.0,0.0,0.0,0.0,0.0,0.0,0.0,0.0,0.0,0.0,0.0,0.0,0.0,0.0,0.0,0.0,0.0,0.0,0.0,0.0,0.0,0.0,0.0,0.0,0.0,0.0,0.0,0.0,0.0,0.0,0.0,0.0,0.0,0.0,0.0,0.0,0.0,0.0,0.0,0.0,0.0,0.0,0.0,0.0,0.0,0.0,0.0,0.0,0.0,0.0,0.0,0.0,0.0,0.0,0.0,0.0,0.0,0.0,0.0,0.0,0.0,0.0,0.0,0.0,0.0,0.0,0.0,0.0,0.0,0.0,0.0,0.0,0.0,0.0,0.0,0.0,0.0,0.0,0.0,0.0,0.0,0.0,0.0,0.0,0.0,0.0,0.0,0.0,0.0,0.0,0.0,0.0,0.0,0.0,0.0,0.0,0.0,0.0,0.0,0.0,0.0,0.0,0.0,0.0,0.0,0.0,0.0,0.0,0.0,0.0,0.0,0.0,0.0,0.0,0.0,0.0,0.0,0.0,0.0,0.0,0.0,0.0,0.0,0.0,0.0,0.0,0.0,0.0,0.0,0.0,0.0,0.0,0.0,0.0,0.0,0.0,0.0,0.0,0.0,0.0,0.0,0.0,0.0,0.0,0.0,0.0,0.0,0.0,0.0,0.0,0.0,0.0,0.0,0.0,0.0,0.0,0.0,0.0,0.0,0.0,0.0,0.0,0.0,0.0,0.0,0.0,0.0,0.0,0.0,0.0,0.0,0.0,0.0,0.0,0.0,0.0,0.0,0.0,0.0,0.0,0.0,0.0,0.0,0.0,0.0,0.0,0.0,0.0,0.0,0.0,0.0,0.0,0.0,0.0,0.0,0.0,0.0,0.0,0.0,0.0,0.0,0.0,0.0,0.0,0.0,0.0,0.0,0.0,0.0,0.0,0.0,0.0,0.0,0.0,0.0,0.0,0.0,0.0,0.0,0.0,0.0,0.0,0.0,0.0,0.0,0.0,0.0,0.0,0.0,0.0,0.0,0.0,0.0,0.0,0.0,0.0,0.0,0.0,0.0,0.0,0.0,0.0,0.0,0.0,0.0,0.0,0.0,0.0,0.0,0.0,0.0,0.0,0.0,0.0,0.0,0.0,0.0,0.0,0.0,0.0,0.0,0.0,0.0,0.0,0.0,0.0,0.0,0.0,0.0,0.0,0.0,0.0,0.0,0.0,0.0,0.0,0.0,0.0,0.0,0.0,0.0,0.0,0.0,0.0,0.0,0.0,0.0,0.0,0.0,0.0,0.0,0.0,0.0,0.0,0.0,0.0,0.0,0.0,0.0,0.0,0.0,0.0,0.0,0.0,0.0,0.0,0.0,0.0,0.0,0.0,0.0,0.0,0.0,0.0,0.0,0.0,0.0,0.0,0.0,0.0,0.0,0.0,0.0,0.0,0.0,0.0,0.0,0.0,0.0,0.0,0.0,0.0,0.0,0.0,0.0,0.0,0.0,0.0,0.0,0.0,0.0,0.0,0.0,0.0,0.0,0.0,0.0,0.0,0.0,0.0,0.0,0.0,0.0,0.0,0.0,0.0,0.0,0.0,0.0,0.0,0.0,0.0,0.0,0.0,0.0,0.0,0.0,0.0,0.0,0.0,0.0,0.0,0.0,0.0,0.0,0.0,0.0,0.0,0.0,0.0,0.0,0.0,0.0,0.0,0.0,0.0,0.0,0.0,0.0,0.0,0.0,0.0,0.0,0.0,0.0,0.0,0.0,0.0,0.0,0.0,0.0,0.0,0.0,0.0,0.0,0.0,0.0,0.0,0.0,0.0,0.0,0.0,0.0,0.0,0.0,0.0,0.0,0.0,0.0,0.0,0.0,0.0,0.0,0.0,0.0,0.0,0.0,0.0,0.0,0.0,0.0,0.0,0.0,0.0,0.0,0.0,0.0,0.0,0.0,0.0,0.0,0.0,0.0,0.0,0.0,0.0,0.0,0.0,0.0,0.0,0.0,0.0,0.0,0.0,0.0,0.0,0.0,0.0,0.0,0.0,0.0,0.0,0.0,0.0,0.0,0.0,0.0,0.0,0.0,0.0,0.0,0.0,0.0,0.0,0.0,0.0,0.0,0.0,0.0,0.0,0.0,0.0,0.0,0.0,0.0,0.0,0.0,0.0,0.0,0.0,0.0,0.0,0.0,0.0,0.0,0.0,0.0,0.0,0.0,0.0,0.0,0.0,0.0,0.0,0.0,0.0,0.0,0.0,0.0,0.0,0.0,0.0,0.0,0.0,0.0,0.0,0.0,0.0,0.0,0.0,0.0,0.0,0.0,0.0,0.0,0.0,0.0,0.0,0.0,0.0,0.0,0.0,0.0,0.0,0.0,0.0,0.0,0.0,0.0,0.0,0.0,0.0,0.0,0.0,0.0,0.0,0.0,0.0,0.0,0.0,0.0,0.0,0.0,0.0,0.0,0.0,0.0,0.0,0.0,0.0,0.0,0.0,0.0,0.0,0.0,0.0,0.0,0.0,0.0,0.0,0.0,0.0,0.0,0.0,0.0,0.0,0.0,0.0,0.0,0.0,0.0,0.0,0.0,0.0,0.0,0.0,0.0,0.0,0.0,0.0,0.0,0.0,0.0,0.0,0.0,0.0,0.0,0.0,0.0,0.0,0.0,0.0,0.0,0.0,0.0,0.0,0.0,0.0,0.0,0.0,0.0,0.0,0.0,0.0,0.0,0.0,0.0,0.0,0.0,0.0,0.0,0.0,0.0,0.0,0.0,0.0,0.0,0.0,0.0,0.0,0.0,0.0,0.0,0.0,0.0,0.0,0.0,0.0,0.0,0.0,0.0,0.0,0.0,0.0,0.0,0.0,0.0,0.0,0.0,0.0,0.0,0.0,0.0,0.0,0.0,0.0,0.0,0.0,0.0,0.0,0.0,0.0,0.0,0.0,0.0,0.0,0.0,0.0,0.0,0.0,0.0,0.0,0.0,0.0,0.0,0.0,0.0,0.0,0.0,0.0,0.0,0.0,0.0,0.0,0.0,0.0,0.0,0.0,0.0,0.0,0.0,0.0,0.0,0.0,0.0,0.0,0.0,0.0,0.0,0.0,0.0,0.0,0.0,0.0,0.0,0.0,0.0,0.0,2.5261,0.0,0.0,0.0,0.0,0.0,0.0,0.0,0.0,0.0,0.0,0.0,0.0,0.0,0.0,0.0,0.0,0.0,0.0,0.0,0.0,0.0,0.0,0.0,0.0,0.0,0.0,0.0,0.0,0.0,0.0,0.0,0.0,0.0,0.0,0.0,0.0,0.0,0.0,0.0,0.0,0.0,0.0,0.0,0.0,0.0,0.0,0.0,0.0,0.0,0.0,0.0,0.0,0.0,0.0,0.0,0.0,0.0,0.0,0.0,0.0,0.0,0.0,0.0,0.0,0.0,0.0,0.0,0.0,0.0,0.0,0.0,0.0,0.0,0.0,0.0,0.0,0.0,0.0,0.0,0.0,0.0,0.0,0.0,0.0,0.0,0.0,0.0,0.0,0.0,0.0,0.0,0.0,0.0,0.0,0.0,0.0,0.0,0.0,0.0,0.0,0.0,0.0,0.0,0.0,0.0,0.0,0.0,0.0,0.0,0.0,0.0,0.0,0.0,0.0,0.0,0.0,2.563,0.0,0.0,0.0,0.0,0.0,0.0,0.0,0.0,0.0,0.0,0.0,0.0,0.0,0.0,0.0,0.0,0.0,0.0,0.0,0.0,0.0,0.0,0.0,0.0,0.0,0.0,0.0,0.0,0.0,0.0,0.0,0.0,0.0,0.0,0.0,0.0,0.0,0.0,0.0,0.0,0.0,0.0,0.0,0.0,0.0,0.0,0.0,0.0,0.0,0.0,0.0,0.0,0.0,0.0,0.0,0.0,0.0,0.0,0.0,0.0,0.0,0.0,0.0,0.0,0.0,0.0,0.0,0.0,0.0,0.0,0.0,0.0,0.0,0.0,0.0,0.0,0.0,0.0,0.0,0.0,0.0,0.0,0.0,0.0,0.0,0.0,0.0,0.0,0.0,0.0,0.0,0.0,0.0,0.0,0.0,0.0,0.0,0.0,0.0,0.0,0.0,0.0,0.0,0.0,0.0,0.0,0.0,0.0,2.7701,2.7701,2.7701,2.7701,2.7701,2.7631,2.6349,2.6191,2.6753,2.6068,0.0,0.0,0.0,0.0,0.0,0.0,0.0,0.0,0.0,0.0,0.0,0.0,0.0,0.0,0.0,0.0,0.0,0.0,0.0,0.0,0.0,0.0,0.0,0.0,0.0,0.0,0.0,0.0,0.0,0.0,0.0,0.0,0.0,0.0,0.0,0.0,0.0,0.0,2.4302,2.4302,2.4302,2.4302,0.0,0.0,0.0,0.0,0.0,0.0,0.0,0.0,0.0,0.0,0.0,0.0,0.0,0.0,0.0,0.0,0.0,0.0,0.0,0.0,0.0,0.0,0.0,0.0,0.0,0.0,0.0,0.0,0.0,0.0,0.0,0.0,0.0,0.0,0.0,0.0,0.0,0.0,0.0,0.0,0.0,0.0,0.0,0.0,2.7299,2.7299,0.0,0.0,0.0,0.0,0.0,0.0,0.0,0.0,0.0,0.0,0.0,0.0,0.0,2.7569,2.7701,2.7701,2.7701,2.7701,2.7701,2.7701,2.7701,2.7701,2.7701,2.7683,2.749,0.0,2.7543,2.7438,0.0,0.0,0.0,0.0,0.0,0.0,0.0,0.0,0.0,0.0,0.0,0.0,0.0,0.0,0.0,0.0,0.0,0.0,0.0,0.0,0.0,0.0,0.0,0.0,0.0,0.0,0.0,0.0,0.0,0.0,0.0,0.0,0.0,0.0,0.0,0.0,2.4302,2.4302,2.4302,2.4302,2.4302,2.4302,2.4302,2.4317,2.44,2.44,0.0,0.0,0.0,0.0,0.0,0.0,0.0,0.0,0.0,0.0,0.0,0.0,0.0,0.0,0.0,0.0,0.0,0.0,0.0,0.0,0.0,0.0,0.0,0.0,0.0,0.0,0.0,0.0,0.0,0.0,0.0,0.0,0.0,0.0,0.0,0.0,0.0,0.0,0.0,2.7299,2.7299,2.7299,2.7299,2.7299,0.0,0.0,0.0,0.0,0.0,0.0,0.0,0.0,0.0,2.7421,2.7465,2.7557,2.763,2.7672,2.7701,2.7701,2.7701,2.7701,2.7701,2.7701,2.7701,2.7701,2.7701,2.7642,2.7539,2.7642,2.7701,2.7701,0.0,0.0,0.0,0.0,2.7836,2.7777,0.0,0.0,0.0,0.0,0.0,0.0,0.0,0.0,0.0,0.0,0.0,0.0,0.0,0.0,0.0,1.8542,0.0,0.0,0.0,0.0,0.0,0.0,0.0,0.0,0.0,0.0,0.0,0.0,2.4302,2.4302,2.4302,2.4302,2.4302,2.4302,2.4302,2.4302,2.4302,2.44,2.4457,0.0,0.0,0.0,0.0,0.0,0.0,0.0,0.0,0.0,0.0,0.0,0.0,0.0,0.0,0.0,0.0,0.0,0.0,0.0,0.0,0.0,0.0,0.0,0.0,0.0,0.0,0.0,0.0,0.0,0.0,0.0,0.0,0.0,0.0,0.0,0.0,0.0,0.0,2.7299,2.7299,2.7299,2.7299,2.7299,0.0,0.0,0.0,0.0,0.0,0.0,2.7299,2.7299,2.733,2.7407,2.7452,2.7496,2.7587,2.763,2.7642,2.7642,2.7672,2.7672,2.7672,2.7701,2.7672,2.7612,2.7612,2.7509,2.7324,2.7539,2.7612,2.7642,2.7719,2.7824,2.7853,2.7719,2.7642,2.7582,0.0,0.0,0.0,0.0,0.0,0.0,0.0,0.0,0.0,0.0,0.0,0.0,0.0,0.0,1.8154,1.8711,1.9169,1.9922,0.0,0.0,0.0,0.0,0.0,0.0,0.0,0.0,0.0,2.4302,2.4302,2.4302,2.4302,2.4302,2.4302,2.4302,2.4302,2.4302,2.4302,2.4302,2.4359,2.4498,0.0,0.0,0.0,0.0,0.0,0.0,0.0,0.0,0.0,0.0,0.0,0.0,0.0,0.0,0.0,0.0,0.0,0.0,0.0,0.0,0.0,0.0,0.0,0.0,0.0,0.0,0.0,0.0,0.0,0.0,0.0,0.0,0.0,0.0,0.0,0.0,0.0,0.0,0.0,2.7299,2.7299,0.0,0.0,0.0,0.0,2.7299,2.7299,2.7299,2.7299,2.7299,2.733,2.7407,2.7407,2.7438,2.7496,2.7496,2.7526,2.7526,2.7587,2.7617,2.7617,2.7672,2.76,2.7434,2.7434,2.7293,2.7135,2.7341,2.7434,2.7404,2.723,2.7293,2.7526,2.7526,2.7526,2.7496,0.0,0.0,0.0,0.0,0.0,0.0,0.0,0.0,0.0,0.0,0.0,0.0,0.0,1.8262,1.8589,1.8793,1.9587,2.044,2.1243,0.0,0.0,0.0,0.0,0.0,0.0,0.0,2.3867,2.3867,2.4135,2.4302,2.4302,2.4302,2.4302,2.4302,2.4302,2.4302,2.4302,2.44,2.4457,2.4498,2.4498,2.4498,0.0,0.0,0.0,0.0,0.0,0.0,0.0,0.0,0.0,0.0,0.0,0.0,0.0,0.0,0.0,0.0,0.0,0.0,0.0,0.0,0.0,0.0,0.0,0.0,0.0,0.0,0.0,0.0,0.0,0.0,0.0,0.0,0.0,0.0,0.0,0.0,0.0,2.7299,2.7299,0.0,2.7299,2.7299,2.7299,2.7299,2.7299,2.7075,2.6557,2.654,2.6316,2.5863,2.5888,2.5929,2.5959,2.6017,2.6028,2.6085,2.6131,2.6142,2.6188,2.6198,2.6114,2.5912,2.5959,2.604,2.6126,2.6253,2.6671,2.7293,2.7324,2.7434,2.7496,2.7355,2.7324,2.7261,0.0,0.0,0.0,0.0,0.0,0.0,0.0,0.0,0.0,0.0,0.0,1.8043,1.7922,1.8453,1.8888,1.9105,1.9971,2.0762,2.1278,0.0,0.0,0.0,0.0,0.0,0.0,2.3201,2.3421,2.3595,2.3909,2.4135,2.4302,2.4302,2.4302,2.4302,2.4302,2.4302,2.4302,2.4457,2.4457,2.4441,2.4441,2.4441,2.44,0.0,0.0,0.0,0.0,0.0,0.0,0.0,0.0,0.0,0.0,0.0,0.0,0.0,0.0,0.0,0.0,0.0,0.0,0.0,0.0,0.0,0.0,0.0,0.0,0.0,0.0,0.0,0.0,0.0,0.0,0.0,0.0,0.0,0.0,0.0,2.733,2.733,2.7313,2.7299,2.7299,2.704,2.6902,2.6902,2.6661,2.6299,2.5764,2.573,2.5505,2.5023,2.5046,2.5011,2.4907,2.5086,2.5125,2.5079,2.5499,2.5666,2.5638,2.5928,2.5936,2.5652,2.5682,2.5774,2.5931,2.5996,2.6415,2.7053,2.7135,2.7247,2.731,2.7103,2.7021,2.6989,0.0,0.0,0.0,0.0,0.0,0.0,0.0,0.0,0.0,0.0,1.8043,1.7922,1.7909,1.848,1.9092,1.9673,2.0243,2.0765,2.1382,2.1902,0.0,0.0,0.0,0.0,2.2844,2.2844,2.3113,2.3595,0.0,0.0,0.0,0.0,0.0,0.0,2.4261,2.4317,2.4302,2.4416,2.44,2.4302,2.4302,2.4302,2.4302,0.0,0.0,0.0,0.0,0.0,0.0,0.0,0.0,0.0,0.0,0.0,0.0,0.0,0.0,0.0,0.0,0.0,0.0,0.0,0.0,0.0,0.0,0.0,0.0,0.0,0.0,0.0,0.0,0.0,0.0,0.0,0.0,0.0,2.7407,2.7362,2.733,2.7393,2.7362,2.733,2.733,2.6592,2.6143,2.6143,2.5488,2.5074,2.504,2.504,2.5023,2.5005,2.5005,2.4854,2.4503,2.4913,2.4925,2.4624,2.586,2.6301,2.6092,2.6926,2.7066,2.6623,2.6623,2.659,2.6572,2.6589,2.664,2.6691,2.6623,2.6775,2.6975,2.6775,2.6691,2.6691,0.0,0.0,0.0,0.0,0.0,0.0,0.0,0.0,0.0,0.0,1.8043,1.8248,1.8521,1.9076,1.9686,2.021,2.0793,2.1247,2.141,0.0,0.0,0.0,0.0,0.0,2.1698,2.2123,0.0,0.0,0.0,0.0,0.0,0.0,0.0,0.0,0.0,0.0,2.4261,2.3595,2.3696,2.4302,2.44,2.4457,2.4441,0.0,0.0,0.0,0.0,0.0,0.0,0.0,0.0,0.0,0.0,0.0,0.0,0.0,0.0,0.0,0.0,0.0,0.0,0.0,0.0,0.0,0.0,0.0,0.0,0.0,0.0,0.0,0.0,0.0,0.0,0.0,0.0,2.7496,2.7483,2.7452,2.7434,2.7483,2.7452,2.7452,2.7452,2.7243,2.7122,2.7122,2.6887,2.6541,2.6028,2.59,2.564,2.516,2.4954,2.479,2.4731,2.482,2.4761,2.4533,2.5085,2.5217,2.5039,2.5274,2.5224,2.4989,2.5101,2.539,2.5749,2.5831,2.6201,2.6691,2.6674,2.6708,2.6775,2.6725,2.6691,2.6691,0.0,0.0,0.0,0.0,0.0,0.0,0.0,0.0,0.0,0.0,1.8043,1.8276,1.8738,1.932,1.9886,2.0421,2.1036,2.1375,2.1326,0.0,0.0,0.0,0.0,2.1471,0.0,0.0,0.0,0.0,0.0,0.0,0.0,0.0,0.0,0.0,0.0,0.0,2.3681,2.3113,2.3201,2.3724,2.3782,2.4051,2.44,2.4317,2.4302,2.4302,2.4302,2.4302,2.4302,2.4302,0.0,0.0,0.0,0.0,0.0,0.0,0.0,0.0,0.0,0.0,0.0,0.0,0.0,0.0,0.0,0.0,0.0,0.0,0.0,0.0,0.0,0.0,0.0,0.0,2.7526,2.7569,2.7569,2.7496,2.7483,2.7526,2.7483,2.7421,2.7452,2.7126,2.6918,2.6918,2.658,2.6187,2.572,2.5727,2.549,2.4895,2.4936,2.482,2.4458,2.4731,2.4671,2.4334,2.4978,2.5162,2.4963,2.5285,2.5374,2.5228,2.5343,2.5596,2.595,2.6032,2.6302,0.0,0.0,0.0,0.0,0.0,2.6691,2.6691,0.0,0.0,0.0,0.0,0.0,0.0,0.0,0.0,0.0,0.0,0.0,1.8126,1.8791,1.9317,1.9867,2.0435,2.0994,2.1277,0.0,0.0,0.0,2.0997,2.0997,0.0,0.0,0.0,0.0,0.0,0.0,0.0,0.0,0.0,0.0,0.0,0.0,0.0,2.2889,2.2799,2.2799,2.2889,2.2844,2.3377,2.4219,2.4219,2.4261,2.4302,2.4302,2.4302,2.4302,2.4302,0.0,0.0,0.0,0.0,0.0,0.0,0.0,0.0,0.0,0.0,0.0,0.0,0.0,0.0,0.0,0.0,0.0,0.0,0.0,0.0,0.0,0.0,0.0,0.0,2.7659,2.7701,2.7701,2.7557,2.7483,2.7587,2.7452,2.7376,2.7438,2.6736,2.629,2.629,2.5656,2.5188,2.5017,0.0,0.0,0.0,0.0,2.5065,2.4315,2.4866,2.4897,2.4428,2.5421,2.5775,2.5596,2.6269,2.6554,2.6485,2.652,2.6589,2.6691,2.6725,2.6725,2.6725,2.6691,2.6691,2.6691,2.6742,2.6742,2.6742,0.0,0.0,0.0,0.0,0.0,0.0,0.0,0.0,0.0,1.7801,1.776,1.8123,1.911,1.9324,1.9773,2.0793,2.1028,2.1082,0.0,0.0,2.0938,0.0,0.0,0.0,0.0,0.0,0.0,0.0,0.0,0.0,0.0,0.0,0.0,0.0,0.0,0.0,2.2844,2.2016,2.2156,2.2844,2.2495,2.2889,2.3739,2.3739,2.3952,2.4302,2.4302,2.4302,2.4302,2.4302,2.4302,2.4426,2.516,0.0,0.0,0.0,0.0,0.0,0.0,0.0,0.0,0.0,0.0,0.0,0.0,0.0,0.0,0.0,0.0,0.0,0.0,0.0,0.0,2.7587,2.7659,2.7701,2.7701,2.7701,2.7701,2.7672,2.7659,2.763,2.7659,2.749,2.7385,2.7385,2.7022,2.6782,2.6861,2.6625,2.648,2.6497,2.6593,2.6482,2.6118,2.6417,2.6497,2.6284,0.0,0.0,2.6602,2.6556,2.652,2.652,2.6623,2.6674,2.6725,2.6859,2.6942,2.6942,2.6775,2.6691,2.6691,2.6825,2.6842,2.6876,0.0,0.0,0.0,0.0,0.0,0.0,0.0,0.0,0.0,0.0,1.8058,1.8584,1.94,1.9718,2.0194,2.1015,2.1033,0.0,0.0,2.0924,0.0,0.0,0.0,0.0,0.0,0.0,0.0,0.0,0.0,0.0,0.0,0.0,0.0,0.0,0.0,0.0,0.0,2.1506,2.165,2.2109,2.1888,2.2249,2.2934,2.3421,2.3739,2.3994,2.4317,2.4359,2.4317,2.4426,2.4549,2.4775,2.5214,2.5594,2.5977,0.0,0.0,0.0,0.0,0.0,0.0,0.0,0.0,0.0,0.0,0.0,0.0,0.0,0.0,2.7386,0.0,0.0,2.7689,2.7795,2.7893,2.7933,2.7933,2.7961,2.7979,2.7864,2.776,2.776,2.7893,2.7789,2.773,2.78,2.7636,2.7474,2.7324,2.723,2.707,2.6759,2.6973,2.6908,2.6554,2.6775,2.6808,2.6657,2.6657,2.6674,2.6758,2.6657,2.664,2.6691,2.6759,2.6825,2.6859,2.6942,2.7007,2.6975,2.6892,2.6859,2.6859,2.6942,2.6959,2.6959,0.0,0.0,0.0,0.0,0.0,0.0,0.0,0.0,0.0,0.0,0.0,1.883,1.9516,1.9938,2.0442,0.0,0.0,0.0,0.0,2.0825,0.0,0.0,0.0,0.0,0.0,0.0,0.0,0.0,0.0,0.0,0.0,0.0,0.0,0.0,0.0,0.0,2.1229,2.1229,2.1277,2.1423,2.1423,2.1664,2.2123,2.3113,2.3508,2.3638,2.4135,2.4317,2.4343,2.4508,2.4831,2.5146,2.5269,2.5795,2.6365,2.6504,2.6759,0.0,0.0,0.0,0.0,0.0,0.0,0.0,0.0,0.0,2.7369,2.7526,2.7587,2.7647,2.7677,2.7777,2.7893,2.8025,2.8164,2.8228,2.8228,2.8255,2.8246,2.8136,2.7922,2.7876,2.8099,2.7922,2.78,2.784,2.7811,2.7607,2.7149,2.7293,2.712,2.652,2.6908,2.694,2.652,2.6708,2.6775,2.6674,2.664,2.6708,2.6759,2.6742,2.6825,2.6926,2.6942,2.6975,2.7057,2.704,2.704,2.7089,2.7072,2.7072,2.7105,2.704,2.704,2.704,0.0,0.0,0.0,0.0,0.0,0.0,0.0,0.0,0.0,0.0,0.0,0.0,0.0,0.0,0.0,0.0,0.0,0.0,0.0,2.0398,0.0,0.0,0.0,0.0,0.0,0.0,0.0,0.0,0.0,0.0,0.0,0.0,0.0,0.0,0.0,0.0,2.1375,2.1375,2.1375,2.1423,2.1423,2.1423,2.1602,2.2618,2.3246,2.3595,2.3696,2.3952,2.4317,2.4441,2.4766,2.5169,2.561,2.6049,2.6453,2.6825,0.0,2.7007,2.7007,2.7055,2.7117,2.7149,2.7261,2.7434,0.0,0.0,2.7789,2.7968,2.8042,2.8042,2.8042,2.8071,2.8109,2.8246,2.8273,2.8327,2.8362,2.8466,2.8562,2.8536,2.8309,2.8146,2.8191,2.8146,2.8035,2.7742,2.7487,2.7192,2.6873,2.6691,2.6589,2.6485,2.6708,2.6775,2.6589,2.6842,2.7038,2.721,2.699,2.704,2.7404,2.7087,2.6975,2.6975,2.7038,2.7152,2.725,2.7215,2.7247,2.7345,2.7359,2.7404,2.7434,2.7166,2.7135,2.7198,0.0,0.0,0.0,0.0,0.0,0.0,0.0,0.0,0.0,0.0,0.0,0.0,0.0,0.0,0.0,0.0,0.0,0.0,2.0586,2.0334,2.0233,0.0,0.0,0.0,0.0,0.0,0.0,0.0,0.0,0.0,0.0,0.0,0.0,0.0,0.0,2.1059,2.118,2.1229,2.1326,2.1423,2.1746,2.1664,2.1506,2.2328,2.292,2.3304,2.3979,2.4302,0.0,0.0,2.5169,2.5684,2.5888,2.635,2.6858,2.7137,2.7169,0.0,2.7355,2.743,2.7474,0.0,2.7654,2.773,2.7922,2.795,2.8025,2.8191,2.8219,2.8219,2.8273,2.8353,2.8406,0.0,2.8594,2.87,2.8694,2.8821,2.8892,2.8905,2.8779,2.8688,2.8601,2.8543,2.8466,2.8404,2.8147,2.784,2.7439,2.7213,2.699,2.6792,2.6859,2.6892,2.6842,2.6942,2.7055,2.7164,2.7103,2.7215,2.7434,2.7341,2.7279,2.7279,2.7296,2.7327,2.7421,2.7404,2.7404,2.7452,2.7465,2.7496,2.7526,2.7386,2.7355,2.7386,0.0,0.0,0.0,0.0,0.0,0.0,0.0,0.0,0.0,0.0,0.0,0.0,0.0,0.0,0.0,0.0,0.0,0.0,0.0,2.022,2.0131,2.0296,0.0,0.0,0.0,0.0,0.0,0.0,0.0,0.0,0.0,0.0,0.0,0.0,2.0924,2.101,2.1131,2.1229,2.1326,2.1471,2.1996,2.1983,2.1732,2.2512,2.2995,2.3333,2.4006,2.4426,0.0,0.0,2.5572,2.6139,2.6264,2.6757,2.7276,2.7434,2.7448,2.7444,2.7683,0.0,0.0,2.7971,2.8027,2.8083,2.8219,2.8237,2.8273,2.8414,2.8466,2.8518,2.8576,2.8651,2.8749,2.8827,2.9012,2.9123,2.9123,2.9193,2.9275,2.9246,2.9251,2.9212,2.9141,2.8938,2.8797,2.8797,2.8551,2.8246,2.7851,2.7612,2.7404,2.7137,2.7184,2.7184,2.7169,2.7169,2.7184,2.7198,2.7261,2.7355,2.7478,2.7539,2.7539,2.7539,2.7452,2.7483,2.7539,2.7569,2.7617,2.7677,2.7647,2.7677,2.7707,2.7647,2.7587,2.7526,0.0,0.0,0.0,0.0,0.0,0.0,0.0,0.0,0.0,0.0,0.0,0.0,0.0,0.0,0.0,0.0,0.0,0.0,0.0,1.9862,1.9798,1.9811,1.9926,1.999,0.0,0.0,0.0,0.0,0.0,0.0,0.0,0.0,0.0,2.0997,2.1131,2.1277,2.1375,2.1375,2.1423,2.1471,2.1996,2.2203,2.2374,2.3231,2.3681,2.3837,2.3537,0.0,0.0,0.0,2.5908,2.6437,2.6757,2.7241,0.0,2.7701,2.7771,0.0,0.0,0.0,2.8174,2.8174,2.8282,2.8414,2.8562,2.8587,2.8637,2.8839,2.8934,2.9003,2.9067,2.9097,2.9172,2.9437,2.9476,2.9533,2.9661,2.9678,2.9661,2.9589,2.957,2.9608,0.0,2.9336,2.8929,2.8554,2.8324,2.8029,2.7613,2.7535,2.7496,2.7496,2.763,2.7659,2.7587,2.7587,2.7557,2.7496,2.7496,2.7569,2.7701,2.7701,2.7701,2.7701,2.7539,2.7569,2.7701,2.776,2.7893,2.8071,2.8014,2.7986,2.7986,2.7986,2.7824,2.7587,0.0,0.0,0.0,0.0,0.0,0.0,0.0,0.0,0.0,0.0,0.0,0.0,0.0,0.0,0.0,0.0,0.0,0.0,0.0,1.9862,1.9862,1.9926,1.9862,1.9926,1.999,0.0,0.0,0.0,0.0,0.0,0.0,0.0,0.0,2.0799,2.0924,2.1242,2.1664,2.1375,2.152,2.1949,2.2137,2.2249,2.2374,2.3187,2.3794,2.4266,0.0,0.0,0.0,0.0,2.6282,2.674,2.7095,0.0,0.0,2.795,2.8073,2.8219,2.8291,0.0,2.8484,2.8587,2.8687,2.8743,2.8839,2.8905,2.8998,2.9203,2.9295,2.9375,2.9537,2.9603,2.9663,2.9752,2.9809,2.9832,2.9825,2.995,3.0007,2.9943,2.9973,0.0,0.0,0.0,0.0,2.9126,2.886,2.8572,2.8219,2.7971,2.78,2.7771,2.78,2.7858,2.7876,2.7876,2.7933,2.8035,2.8035,2.8035,2.8035,2.7979,2.7979,2.8035,2.794,2.7968,2.8017,2.8063,2.8091,2.8164,2.8136,2.8136,2.8136,2.8136,2.8081,2.8007,0.0,0.0,0.0,0.0,0.0,0.0,0.0,0.0,0.0,0.0,0.0,0.0,0.0,0.0,0.0,0.0,0.0,0.0,0.0,0.0,1.972,1.9784,1.972,1.972,1.9784,1.9759,0.0,0.0,0.0,0.0,0.0,0.0,2.0686,2.0736,2.0911,2.1242,2.1664,2.1616,2.1793,2.2217,2.2694,2.2935,2.3054,2.3764,2.4405,0.0,0.0,0.0,0.0,0.0,2.6855,2.7224,2.7619,2.7954,2.8219,2.8335,2.8518,2.8651,2.8669,2.8743,2.8839,2.8934,2.9026,2.9119,2.9191,2.9251,2.9353,2.9533,2.9605,2.9676,2.9834,2.9946,3.0018,3.0042,3.0086,3.0142,3.0113,3.023,3.0295,3.0253,3.0278,3.029,0.0,0.0,0.0,2.9624,2.9322,2.9052,2.8842,2.8504,2.8298,2.8272,2.829,2.8281,2.8299,2.8246,2.8264,2.8353,2.838,2.8362,2.8335,2.83,2.83,2.8353,2.8246,2.8273,2.8335,2.8335,2.8362,2.8414,2.8362,2.8335,2.8335,2.8335,2.8335,2.8309,0.0,0.0,0.0,0.0,0.0,0.0,0.0,0.0,0.0,0.0,0.0,0.0,0.0,0.0,0.0,0.0,0.0,0.0,0.0,0.0,0.0,1.942,1.942,1.942,1.942,1.9512,1.9617,0.0,0.0,0.0,0.0,2.0422,2.0709,2.0845,2.1118,2.1313,2.1506,2.203,2.2263,2.2402,2.3593,2.4142,2.4277,2.4926,0.0,0.0,0.0,0.0,0.0,0.0,0.0,0.0,0.0,2.8492,2.8761,2.8863,2.8998,2.9089,2.9048,2.9119,2.923,2.9212,2.9375,2.9532,2.9605,2.9624,2.9678,2.9882,2.9931,2.9942,3.0007,0.0,3.0253,3.0306,3.0364,3.0446,3.0494,3.0509,3.0514,0.0,0.0,0.0,0.0,0.0,0.0,3.0054,0.0,2.9438,2.942,2.9095,2.8934,2.8911,2.8966,2.8957,2.8821,2.8712,2.8587,2.844,2.8543,2.8612,2.8612,2.8612,2.8612,2.8612,2.8492,2.8492,2.8612,2.8612,2.8687,2.8785,2.8662,2.8612,2.8612,2.8612,2.8612,2.8562,0.0,0.0,0.0,0.0,0.0,0.0,0.0,0.0,0.0,0.0,0.0,0.0,0.0,0.0,0.0,0.0,0.0,0.0,0.0,0.0,0.0,0.0,0.0,0.0,0.0,0.0,0.0,0.0,0.0,0.0,0.0,2.0746,2.1006,0.0,2.1766,2.2267,2.2725,2.277,2.3039,2.3435,0.0,2.3834,2.444,0.0,0.0,0.0,0.0,0.0,0.0,0.0,0.0,0.0,0.0,2.8834,2.8998,2.9044,2.9138,2.927,2.9357,2.9436,2.9514,2.9621,2.9723,2.9807,2.9882,2.9946,3.0021,3.0162,3.0229,3.0285,3.0355,0.0,0.0,3.0607,3.0618,0.0,3.0641,3.0657,0.0,3.0639,0.0,3.0695,3.0652,3.0657,0.0,0.0,3.0124,2.9821,2.9626,2.9456,2.9318,2.9191,2.9209,2.9188,2.9101,2.9093,2.9044,2.891,2.8952,2.8952,2.89,2.89,2.89,2.8881,2.8791,2.8834,2.8881,2.8858,2.8839,2.8881,2.8834,2.8785,2.8737,2.8737,2.8737,2.8737,0.0,0.0,0.0,0.0,0.0,0.0,0.0,0.0,0.0,0.0,0.0,0.0,0.0,0.0,0.0,0.0,0.0,0.0,0.0,0.0,0.0,0.0,0.0,0.0,0.0,0.0,0.0,0.0,0.0,0.0,0.0,2.0944,2.1452,2.2146,2.236,2.2876,2.3576,0.0,0.0,0.0,0.0,0.0,0.0,0.0,0.0,0.0,0.0,0.0,0.0,0.0,0.0,2.8858,2.8952,2.9071,2.9203,2.9286,0.0,2.9551,2.9662,2.9784,2.988,2.995,3.0037,3.0106,3.0196,3.024,3.0278,3.0403,3.0435,0.0,3.0527,3.0604,0.0,0.0,0.0,0.0,3.0735,3.0723,3.0714,0.0,3.0819,0.0,3.0701,3.0729,3.0718,0.0,3.0393,3.0171,3.003,2.9848,2.9731,2.9644,2.9588,2.9495,2.9336,2.9372,2.9349,2.9286,2.9286,2.9265,2.9222,2.916,2.9138,2.9138,0.0,2.9115,2.9138,2.9089,2.9085,2.9067,2.9044,2.9021,2.8975,2.8975,2.8975,2.8998,0.0,0.0,0.0,0.0,0.0,0.0,0.0,0.0,0.0,0.0,0.0,0.0,0.0,0.0,0.0,0.0,0.0,0.0,0.0,0.0,0.0,0.0,0.0,0.0,0.0,0.0,0.0,0.0,0.0,0.0,0.0,0.0,0.0,0.0,0.0,0.0,0.0,0.0,0.0,0.0,0.0,0.0,0.0,0.0,0.0,0.0,0.0,0.0,0.0,0.0,2.885,2.9062,2.9178,2.927,2.9395,2.957,2.9735,2.9867,2.9931,3.008,3.0235,3.0248,3.0306,3.0384,3.0501,3.0482,3.0466,3.0565,0.0,3.0518,3.055,3.0578,3.0594,3.0651,0.0,3.0583,3.0763,3.0735,3.0771,3.0876,3.0898,3.0835,3.0728,3.0763,3.077,3.0707,3.054,3.0441,3.0428,3.0228,3.0122,3.0104,2.9992,2.9815,2.957,2.9551,2.9551,2.9551,2.9551,2.9531,2.9531,2.9395,2.9334,2.9334,2.9314,2.9314,2.9332,2.9307,2.9304,2.9304,2.9243,2.9222,2.92,2.92,2.9218,2.9222,0.0,0.0,0.0,0.0,0.0,0.0,0.0,0.0,0.0,0.0,0.0,0.0,0.0,0.0,0.0,0.0,0.0,0.0,0.0,0.0,0.0,0.0,0.0,0.0,0.0,0.0,0.0,0.0,0.0,0.0,0.0,0.0,0.0,0.0,0.0,0.0,0.0,0.0,0.0,0.0,0.0,0.0,0.0,0.0,0.0,0.0,0.0,0.0,0.0,0.0,2.931,2.9178,2.9249,2.9436,2.9643,2.9732,2.9899,3.0095,3.0273,3.0348,3.0404,3.0577,3.062,3.0634,3.0657,3.0602,0.0,0.0,3.055,3.0531,3.0385,3.0443,3.0491,3.0449,0.0,0.0,0.0,0.0,3.0798,0.0,0.0,0.0,0.0,0.0,0.0,0.0,0.0,3.0614,3.0568,3.0436,3.0297,3.019,3.0099,3.0011,2.9912,2.9853,2.9786,2.975,2.9754,2.9755,2.9736,2.9626,2.9551,2.9551,2.9434,0.0,2.9472,2.9412,2.9372,2.9372,2.9372,2.9328,2.9262,2.9262,2.924,2.92,0.0,0.0,0.0,0.0,0.0,0.0,0.0,0.0,0.0,0.0,1.7639,1.7323,0.0,0.0,0.0,0.0,0.0,0.0,0.0,0.0,0.0,0.0,0.0,0.0,0.0,0.0,0.0,0.0,0.0,0.0,0.0,0.0,0.0,0.0,0.0,0.0,0.0,0.0,0.0,0.0,0.0,0.0,0.0,0.0,0.0,0.0,0.0,0.0,0.0,0.0,2.9758,2.9645,2.9551,2.966,2.988,3.0019,3.0157,3.0295,3.0461,3.0522,3.0575,3.067,3.0696,3.0715,3.0733,0.0,0.0,0.0,3.0556,3.0505,3.0317,0.0,0.0,0.0,0.0,0.0,0.0,0.0,0.0,0.0,0.0,0.0,0.0,0.0,0.0,0.0,0.0,3.0664,3.0597,3.054,3.0462,3.0398,3.0273,3.0177,3.0169,3.0085,3.0066,3.0065,3.0011,3.0015,3.0003,2.9869,2.977,2.9699,2.9681,0.0,2.9645,2.9645,2.9681,2.9697,2.9681,2.9662,2.9643,2.9551,2.9494,2.9474,0.0,0.0,0.0,0.0,0.0,0.0,0.0,1.8397,1.8254,1.8592,1.8187,1.7707,1.7393,1.7393,0.0,0.0,0.0,0.0,0.0,0.0,0.0,0.0,0.0,0.0,0.0,0.0,0.0,0.0,0.0,0.0,0.0,0.0,0.0,0.0,0.0,0.0,0.0,0.0,0.0,0.0,0.0,0.0,0.0,0.0,0.0,0.0,0.0,0.0,0.0,0.0,3.0141,3.0174,2.9942,2.998,3.0132,3.0304,3.0405,3.0497,3.0584,3.0657,3.0702,3.0673,3.0682,3.0681,3.072,3.0679,0.0,0.0,3.0471,3.0411,3.0314,0.0,0.0,0.0,0.0,0.0,0.0,0.0,0.0,0.0,0.0,0.0,0.0,0.0,0.0,0.0,0.0,0.0,3.0599,3.0602,3.0613,3.0615,3.0442,3.0348,3.0352,3.0292,3.0266,3.0309,3.0267,3.0254,3.0244,3.0122,2.9996,2.9886,2.9934,0.0,0.0,2.991,2.9972,3.0026,2.9996,2.9988,3.0009,2.9842,2.978,2.978,0.0,0.0,0.0,0.0,0.0,0.0,0.0,1.9026,1.8988,1.9026,1.8988,1.8655,1.7827,1.7421,0.0,0.0,0.0,0.0,0.0,0.0,0.0,0.0,0.0,0.0,0.0,0.0,0.0,0.0,0.0,0.0,0.0,0.0,0.0,0.0,0.0,0.0,0.0,0.0,0.0,0.0,0.0,0.0,0.0,0.0,0.0,0.0,0.0,0.0,0.0,0.0,0.0,3.0545,3.0458,3.0443,3.0455,3.0477,0.0,0.0,3.0696,3.0703,3.0699,3.0629,3.0614,3.0586,3.0528,0.0,0.0,3.0254,3.0285,3.0314,3.0299,3.0254,0.0,0.0,0.0,0.0,0.0,0.0,0.0,0.0,0.0,0.0,0.0,0.0,0.0,0.0,0.0,0.0,3.0603,3.0656,3.0683,3.0683,3.0602,3.0568,3.0559,3.0509,3.0439,3.0398,3.039,3.0375,3.0384,3.0309,3.0232,3.0158,3.0106,0.0,0.0,3.0034,3.0094,3.0109,3.015,3.0138,3.0106,3.006,3.0013,2.9971,0.0,0.0,0.0,0.0,0.0,0.0,0.0,1.8045,1.8071,1.875,1.8506,1.8289,1.8338,1.8198,1.7774,0.0,0.0,0.0,0.0,0.0,0.0,0.0,0.0,0.0,0.0,0.0,0.0,0.0,0.0,0.0,0.0,0.0,0.0,0.0,0.0,0.0,0.0,0.0,0.0,0.0,0.0,0.0,0.0,0.0,0.0,0.0,0.0,0.0,0.0,0.0,0.0,0.0,3.0682,3.0658,0.0,0.0,3.0698,3.0703,3.0755,3.07,3.0628,3.0652,3.0595,3.0537,3.0558,0.0,3.0423,3.0348,3.0314,3.0285,3.0253,3.0152,3.009,0.0,0.0,0.0,0.0,0.0,0.0,0.0,0.0,0.0,0.0,0.0,0.0,0.0,0.0,0.0,3.0661,3.0717,3.073,3.0637,3.0649,3.0661,3.0665,3.0586,3.0568,3.0585,3.0491,3.0462,3.0462,3.0402,3.0329,3.0267,3.0279,0.0,0.0,3.0294,3.0344,3.0356,3.0402,3.0423,3.0404,3.0365,3.0295,3.024,0.0,0.0,0.0,0.0,0.0,0.0,1.8268,1.7928,1.7968,1.8952,1.8365,1.8083,1.876,1.8695,1.8261,1.7407,0.0,0.0,0.0,0.0,0.0,0.0,0.0,0.0,0.0,0.0,0.0,0.0,0.0,0.0,0.0,0.0,0.0,0.0,0.0,0.0,0.0,0.0,0.0,0.0,0.0,0.0,0.0,0.0,0.0,0.0,0.0,0.0,0.0,0.0,0.0,0.0,0.0,0.0,0.0,0.0,3.0743,3.07,3.0724,3.0668,3.061,3.0607,3.053,3.0462,0.0,0.0,3.0414,3.0329,3.0297,3.026,3.0199,3.0064,2.9972,0.0,0.0,0.0,0.0,0.0,0.0,0.0,0.0,0.0,0.0,0.0,0.0,0.0,0.0,0.0,3.0683,3.0753,3.0745,3.0639,3.0685,3.0685,3.0664,3.0634,3.0653,3.069,3.0585,3.0539,3.0571,3.051,3.0443,3.0384,3.0458,0.0,0.0,3.0516,3.0554,3.0543,3.0622,3.0656,3.0644,3.0605,3.0571,3.0494,0.0,0.0,0.0,0.0,0.0,0.0,0.0,1.9322,1.923,1.9901,1.8937,1.8439,1.9108,1.8676,1.8332,1.8401,0.0,0.0,0.0,0.0,0.0,0.0,0.0,0.0,0.0,0.0,0.0,0.0,0.0,0.0,0.0,0.0,0.0,0.0,0.0,0.0,0.0,0.0,0.0,0.0,0.0,0.0,0.0,0.0,0.0,0.0,0.0,0.0,0.0,0.0,0.0,0.0,0.0,0.0,0.0,0.0,3.0704,3.0683,3.0621,3.0604,3.0568,3.0444,3.041,3.0374,0.0,0.0,3.0267,3.0128,3.0161,3.0204,3.0204,3.0034,2.9937,3.0079,0.0,0.0,0.0,0.0,0.0,0.0,0.0,0.0,0.0,0.0,0.0,0.0,0.0,0.0,3.06,3.0721,3.0769,3.07,3.0691,3.0678,3.0603,3.0678,3.0704,3.069,3.0626,3.0626,3.069,3.0691,3.0664,3.0602,0.0,0.0,0.0,3.0646,3.0665,3.0607,3.0745,3.0799,3.0799,3.0799,3.0799,3.0799,0.0,0.0,0.0,0.0,0.0,0.0,0.0,1.8223,1.8558,1.9223,1.8626,1.8529,1.9627,1.8819,1.8602,1.9466,0.0,0.0,0.0,0.0,0.0,0.0,0.0,0.0,0.0,0.0,0.0,0.0,0.0,0.0,0.0,0.0,0.0,0.0,0.0,0.0,0.0,0.0,0.0,0.0,0.0,0.0,0.0,0.0,0.0,0.0,0.0,0.0,0.0,0.0,0.0,0.0,0.0,0.0,0.0,0.0,0.0,0.0,3.0548,3.054,3.052,3.0414,3.0374,3.0324,3.0232,0.0,3.0226,3.019,3.0199,3.0194,3.0138,3.0079,3.0034,3.0034,2.9988,0.0,0.0,0.0,0.0,0.0,0.0,0.0,0.0,0.0,0.0,0.0,0.0,0.0,3.0737,3.0737,3.0704,3.0633,3.0685,3.0709,3.074,3.071,3.0698,3.0703,3.0685,3.069,3.069,3.0649,3.0642,0.0,0.0,0.0,0.0,3.0743,3.0735,3.0677,3.0763,3.0769,3.0735,3.0774,3.0798,3.0806,0.0,0.0,0.0,0.0,0.0,0.0,0.0,1.8228,1.8516,1.9218,1.8581,1.8563,1.9821,1.9094,1.893,1.998,0.0,0.0,0.0,0.0,0.0,0.0,0.0,0.0,0.0,0.0,0.0,0.0,0.0,0.0,0.0,0.0,0.0,0.0,0.0,0.0,0.0,0.0,0.0,0.0,0.0,0.0,3.0592,0.0,0.0,0.0,0.0,0.0,0.0,0.0,0.0,0.0,0.0,0.0,0.0,0.0,3.0492,0.0,0.0,3.046,3.0447,3.0355,3.0292,0.0,0.0,0.0,3.0226,3.0218,3.0213,3.018,3.0123,3.0064,3.0003,2.9943,2.9907,0.0,0.0,0.0,0.0,0.0,0.0,0.0,0.0,0.0,0.0,0.0,0.0,0.0,3.0606,2.8696,2.8485,3.058,3.0684,3.0725,3.0767,3.0745,3.0745,3.0747,3.0745,3.0725,3.0709,3.0683,3.0703,0.0,0.0,0.0,0.0,3.0849,3.0811,3.0788,3.083,3.0813,3.0786,3.0813,3.0836,3.0846,0.0,0.0,0.0,0.0,0.0,0.0,0.0,0.0,0.0,0.0,1.8411,1.8143,1.9362,1.8912,1.8927,0.0,0.0,0.0,0.0,0.0,0.0,0.0,0.0,0.0,0.0,0.0,0.0,0.0,2.493,2.5587,2.5486,0.0,0.0,0.0,0.0,0.0,0.0,2.7962,2.8509,2.9315,2.9301,2.9757,0.0,0.0,0.0,0.0,0.0,0.0,0.0,0.0,0.0,0.0,0.0,0.0,0.0,0.0,0.0,0.0,0.0,0.0,0.0,0.0,0.0,0.0,0.0,0.0,0.0,3.0185,3.0171,3.0171,3.0094,2.9969,2.9874,2.9789,0.0,0.0,0.0,0.0,0.0,0.0,0.0,0.0,0.0,0.0,0.0,0.0,0.0,0.0,3.0321,2.5716,2.53,3.0559,3.0711,3.07,3.0715,3.0774,3.081,3.0793,3.0801,3.0771,3.0703,3.0773,3.0781,0.0,0.0,0.0,0.0,3.0898,3.0898,3.0896,3.0907,3.0901,3.0899,3.0899,3.0899,3.0899,0.0,0.0,0.0,0.0,0.0,0.0,0.0,0.0,0.0,0.0,0.0,1.4886,1.553,1.4679,0.0,0.0,0.0,0.0,0.0,0.0,0.0,0.0,0.0,0.0,0.0,0.0,0.0,2.4099,2.4797,2.5145,2.5126,2.5659,0.0,0.0,0.0,0.0,2.8091,2.8086,2.8203,2.8408,2.8457,2.8554,0.0,0.0,0.0,0.0,3.0378,3.0593,0.0,0.0,0.0,0.0,0.0,0.0,0.0,0.0,2.9908,2.9848,2.9801,0.0,3.0305,3.0221,3.0188,0.0,0.0,0.0,0.0,0.0,0.0,0.0,0.0,0.0,0.0,0.0,0.0,0.0,0.0,0.0,0.0,0.0,0.0,0.0,0.0,0.0,0.0,0.0,0.0,2.9296,3.0683,2.9466,2.9385,3.0806,3.0808,3.0798,3.0849,3.0767,3.076,3.0793,3.0798,3.0792,3.0779,3.0749,3.0726,0.0,0.0,0.0,3.0759,3.0856,3.0892,3.0898,3.0898,3.0898,3.0894,3.0894,3.0892,3.0891,0.0,0.0,0.0,0.0,0.0,0.0,0.0,0.0,0.0,0.0,0.0,0.0,0.0,0.0,0.0,0.0,0.0,0.0,0.0,0.0,0.0,0.0,0.0,0.0,0.0,0.0,0.0,0.0,0.0,2.5171,0.0,0.0,0.0,0.0,0.0,2.6585,2.7049,2.6973,2.7185,2.7553,2.7563,0.0,0.0,0.0,0.0,0.0,2.971,2.9941,0.0,3.026,3.0203,3.0028,0.0,0.0,0.0,0.0,2.9713,2.9644,2.9626,2.9786,2.9981,2.9962,2.9962,2.9996,0.0,0.0,0.0,0.0,0.0,0.0,0.0,0.0,0.0,0.0,0.0,0.0,0.0,0.0,0.0,0.0,0.0,0.0,0.0,0.0,0.0,0.0,0.0,2.7865,3.0526,2.8177,2.8003,3.0722,3.0807,3.0824,3.0859,3.0782,3.0756,3.0807,3.0808,3.0792,3.0804,3.0761,3.0758,0.0,0.0,0.0,3.0741,3.0868,3.0903,3.0909,3.0909,3.0894,3.0897,3.0898,3.0898,3.0898,0.0,0.0,0.0,0.0,0.0,0.0,0.0,0.0,0.0,0.0,0.0,0.0,0.0,0.0,0.0,0.0,0.0,0.0,0.0,0.0,0.0,0.0,0.0,0.0,0.0,0.0,0.0,0.0,0.0,0.0,0.0,0.0,0.0,0.0,0.0,2.5677,2.5679,2.5619,2.6018,2.6673,2.6617,0.0,0.0,0.0,0.0,0.0,0.0,0.0,0.0,2.9677,2.9783,2.9574,2.971,0.0,0.0,0.0,0.0,0.0,2.9456,2.9456,2.9494,2.9661,2.9731,2.982,0.0,0.0,0.0,0.0,0.0,0.0,0.0,0.0,0.0,0.0,0.0,0.0,0.0,0.0,0.0,0.0,0.0,0.0,0.0,0.0,0.0,0.0,0.0,2.5407,3.0259,2.5995,2.5636,3.0535,3.0742,3.0781,3.0778,3.0792,3.081,3.0806,3.0798,3.0784,3.0774,3.0784,3.0775,3.0788,0.0,0.0,3.0804,3.086,3.0877,3.088,3.088,3.0899,3.0899,3.0886,3.0868,3.0866,0.0,0.0,0.0,0.0,0.0,0.0,0.0,0.0,0.0,0.0,0.0,0.0,0.0,0.0,0.0,0.0,0.0,0.0,0.0,0.0,0.0,0.0,0.0,0.0,0.0,0.0,0.0,0.0,0.0,0.0,2.5632,2.5659,2.5658,0.0,0.0,2.5616,2.5604,2.56,2.5634,2.5718,2.5706,0.0,0.0,0.0,0.0,0.0,0.0,0.0,0.0,2.8571,2.8676,2.8559,2.9251,0.0,0.0,0.0,0.0,0.0,2.8845,2.8845,2.8989,2.957,2.9869,3.0022,0.0,0.0,0.0,0.0,0.0,0.0,0.0,0.0,0.0,0.0,0.0,0.0,0.0,0.0,0.0,0.0,0.0,0.0,0.0,0.0,0.0,0.0,0.0,2.9608,3.0537,2.9765,2.9698,3.0598,3.0676,3.0692,3.0635,3.0804,3.0866,3.0793,3.0801,3.0763,3.0711,3.072,3.0724,3.0718,0.0,3.0796,3.0797,3.0804,3.0816,3.0821,3.0821,3.086,3.0894,3.0759,3.0725,3.0724,0.0,0.0,0.0,0.0,0.0,0.0,0.0,0.0,0.0,0.0,0.0,0.0,0.0,0.0,0.0,0.0,0.0,0.0,0.0,0.0,0.0,0.0,0.0,0.0,0.0,0.0,0.0,0.0,0.0,2.5581,2.5658,2.5646,2.564,2.5643,2.5609,2.56,2.5595,2.5554,2.5525,2.5505,0.0,0.0,0.0,0.0,0.0,0.0,0.0,0.0,0.0,0.0,2.7867,2.8019,2.8206,0.0,0.0,0.0,0.0,0.0,2.8201,2.8264,2.8435,2.8879,2.9258,2.9513,0.0,0.0,0.0,0.0,0.0,0.0,0.0,0.0,0.0,0.0,0.0,0.0,0.0,0.0,0.0,0.0,0.0,0.0,0.0,0.0,0.0,0.0,0.0,0.0,3.0491,3.0417,3.0417,3.0497,3.049,3.0519,3.0597,3.0733,3.077,3.075,3.075,3.0743,3.0746,3.071,3.0703,3.0701,0.0,3.073,3.0685,3.0735,3.0701,3.0642,3.0686,3.0726,3.0786,3.0726,3.0706,3.0697,0.0,0.0,0.0,0.0,0.0,0.0,0.0,0.0,0.0,0.0,0.0,0.0,0.0,0.0,0.0,0.0,0.0,0.0,0.0,0.0,0.0,0.0,0.0,0.0,0.0,0.0,2.5539,2.552,2.5566,2.5576,2.5551,2.56,2.5593,0.0,2.5585,2.5568,2.5544,2.5478,2.5468,2.5464,0.0,0.0,0.0,0.0,0.0,0.0,0.0,0.0,0.0,0.0,0.0,0.0,0.0,0.0,0.0,2.7901,2.7811,2.7736,2.7736,2.7787,2.7893,2.8094,0.0,0.0,0.0,0.0,0.0,0.0,0.0,0.0,0.0,0.0,0.0,0.0,0.0,2.9514,2.9908,3.0052,3.0122,3.0163,3.0136,0.0,0.0,0.0,0.0,0.0,0.0,0.0,3.0398,3.0299,3.0279,3.0321,3.0294,3.0337,3.0505,3.0567,3.0615,3.0684,3.0688,3.0692,3.0714,3.0696,3.0676,3.0656,3.0691,3.0671,3.062,3.0659,3.062,3.0529,3.0556,3.0605,3.062,3.0633,3.0496,3.0322,0.0,0.0,0.0,0.0,0.0,0.0,0.0,0.0,0.0,0.0,0.0,0.0,0.0,0.0,0.0,0.0,0.0,0.0,0.0,0.0,0.0,0.0,0.0,0.0,0.0,2.5631,2.5657,2.5598,2.5535,2.5473,2.5425,2.5531,2.557,2.551,2.551,2.548,2.5404,2.5351,2.5341,2.5389,2.5134,0.0,0.0,0.0,0.0,0.0,0.0,0.0,0.0,0.0,0.0,0.0,0.0,0.0,2.6949,2.76,2.766,2.7525,2.7525,2.7482,2.7439,2.747,2.8103,0.0,0.0,0.0,0.0,0.0,0.0,0.0,0.0,0.0,0.0,0.0,0.0,0.0,3.0128,0.0,3.0177,3.0364,3.0203,3.0182,0.0,0.0,0.0,0.0,0.0,0.0,3.0398,3.0398,3.0311,3.0136,3.0182,3.0209,3.0228,3.0235,3.0352,3.0608,3.0617,3.055,3.0428,3.0558,3.0576,3.0521,3.0653,3.0704,3.0691,3.0618,3.0598,3.0586,3.0537,3.047,3.0414,3.0414,2.9899,2.9217,0.0,0.0,0.0,0.0,0.0,0.0,0.0,0.0,0.0,0.0,0.0,0.0,0.0,0.0,0.0,0.0,0.0,0.0,0.0,0.0,0.0,0.0,0.0,2.5675,2.5603,2.5661,2.5671,2.5609,2.5537,2.5476,2.5395,2.5376,0.0,0.0,2.5094,2.5027,2.4955,2.493,2.4968,2.5019,2.4883,2.4766,0.0,0.0,0.0,0.0,0.0,0.0,0.0,0.0,2.4635,2.4926,0.0,2.6176,2.6422,2.6926,2.7004,2.6939,2.6891,2.6858,2.6858,2.7004,0.0,0.0,0.0,0.0,0.0,0.0,0.0,0.0,0.0,0.0,0.0,0.0,0.0,2.9958,3.0109,3.0209,3.0311,3.039,3.0336,3.0311,3.0398,3.0323,0.0,0.0,0.0,0.0,3.0398,3.0267,3.0182,3.0089,3.0037,3.0011,3.0011,3.0003,3.0061,3.0169,3.0425,3.0539,3.0518,3.0479,3.046,3.0449,3.0452,3.0432,3.0398,3.037,3.0317,3.029,3.0353,3.0301,3.0239,3.0351,3.0106,2.9653,0.0,0.0,0.0,0.0,0.0,0.0,0.0,0.0,0.0,0.0,0.0,0.0,0.0,0.0,0.0,0.0,0.0,0.0,0.0,0.0,0.0,0.0,0.0,2.5679,2.5593,2.5617,2.561,2.5574,2.548,2.5367,2.5212,0.0,0.0,0.0,2.478,2.4695,2.47,2.4622,2.464,2.4693,2.4586,2.4491,0.0,0.0,0.0,0.0,0.0,0.0,0.0,0.0,2.4053,0.0,0.0,0.0,0.0,0.0,2.6353,2.6503,2.6434,2.6415,2.645,0.0,0.0,0.0,0.0,0.0,0.0,0.0,0.0,0.0,0.0,0.0,0.0,0.0,2.927,2.9734,2.9559,2.984,2.998,2.9756,2.9918,3.006,3.006,3.006,3.0151,3.0379,3.0398,3.0398,3.0398,3.0267,3.0169,3.0089,3.0007,2.9931,2.9902,2.9899,2.9896,2.9896,3.0182,3.0367,3.0441,3.0433,3.0402,3.034,3.0333,3.0292,3.0226,3.0215,3.0147,3.0117,3.0196,3.019,3.0117,3.0247,3.0017,2.9555,0.0,0.0,0.0,0.0,0.0,0.0,0.0,0.0,0.0,0.0,0.0,0.0,0.0,0.0,0.0,0.0,0.0,0.0,0.0,0.0,0.0,0.0,0.0,2.5666,2.5608,2.5537,2.5503,2.5492,2.5354,2.5124,2.479,2.4858,0.0,0.0,2.4545,2.4564,2.4693,2.4468,2.4416,2.4465,2.4284,2.4192,2.4173,0.0,0.0,0.0,0.0,0.0,0.0,0.0,2.3544,2.321,0.0,0.0,0.0,2.5195,2.5848,2.6295,2.6295,2.6258,2.622,0.0,0.0,0.0,0.0,0.0,0.0,0.0,0.0,0.0,0.0,0.0,0.0,2.8336,2.8732,2.8915,2.8364,2.8868,2.9045,2.8388,2.8888,2.9285,2.9285,2.9246,2.9542,3.0316,3.0352,3.0333,3.0398,3.0398,3.0299,3.0109,3.0109,3.0037,2.9902,2.9902,2.9902,2.9902,2.9902,2.9984,3.0109,3.0359,3.0383,3.0196,3.0343,3.0343,3.0279,3.0213,3.0142,3.0087,3.0102,3.0102,3.0102,3.0094,2.9467,2.8619,0.0,0.0,0.0,0.0,0.0,0.0,0.0,0.0,0.0,0.0,0.0,0.0,0.0,0.0,0.0,0.0,0.0,0.0,0.0,0.0,0.0,0.0,0.0,0.0,0.0,0.0,2.5284,2.5293,2.5245,2.508,0.0,0.0,0.0,2.4334,0.0,0.0,0.0,2.4001,2.3981,2.3984,2.3937,2.3933,2.3912,0.0,0.0,0.0,0.0,0.0,0.0,0.0,0.0,0.0,0.0,0.0,0.0,2.5748,2.6164,2.6295,2.6258,2.6203,0.0,0.0,0.0,0.0,0.0,0.0,0.0,0.0,0.0,0.0,0.0,0.0,0.0,2.7619,2.8117,2.8476,2.8317,2.8462,2.8489,2.8197,2.8421,2.8555,2.8456,2.5371,2.4941,2.8632,2.5686,2.5447,2.9418,2.9618,2.9772,3.0089,3.0109,3.0037,2.9902,2.9769,2.9698,2.9698,2.9698,2.9851,3.0174,3.0155,3.0061,2.9924,2.9858,2.9729,2.9533,2.9551,2.9644,2.9734,2.9805,2.9822,2.9839,3.0015,2.9813,2.9363,0.0,0.0,0.0,0.0,0.0,0.0,0.0,0.0,0.0,0.0,0.0,0.0,0.0,0.0,0.0,0.0,0.0,0.0,0.0,0.0,0.0,0.0,0.0,0.0,0.0,2.5254,2.5103,0.0,0.0,0.0,0.0,0.0,0.0,2.4023,0.0,2.3789,0.0,2.3743,2.3743,2.3786,2.4068,2.4234,2.4353,0.0,0.0,0.0,0.0,0.0,0.0,0.0,0.0,0.0,0.0,0.0,0.0,2.5681,2.6009,2.6258,2.6203,0.0,0.0,0.0,0.0,0.0,0.0,0.0,0.0,0.0,0.0,0.0,0.0,2.7692,0.0,2.7256,2.7564,2.771,2.7412,2.7601,2.7638,2.7262,2.751,2.771,2.762,2.4998,2.4647,2.7911,2.5418,2.5201,2.8648,2.9102,2.9429,2.9775,3.007,3.0114,2.9902,2.9786,2.9644,2.9531,2.9531,2.9626,2.9842,2.9845,2.9744,2.955,2.9457,2.9299,2.9188,2.923,2.9334,2.9455,2.9513,2.9532,2.957,2.9836,2.982,2.9587,0.0,0.0,0.0,0.0,0.0,0.0,0.0,0.0,0.0,0.0,0.0,0.0,0.0,0.0,0.0,0.0,0.0,0.0,0.0,0.0,0.0,0.0,0.0,0.0,0.0,0.0,0.0,0.0,0.0,0.0,0.0,0.0,2.3921,2.3792,0.0,2.3674,0.0,2.3723,2.3737,2.3858,2.459,2.5,2.5226,2.5745,0.0,0.0,0.0,0.0,0.0,0.0,0.0,0.0,2.5227,2.5382,2.5639,2.5296,2.5673,2.6168,2.6168,0.0,0.0,0.0,0.0,0.0,0.0,0.0,0.0,0.0,0.0,0.0,2.7903,2.7377,2.6851,2.7052,2.7022,2.6747,2.6085,2.6471,2.6585,2.5957,2.6438,2.6802,2.6771,2.6398,2.6616,2.7707,2.7393,2.7393,2.7954,2.8648,2.9064,2.9194,2.9851,3.0075,2.9815,2.9746,2.9588,2.9368,2.9326,2.9291,2.9221,2.9458,2.942,2.9159,2.9067,2.9038,2.902,2.9082,2.9144,2.9166,2.9212,2.9272,2.9314,2.9589,2.9551,2.9414,0.0,0.0,0.0,0.0,0.0,0.0,0.0,0.0,0.0,0.0,0.0,0.0,0.0,0.0,0.0,0.0,0.0,0.0,0.0,0.0,0.0,0.0,0.0,0.0,0.0,0.0,0.0,0.0,0.0,0.0,0.0,0.0,0.0,2.3703,0.0,2.3625,2.3683,2.4224,2.4468,2.4563,2.529,2.56,2.5685,2.602,2.6157,0.0,0.0,0.0,0.0,0.0,0.0,0.0,2.5963,2.5954,2.5885,2.5999,2.6038,2.6026,0.0,2.6115,0.0,0.0,0.0,0.0,0.0,0.0,0.0,0.0,0.0,2.616,2.6387,2.6248,2.6142,2.6177,2.6177,2.6104,2.5954,2.6049,2.6016,2.5775,2.5944,2.6054,2.5966,2.2517,2.1985,2.605,2.2729,2.2465,2.6917,2.7399,2.7771,2.826,2.8577,2.8883,2.9118,2.864,2.8581,2.8935,2.8759,2.8603,2.846,2.9077,2.9161,2.8792,2.859,2.8474,2.8474,2.8525,2.8658,2.8795,2.8819,2.8997,2.9251,2.9532,2.9494,2.9358,0.0,0.0,0.0,0.0,0.0,0.0,0.0,0.0,0.0,0.0,0.0,0.0,0.0,0.0,0.0,0.0,0.0,0.0,0.0,0.0,0.0,0.0,0.0,0.0,0.0,0.0,0.0,0.0,0.0,0.0,0.0,0.0,0.0,2.3831,0.0,2.3853,2.4203,2.445,2.4768,2.5176,2.5906,2.6215,2.632,2.6746,2.701,2.7137,2.7087,0.0,0.0,0.0,0.0,0.0,0.0,0.0,2.6507,2.6522,2.633,2.6189,0.0,0.0,0.0,0.0,0.0,0.0,0.0,0.0,0.0,0.0,0.0,2.5787,2.5897,2.5844,2.5844,2.5881,2.5844,2.5791,2.5791,2.5787,2.5749,2.5659,2.5696,2.5749,2.5659,2.3367,2.2963,2.5546,2.3357,2.3196,2.6168,2.6727,2.7133,2.7457,2.7926,2.8191,2.8317,2.8016,2.7958,2.8178,2.8319,2.8384,2.8352,2.8718,2.8724,2.8446,2.8309,2.8246,2.8264,2.8327,2.8396,2.8515,2.854,2.8731,2.8989,2.9233,2.9316,2.9357,0.0,0.0,0.0,0.0,0.0,0.0,0.0,0.0,0.0,0.0,0.0,0.0,0.0,0.0,0.0,0.0,0.0,0.0,0.0,0.0,0.0,0.0,0.0,0.0,0.0,0.0,0.0,0.0,0.0,0.0,0.0,0.0,0.0,2.3915,0.0,0.0,2.4706,2.4772,2.5147,2.5817,2.6518,2.6866,2.7004,2.7553,2.7954,2.8166,2.8065,2.7982,2.7971,2.7971,0.0,0.0,0.0,0.0,2.7117,2.6825,2.6556,2.6469,0.0,0.0,0.0,0.0,0.0,0.0,0.0,0.0,0.0,0.0,2.5616,2.5391,2.4796,2.5238,2.5435,2.4763,2.4612,2.4829,2.5538,2.4952,2.4707,2.547,2.554,2.554,2.5486,2.5578,2.5578,2.554,2.5578,2.5637,2.568,2.6252,2.6614,2.6678,2.7296,2.7602,2.7497,2.7412,2.7368,2.739,2.7887,2.8218,2.8344,2.838,2.83,2.8154,2.8182,2.8182,2.8209,2.8246,2.8273,2.8273,2.8327,2.8484,2.8669,2.8902,2.9082,2.9251,0.0,0.0,0.0,0.0,0.0,0.0,0.0,0.0,0.0,0.0,0.0,0.0,0.0,0.0,0.0,0.0,0.0,0.0,0.0,0.0,0.0,0.0,0.0,0.0,0.0,0.0,0.0,0.0,0.0,0.0,0.0,0.0,0.0,2.3589,0.0,0.0,0.0,2.5727,2.6349,2.6535,2.7262,2.7572,2.7601,2.7862,2.7886,2.78,2.7971,2.7886,2.776,2.776,2.773,0.0,0.0,0.0,2.7053,2.6858,2.6691,2.6624,0.0,0.0,0.0,0.0,0.0,0.0,0.0,0.0,0.0,0.0,2.5616,2.4431,2.0552,2.3017,2.4298,2.0228,1.9859,2.1312,2.4847,2.2125,2.1175,2.4903,2.5333,2.5256,2.51,2.541,2.554,2.5333,2.5486,2.5616,2.56,2.5758,2.5835,2.5758,2.6035,2.6336,2.6652,2.6301,2.6352,2.6802,2.7287,2.7561,2.7643,2.8165,2.8255,2.8025,2.8154,2.8182,2.8182,2.8209,2.8209,2.8209,2.8209,2.8291,2.8388,2.8766,2.8855,2.8868,0.0,0.0,0.0,0.0,0.0,0.0,0.0,0.0,0.0,0.0,0.0,0.0,0.0,0.0,0.0,0.0,0.0,0.0,0.0,0.0,0.0,0.6872,1.0839,1.3643,0.0,0.0,0.0,0.0,0.0,0.0,0.0,2.3978,2.407,0.0,0.0,0.0,0.0,0.0,2.6591,2.6948,2.7203,2.6239,2.482,2.6729,2.6269,2.4857,2.6772,2.7369,2.7293,2.7293,2.7293,2.731,2.7247,0.0,0.0,0.0,2.6759,0.0,0.0,0.0,0.0,0.0,0.0,0.0,0.0,0.0,0.0,2.3715,2.4658,2.533,2.2935,2.41,2.3983,1.9485,2.083,2.2279,2.1788,2.2065,2.2165,2.177,2.1707,2.1666,2.16,2.1731,2.2739,2.4968,2.5201,2.5256,2.5256,2.5301,2.5301,2.5256,2.5448,2.5663,2.5839,2.5738,2.6013,2.6522,2.6737,2.7012,2.7391,2.7718,2.7869,2.7836,2.7893,2.7996,2.8099,2.8099,2.8126,2.8182,2.8182,2.8291,2.8414,2.8608,2.8725,2.8839,0.0,0.0,0.0,0.0,0.0,0.0,0.0,0.0,0.0,0.0,0.0,0.0,0.0,0.0,0.0,0.0,0.0,0.0,0.0,0.0,0.0,0.5148,0.811,1.0059,1.0655,0.0,0.0,0.0,0.0,0.0,2.3996,2.4073,2.4454,0.0,2.4884,0.0,0.0,0.0,0.0,0.0,2.6156,2.4339,0.0,0.0,2.3076,2.1395,2.4618,2.5782,2.5905,2.6719,2.7007,2.7007,2.7007,2.7072,0.0,0.0,0.0,0.0,0.0,0.0,0.0,0.0,0.0,0.0,0.0,0.0,0.0,0.0,2.288,2.3951,2.3147,2.4199,2.31,1.6626,1.9957,2.1934,1.7844,1.9866,2.0619,1.7627,1.7263,1.7669,1.8622,1.7892,1.9442,2.4541,2.3997,2.3891,2.495,2.5005,2.5005,2.5005,2.5139,2.5201,2.5201,2.541,2.5738,2.6195,2.6335,2.6673,2.7192,2.7299,2.7439,2.7595,2.7654,2.7806,2.794,2.794,2.7996,2.8081,2.8126,2.8246,2.8388,2.8466,2.8594,2.8749,0.0,0.0,0.0,0.0,0.0,0.0,0.0,0.0,0.0,0.0,0.0,0.0,0.0,0.0,0.0,0.1685,0.0,0.0,0.0,0.0,0.0,0.5563,0.6122,0.0,1.0519,0.0,0.0,0.0,0.0,0.0,2.4014,2.4277,2.4757,2.5455,2.5473,2.5621,2.5979,0.0,0.0,0.0,2.3677,2.235,0.0,0.0,0.0,0.0,0.0,2.2441,2.2913,2.5983,2.7007,2.7007,2.7007,0.0,0.0,0.0,0.0,0.0,0.0,0.0,0.0,0.0,0.0,0.0,0.0,0.0,0.0,0.0,2.0012,1.7837,1.6851,2.1236,2.095,0.8519,1.3484,1.7502,1.3417,1.2844,1.2855,1.2841,1.2822,1.4266,1.787,1.5129,1.6313,2.4046,2.1246,2.0902,2.4789,2.5005,2.5005,2.5005,2.5005,2.5005,2.5005,2.5217,2.541,2.5637,2.616,2.6573,2.692,2.6937,2.7049,2.7317,2.7595,2.7701,2.773,2.773,2.773,2.773,2.794,2.8014,2.8053,2.8388,2.8492,2.8569,0.0,0.0,0.0,0.0,0.0,0.0,0.0,0.0,0.0,0.0,0.0,0.0,0.0,0.0409,0.1102,0.1911,0.2925,0.0,0.0,0.0,0.0,0.5837,0.6064,0.6817,0.8044,0.0,0.0,0.0,0.0,2.3091,2.4657,2.4545,2.511,2.6149,2.5872,2.6052,2.6551,2.6807,0.0,0.0,2.33,2.0777,1.88,0.0,0.0,0.0,0.0,0.0,0.0,0.0,0.0,0.0,0.0,0.0,0.0,0.0,0.0,0.0,0.0,0.0,0.0,0.0,0.0,0.0,0.0,0.0,2.2344,1.6775,1.664,1.586,1.0424,1.4188,1.5713,0.8333,1.3457,1.6016,0.9334,1.2806,1.4143,0.9012,0.8388,0.8928,1.03,0.9271,1.0758,1.6221,1.7756,1.9081,2.057,2.3135,2.4549,2.4549,2.4686,2.4846,2.5005,2.5084,2.5123,2.5217,2.5422,2.5635,2.5964,2.6177,2.6317,2.6369,2.6971,2.7293,2.7307,2.7307,2.7461,2.7701,2.776,2.7911,2.7996,2.8136,2.8327,2.8543,0.0,0.0,0.0,0.0,0.0,0.0,0.0,0.0,0.0,0.0,0.0,0.0,0.0,0.0,0.13,0.2325,0.3199,0.3855,0.4239,0.4684,0.523,0.5719,0.6055,0.6381,0.0,0.0,0.0,0.0,0.0,0.0,0.0,2.432,2.4914,2.6486,2.6385,2.6497,0.0,0.0,0.0,2.6322,0.0,1.9103,1.7005,0.0,0.0,0.0,0.0,0.0,0.0,0.0,0.0,0.0,0.0,0.0,0.0,0.0,0.0,0.0,0.0,0.0,0.0,0.0,0.0,0.0,0.0,0.0,1.8768,1.3478,1.3269,1.2479,0.7197,0.9074,1.0179,0.6462,1.2031,1.3815,0.5237,0.9874,1.162,0.4837,0.4038,0.4568,0.5978,0.4837,0.6311,1.1785,1.4687,0.0,1.7797,2.1738,2.3871,2.364,2.3745,2.3943,2.4193,2.4193,2.4216,2.4293,2.453,2.484,2.5204,2.5664,2.5924,2.6038,2.6521,2.6775,2.6891,2.7006,2.723,2.7522,2.7582,2.7689,2.7824,2.7882,2.8119,2.8466,0.0,0.0,0.0,0.0,0.0,0.0,0.0,0.0,0.0,0.0,0.0,0.0,0.0,0.0,0.0,0.2963,0.3074,0.3297,0.3741,0.4353,0.4842,0.5261,0.0,0.0,0.0,0.0,0.0,0.0,0.0,0.0,0.0,0.0,2.4151,0.0,2.697,2.7021,2.6691,0.0,2.6691,2.6186,0.0,1.7392,1.6747,0.0,0.0,0.0,1.4822,1.5134,0.0,1.3013,0.0,0.0,0.0,0.0,0.0,0.0,0.0,0.0,0.0,0.0,0.0,0.0,0.0,0.0,1.8255,0.0,1.3195,1.3006,1.0045,0.7456,0.7521,0.6461,0.4863,0.2403,0.8648,1.0599,0.1371,0.3539,0.4572,0.0457,0.0,0.1571,0.5551,0.2338,0.3276,1.1233,1.1947,1.3481,1.6846,2.0993,2.2963,2.2317,2.2286,2.2399,2.2586,2.2586,2.2682,2.2885,2.3549,2.4188,2.4792,2.5314,2.5842,2.632,2.6195,2.6245,2.6385,2.6808,2.7023,2.7135,2.7293,2.7434,2.7526,2.7659,2.7961,2.8309,0.0,0.0,0.0,0.0,0.0,0.0,0.0,0.0,0.0,0.0,0.0,0.0,0.0,0.0,0.0,0.2125,0.2571,0.2959,0.3287,0.3453,0.4003,0.4988,0.4992,0.0,0.0,0.0,0.0,0.0,0.0,0.0,0.0,0.0,0.0,0.0,2.6278,2.6908,2.6572,2.6606,0.0,0.0,2.0359,1.7167,0.0,0.0,0.0,0.0,0.0,0.546,0.585,0.0,0.6649,0.6162,0.0,0.0,0.0,0.0,0.0,0.0,1.9882,0.0,0.0,0.0,0.0,0.0,0.0,0.0,0.0,0.9815,0.7787,0.6597,0.7326,0.719,0.6457,0.486,0.7421,0.7654,0.2168,0.4107,0.4572,0.0457,0.0,0.0444,0.1576,0.0673,0.0946,0.0,0.612,0.9279,1.2679,1.9052,2.2486,2.2301,2.2286,2.2324,2.2362,2.2362,2.2399,2.2459,2.3099,2.3484,2.3661,2.4545,2.4775,2.4464,2.5017,2.5308,2.5461,2.6337,2.6842,2.7023,2.7135,2.7293,2.7434,2.7509,2.7933,2.844,0.0,0.0,0.0,0.0,0.0,0.0,0.0,0.0,0.0,0.0,0.0,0.0,0.0,0.0,0.0,0.1806,0.2156,0.2445,0.2617,0.2849,0.3422,0.4397,0.4515,0.5152,0.0,0.0,0.0,0.0,0.0,0.0,0.0,0.0,0.0,0.0,0.0,0.0,0.0,0.0,0.0,0.0,1.9355,0.0,0.0,0.9308,0.666,0.0,0.0,0.0,0.2828,0.0691,-0.0175,0.0,0.0,0.0,0.0,0.0,0.0,0.0,0.0,0.0,0.0,0.0,0.0,0.0,1.1191,1.1452,1.2088,0.0,0.9345,0.8579,0.7861,0.7722,0.7521,0.692,0.7115,0.6249,0.3069,0.402,0.392,0.1102,0.0708,0.0506,0.0127,0.0062,0.0,0.0062,0.5114,1.03,1.515,1.8345,2.0451,2.1414,2.1491,2.1491,2.1491,2.1491,2.1605,2.1859,2.2479,2.2914,2.3194,2.4232,2.4431,2.398,2.462,2.4849,2.4846,2.5782,2.6488,2.6942,2.699,2.7087,2.7247,2.7296,2.773,2.8326,0.0,0.0,0.0,0.0,0.0,0.0,0.0,0.0,0.0,0.0,0.0,0.0,0.0,0.0,0.0,0.0,0.1848,0.1848,0.1787,0.234,0.2889,0.3554,0.4105,0.4837,0.5876,0.0,0.0,0.0,0.0,0.0,0.0,0.0,0.0,0.0,0.0,0.0,0.0,0.0,0.0,2.1418,1.7174,1.352,0.0,0.0,0.7276,0.5667,0.3035,0.2592,0.206,-0.5292,-0.683,0.0,0.0,0.0,0.0,0.0,1.4283,0.0,0.0,0.0,0.0,0.0,0.0,0.0,1.2483,1.2493,1.2548,0.0,1.2002,1.1103,0.8561,0.8052,0.8177,0.8415,0.7553,0.6163,0.424,0.3702,0.3132,0.2235,0.1927,0.1466,0.0674,0.0428,0.0366,0.0488,0.689,1.3548,1.9903,1.8048,1.7888,2.0218,2.0304,2.0304,2.0304,2.0304,2.0429,2.073,2.171,2.2327,2.2623,2.3988,2.4459,2.4211,2.4557,2.4584,2.4469,2.5084,2.5895,2.6774,2.6875,2.6975,2.704,2.7087,2.7535,2.8129,0.0,0.0,0.0,0.0,0.0,0.0,0.0,0.0,0.0,0.0,0.0,0.0,0.0,0.0,0.0,0.0,0.0,0.1479,0.1173,0.1419,0.1788,0.2276,0.2398,0.2946,0.4099,0.5068,0.0,0.0,0.0,0.0,0.0,0.0,0.0,0.0,0.0,0.0,0.0,0.0,0.0,1.4066,1.3116,0.0,0.8464,0.464,0.0795,-0.2629,-0.3236,-0.468,-0.64,-0.7279,-0.8172,-0.8111,0.0,0.0,0.0,0.3029,0.0,0.0,0.0,0.0,0.0,0.0,0.0,0.0,0.6502,0.5813,0.5809,0.0,0.713,0.6782,0.812,0.8382,0.8382,0.8185,0.818,0.7579,0.5923,0.4598,0.3726,0.3576,0.3118,0.2826,0.288,0.2646,0.2493,0.255,0.6402,1.0156,1.3394,1.5627,1.7888,2.0218,2.0304,2.0304,2.0304,2.0304,1.939,1.7702,2.0693,2.1145,1.9503,2.2574,2.3856,2.3654,2.3506,2.3641,2.3944,2.3854,2.4628,2.5944,2.686,2.7227,2.7289,2.7624,2.8,2.8344,0.0,0.0,0.0,0.0,0.0,0.0,0.0,0.0,0.0,0.0,0.0,0.0,0.0,0.0,0.0,0.0,0.0,0.0,0.0,0.0,0.0902,0.1479,0.1737,0.2312,0.3204,0.4344,0.541,0.0,0.0,0.0,0.0,0.0,0.0,0.0,0.0,0.0,0.0,0.0,1.1719,0.9612,1.0036,0.0,0.2826,-0.0372,-0.3788,-0.7118,-0.8566,-1.0991,-1.3184,-1.0966,-1.0934,0.0,0.0,-0.6299,-0.4981,0.0,-0.0261,0.0839,0.0,0.0,0.0,0.3936,0.0,0.0,0.0,0.7039,0.6924,0.8003,0.8233,0.8119,0.7756,0.8301,0.8745,0.8618,0.8265,0.7604,0.6556,0.5973,0.5419,0.4775,0.4228,0.375,0.3411,0.3193,0.3884,0.5687,0.6357,0.892,1.4158,1.4891,1.6704,2.0107,2.0166,2.0131,2.0131,2.0131,1.9213,1.7374,1.9385,1.9359,1.7573,1.9588,2.0383,2.0153,2.0025,2.0651,2.1767,2.1841,2.2352,2.3162,2.3804,2.4279,2.4646,2.5023,2.5396,2.5965,0.0,0.0,0.0,0.0,0.0,0.0,0.0,0.0,0.0,0.0,0.0,0.0,0.0,0.0,0.0,0.0,0.0,0.0,0.0,0.0,0.0,0.0871,0.1409,0.1944,0.2479,0.3742,0.4671,0.0,0.0,0.0,0.0,0.0,0.0,0.0,0.0,0.0,0.0,0.0,0.0,0.5413,0.0,0.2803,-0.2498,-0.4797,-0.734,-1.0086,-1.2949,-1.5879,-1.7875,-1.4591,-1.3763,-1.3607,-1.1085,-0.9313,0.0,0.0,0.0,0.0,0.0,0.0,0.0,0.0,0.0,0.5011,0.0,0.0,0.0,0.8345,0.9272,0.0,0.0,0.0,0.0,0.0,0.0,0.0,0.0,0.7213,0.0,0.538,0.4786,0.4323,0.3825,0.3602,0.4861,0.8081,0.632,0.8441,1.608,1.4587,1.5524,1.9962,2.0025,2.0005,2.0005,1.9637,1.8614,1.7066,1.7636,1.7128,1.5675,1.6634,1.7009,1.6863,1.673,1.755,1.9022,1.9231,1.9511,1.9892,2.0607,2.1008,2.129,2.2225,2.277,2.3572,-0.4636,-0.4536,0.0,0.0,0.0,0.0,0.0,0.0,0.0,0.0,0.0,0.0,0.0,0.0,0.0,0.0,0.0,0.0,-0.1934,0.0,0.0,0.0067,0.0672,0.0941,0.1008,0.2281,0.2952,0.3086,0.0,0.0,0.0,0.0,0.0,0.0,0.2394,0.0,0.0,0.0,0.0511,0.0,-0.1494,-0.2074,0.0,-0.659,-0.9871,-1.2915,-1.5719,-1.7847,-1.8923,0.0,-1.5164,-1.4525,0.0,-1.0919,-0.995,-0.5773,0.0,0.0,0.0,0.0,0.0,0.0,0.0469,0.0,0.0,0.0,0.2452,0.3668,0.0,0.0,0.0,0.0,0.0,0.0,0.0,0.0,0.7712,0.7827,0.7028,0.4802,0.4058,0.4216,0.542,0.5257,0.5685,0.7172,0.6042,0.7802,1.3603,1.3658,1.5496,1.9875,1.999,2.0005,2.0005,1.8244,1.6216,1.4004,1.4954,1.443,1.2679,1.5363,1.6787,1.7122,1.6464,1.6303,1.6469,1.5924,1.6242,1.7332,2.0088,2.0087,1.8918,2.2043,2.3221,2.3782,0.0,-0.4566,0.0,0.0,0.0,0.0,0.0,0.0,0.0,0.0,0.0,0.0,0.0,0.0,0.0,0.0,0.0,-0.3708,0.0,0.0,0.0,0.0,-0.1339,-0.0871,-0.0402,0.0402,0.1273,0.2079,0.1945,0.0,0.0,0.0,0.0,0.0,-0.0849,0.0,-0.0514,0.0,-0.1921,0.0,0.0,0.0,0.0,-1.043,-1.3249,-1.6475,-1.7997,-1.948,-2.0432,0.0,-1.7429,0.0,0.0,0.0,0.0,0.0,0.0,0.0,0.0,0.0,0.0,0.0,0.0,0.0,0.0267,0.0,0.1344,0.0,0.0,0.0,0.0,0.0,0.0,0.0,0.567,0.0,0.0,0.0,0.522,0.0,0.0,0.0,0.5425,0.4765,0.5148,0.7192,0.6249,0.7502,1.1821,1.2014,1.3906,1.8065,1.7031,1.6963,1.8138,1.6143,1.4076,1.1984,1.2659,1.1963,1.015,1.184,1.2721,1.289,1.2878,1.3457,1.4374,1.391,1.3968,1.4443,1.5342,1.5519,1.5535,1.7173,1.8968,2.0852,0.0,0.0,0.0,0.0,0.0,0.0,0.0,0.0,0.0,0.0,0.0,0.0,-0.3535,-0.399,0.0,0.0,-0.5788,-0.5921,0.0,0.0,-0.4916,0.0,0.0,0.0,0.0,-0.1003,0.0067,0.1275,0.0,0.0,0.0,0.0,0.0,0.0,0.0,-0.469,-0.482,0.0,-0.5778,-0.7793,-0.7181,-1.0073,-1.4716,-1.4716,-1.6786,-1.971,-1.9953,-2.0693,-2.1334,-1.9902,-1.8882,0.0,-1.741,0.0,0.0,0.0,0.0,0.0,-0.3808,0.0,0.0,0.0,0.0,0.0,0.0,0.0,0.0,0.0,0.0,0.0,0.0,0.0,0.0,0.0,0.0,0.3714,0.0,0.0,0.0,0.0,0.0,0.0,0.0,0.4816,0.5257,0.7461,0.6573,0.7396,1.0787,1.0939,1.2473,1.5939,1.4597,1.4503,1.5964,1.3997,1.2307,1.0903,1.0653,0.9853,0.8672,0.9249,0.9555,0.9718,0.988,1.071,1.1936,1.1625,1.1532,1.154,1.1127,1.1524,1.2358,1.3422,1.53,1.7485,-0.6314,-0.658,0.0,0.0,0.0,0.0,0.0,0.0,0.0,0.0,0.0,0.0,0.0,0.0,0.0,0.0,0.0,-1.0649,-0.9328,0.0,-0.7228,0.0,0.0,-0.2664,0.0,-0.1465,-0.0134,0.0538,0.0,0.0,0.0,0.0,0.0,0.0,0.0,-0.8069,-0.7933,-1.0873,-1.2865,-1.402,-1.402,-1.6019,-1.9105,0.0,-2.0367,-2.2128,-2.1547,0.0,0.0,-2.0356,-1.8827,0.0,0.0,0.0,0.0,0.0,0.0,0.0,0.0,0.0,0.0,-0.1999,0.0,0.0,0.0,0.0,0.0807,0.0,0.0,0.0,0.0,0.0,0.0,0.0,0.0,0.0,0.0,0.0,0.0,0.0,0.0,0.0,0.0,0.6131,0.6627,0.7788,0.6848,0.7579,1.0738,1.0903,1.1823,1.3835,1.3835,1.3835,1.3901,1.1976,1.0973,1.0865,0.8952,0.8311,0.8778,0.8679,0.8942,0.9413,0.889,0.8705,0.8731,0.853,0.8589,0.8866,0.9118,0.9395,0.994,1.2788,1.3861,1.4347,0.0,0.0,0.0,0.0,0.0,0.0,0.0,-0.7167,0.0,0.0,-0.8024,0.0,0.0,-0.9674,-1.0441,0.0,0.0,-1.1443,-1.1406,-0.9932,0.0,0.0,0.0,-0.5894,0.0,0.0,0.0,0.0,0.0,0.0,0.0,0.0,0.0,0.0,0.0,-0.8972,0.0,0.0,0.0,0.0,0.0,-1.9369,-2.1197,0.0,-2.1099,-2.1704,-2.1874,-2.1921,0.0,-2.1609,-2.0594,-1.956,-2.0189,-1.8988,-1.7193,-1.6331,-1.5566,-1.424,0.0,0.0,-1.2233,-0.7456,0.0,0.0,0.0,0.0,0.0,0.0,0.0,0.0,0.0,0.0,0.0,0.0,0.0,0.0,0.0,0.0,0.0,0.0,0.0,0.0,0.0,0.0,0.0,0.7681,0.6126,0.6162,0.8767,0.8921,0.9847,1.1823,1.0587,1.052,1.1869,0.9897,0.8921,0.8929,0.8375,0.8221,0.8421,0.8738,0.856,0.7994,0.81,0.7994,0.7753,0.7738,0.8183,0.8816,0.8016,0.787,0.827,0.9754,1.165,1.3482,-0.9952,0.0,0.0,0.0,0.0,0.0,0.0,0.0,0.0,0.0,-1.0643,0.0,-1.1737,0.0,-1.2482,0.0,-1.3237,-1.3186,-1.3279,-1.2149,0.0,-1.1682,-0.98,0.0,0.0,0.0,0.0,0.0,0.0,-0.6521,0.0,0.0,0.0,0.0,0.0,0.0,-1.2738,0.0,-1.6224,0.0,0.0,-2.139,0.0,0.0,-2.2081,-2.1955,0.0,-2.2618,-2.2815,-2.254,-2.2136,-2.1825,-2.1899,-2.0992,-1.9711,-1.8908,-1.8178,-1.6965,-1.3986,-1.4898,0.0,-1.1114,-1.0828,0.0,-0.7279,0.0,-0.3138,0.0,0.0,0.0,0.0,0.0,0.0,0.0,0.0,0.0,0.0,0.3273,0.0,0.0,0.0,0.0,0.0,0.0,0.4477,0.7676,0.6013,0.5738,0.0,0.7901,0.8504,0.9776,0.8574,0.8525,0.9826,0.8602,0.8008,0.8008,0.7723,0.7664,0.7711,0.7593,0.7143,0.6538,0.6747,0.6686,0.6499,0.6611,0.7003,0.7406,0.6818,0.6583,0.6616,0.7154,0.8646,1.0418,0.0,0.0,0.0,0.0,-1.0288,0.0,0.0,0.0,-1.2477,0.0,-1.3637,-1.4384,-1.4443,-1.5003,-1.5379,-1.5379,-1.6001,-1.5985,-1.508,-1.452,0.0,0.0,-1.2429,-1.1494,-1.1631,0.0,0.0,0.0,0.0,0.0,0.0,0.0,0.0,0.0,-1.1836,0.0,-1.569,-1.8019,-2.0003,-2.1561,-2.2109,-2.231,-2.2402,-2.329,-2.3363,-2.2978,-2.2978,-2.3406,-2.3903,-2.3216,-2.345,-2.3888,-2.3216,-2.2933,-2.2843,-2.2417,-2.2263,-2.1444,-1.7918,-1.699,-1.6273,-1.3139,-1.238,0.0,0.0,0.0,-0.7163,0.0,0.0,0.0,0.0,0.0,0.0,0.0,0.0,0.0,0.0,0.0,0.0,0.0,0.0,0.0,0.0,0.4856,0.5074,0.7622,0.6499,0.6387,0.0,0.7901,0.7901,0.7901,0.7901,0.7901,0.7842,0.8002,0.8055,0.8002,0.6945,0.6499,0.6602,0.5416,0.4871,0.4976,0.4827,0.486,0.4948,0.5184,0.503,0.4655,0.5322,0.5311,0.4838,0.5173,0.5249,0.5391,-1.3253,-1.2915,-1.2573,0.0,-1.2312,-1.2051,0.0,0.0,0.0,0.0,-1.5052,-1.5608,-1.6388,-1.6588,-1.6711,-1.6711,-1.6845,0.0,0.0,0.0,0.0,-1.6337,-1.4578,-1.3888,-1.4559,-1.3126,-1.2277,-1.2132,0.0,0.0,-1.1461,0.0,0.0,0.0,0.0,0.0,-1.7594,-1.8958,-2.0836,-2.301,-2.3537,-2.3782,-2.3782,0.0,-2.4051,-2.3925,-2.3925,-2.4078,-2.4188,-2.3994,-2.4078,-2.4188,-2.3994,-2.3696,-2.3392,-2.329,-2.2994,-2.2452,-2.1159,-2.1043,-2.0724,-1.8413,-1.7312,-1.6411,0.0,0.0,0.0,0.0,0.0,0.0,0.0,0.0,0.0,0.0,0.0,0.0,0.0,0.0,0.0,0.1347,0.0,0.0,0.4754,0.4532,0.4973,0.6514,0.6288,0.6671,0.8055,0.0,0.7955,0.8115,0.8115,0.7676,0.6799,0.6607,0.6049,0.5241,0.4674,0.445,0.4501,0.4338,0.3744,0.2989,0.3357,0.3525,0.3508,0.3645,0.4113,0.4712,0.3484,0.2601,0.2139,0.3995,0.4265,0.3877,-1.4641,0.0,0.0,-1.4718,0.0,0.0,-1.3614,-1.4477,0.0,-1.6079,-1.6736,0.0,-1.7918,-1.7984,-1.7984,-1.7984,-1.7984,0.0,-1.7413,0.0,0.0,-1.6968,-1.657,-1.6416,-1.6704,-1.6002,0.0,-1.5071,0.0,0.0,-1.4499,0.0,0.0,0.0,0.0,-1.7472,0.0,-2.0801,-2.2235,-2.3593,-2.412,-2.4302,0.0,-2.4492,-2.4533,-2.4451,-2.4751,-2.4815,-2.4704,-2.441,-2.4477,-2.4704,-2.4369,-2.4135,-2.3909,-2.3909,-2.3696,-2.3407,-2.2949,-2.2994,-2.2875,-2.1513,-2.0783,-1.9976,-1.8382,-1.6671,-1.5257,0.0,-1.2787,-1.1196,0.0,0.0,0.0,0.0,0.0,0.0,0.0,0.0,0.0,0.0,0.1004,0.0,0.2834,0.371,0.4805,0.619,0.6072,0.6396,0.7343,0.0,0.6779,0.6445,0.645,0.6009,0.5128,0.5225,0.4841,0.3969,0.3361,0.303,0.3032,0.2635,0.2038,0.1425,0.141,0.1379,0.1462,0.1514,0.1799,0.2141,0.1326,0.0871,0.0806,0.2407,0.2943,0.295,0.0,0.0,0.0,0.0,0.0,0.0,0.0,-1.6331,0.0,-1.7445,0.0,-1.9198,-1.9198,-1.9198,-1.9198,-1.9198,0.0,-1.8857,-1.8058,-1.8738,-1.8632,-1.728,-1.8412,-1.8891,-1.8335,-1.8466,-1.8082,0.0,0.0,0.0,0.0,0.0,0.0,0.0,0.0,0.0,0.0,-2.2996,-2.3809,-2.3879,-2.4369,-2.4549,-2.4574,-2.4958,-2.4981,-2.4902,-2.547,-2.5513,-2.5221,-2.4639,-2.4863,-2.5259,-2.4639,-2.4426,-2.4385,-2.4385,-2.4343,-2.4219,-2.3824,-2.3696,-2.361,-2.3201,-2.2963,-2.2498,-2.1048,-1.9659,-1.86,-1.8082,-1.5741,-1.4525,0.0,0.0,0.0,0.0,0.0,0.0,0.0,0.0,0.0,0.0,0.0,0.0,0.0841,0.272,0.4419,0.5806,0.5679,0.5734,0.619,0.0,0.507,0.4252,0.4142,0.392,0.3421,0.3802,0.3744,0.3247,0.2266,0.1832,0.1788,0.0753,0.0236,0.0119,-0.0488,-0.0752,-0.077,-0.0644,-0.0917,-0.1408,-0.0671,-0.0134,0.0202,0.0807,0.1545,0.2281,0.0,0.0,0.0,0.0,0.0,-1.8744,-1.8024,-1.8519,-1.8984,-1.9233,-1.9851,-2.0308,-2.0308,-2.0308,-2.0308,-2.0308,-2.0308,0.0,0.0,0.0,0.0,-1.9914,-2.0181,-2.0232,-2.0169,-1.98,-1.9325,0.0,0.0,0.0,0.0,0.0,0.0,0.0,0.0,0.0,-2.3286,-2.4277,0.0,-2.5285,-2.5701,-2.5848,-2.5885,-2.5937,-2.5957,-2.5937,-2.6063,-2.5754,-2.5317,-2.5371,-2.5432,-2.5508,-2.541,-2.5107,-2.4784,-2.4784,-2.4574,-2.4261,-2.4219,-2.4177,-2.4177,-2.4094,-2.3333,-2.2563,-2.2292,-2.1329,-2.0217,-1.9117,-1.8531,-1.7583,-1.5602,0.0,0.0,0.0,0.0,0.0,0.0,0.0,0.0,0.0,0.0,-0.1121,0.0,0.1947,0.3166,0.3332,0.4152,0.4805,0.0,0.0,0.4303,0.0,0.3963,0.0,0.0,0.0,0.1662,0.0949,0.0168,-0.017,-0.0175,-0.0235,-0.0597,-0.1163,-0.0883,-0.1088,-0.1609,-0.1647,-0.1936,-0.235,-0.1142,-0.0672,-0.047,0.047,0.0873,0.1007,0.0,0.0,0.0,0.0,0.0,0.0,0.0,-2.0445,-2.0557,-2.0206,-2.057,-2.0868,-2.0868,-2.1064,-2.1113,-2.0868,-2.0868,-2.0782,-2.061,-2.061,-2.061,-2.061,-2.0871,-2.1019,-2.1019,-2.1245,-2.0913,-1.9927,0.0,0.0,0.0,0.0,0.0,0.0,0.0,-2.2907,0.0,0.0,0.0,-2.4974,-2.5416,-2.5717,-2.5901,-2.5901,-2.5937,-2.5994,-2.6154,-2.5937,-2.5605,-2.5844,-2.5917,-2.5881,-2.5675,-2.553,-2.5362,-2.5169,-2.4989,-2.4766,-2.4533,-2.4369,-2.4219,-2.3782,-2.3275,-2.2801,-2.2529,-2.1894,-2.1042,-2.0067,-1.9709,-1.866,-1.5731,-1.3956,0.0,0.0,0.0,0.0,0.0,0.0,0.0,0.0,0.0,0.0,0.0,0.0,0.0,0.0,0.0,0.0,0.0,0.0,0.2435,0.0,0.0,0.0,-0.0331,0.0,-0.2154,-0.2776,-0.3119,-0.3402,-0.3569,-0.3503,-0.3317,-0.307,-0.3226,-0.3142,-0.2894,-0.3261,-0.3478,-0.3609,-0.3074,-0.2874,-0.2673,-0.1136,-0.0669,-0.0468,0.0,-2.0144,0.0,0.0,-2.0446,-2.0894,-2.1403,-2.1908,-2.1921,-2.1224,-2.1403,-2.1568,-2.1568,-2.1758,-2.1758,-2.1472,-2.1424,-2.1342,-2.1077,-2.114,-2.1175,-2.1175,-2.1589,-2.1779,-2.1779,-2.248,-2.2239,0.0,0.0,0.0,0.0,0.0,0.0,0.0,0.0,0.0,0.0,0.0,-2.4679,-2.4719,-2.5091,-2.5476,-2.5811,-2.5738,-2.5832,-2.6013,-2.6208,-2.6137,-2.5888,-2.6101,-2.6189,-2.6134,-2.5717,-2.5696,-2.577,-2.5355,-2.5162,-2.5029,-2.4664,-2.4395,-2.4078,-2.3421,-2.3113,-2.283,-2.248,-2.1874,-2.1264,-2.0709,-2.0156,-1.9024,-1.6499,-1.5345,0.0,0.0,0.0,0.0,0.0,0.0,0.0,0.0,0.0,0.0,-0.5069,0.0,0.0,0.0,0.0,0.0,0.2171,0.0,0.0,0.0,0.0,-0.3465,-0.3613,0.0,-0.5329,-0.5702,-0.576,-0.5914,-0.616,-0.6174,-0.5767,-0.5068,-0.5647,-0.5259,-0.435,-0.5011,-0.5071,-0.4665,-0.4863,-0.4932,-0.4665,-0.2732,-0.2,-0.1735,0.0,0.0,0.0,0.0,0.0,-2.2161,-2.1899,-2.2406,-2.2844,-2.2844,-2.2979,-2.3083,-2.3083,-2.2785,-2.2603,-2.2558,-2.2558,-2.2558,-2.2512,-2.2844,-2.3038,-2.3038,-2.3083,-2.3127,-2.3127,-2.3216,-2.292,0.0,0.0,-2.25,0.0,0.0,0.0,0.0,0.0,0.0,0.0,-2.5835,-2.5944,-2.5944,-2.598,-2.6245,-2.6556,-2.6175,-2.6297,-2.6624,-2.6624,-2.6401,-2.6068,-2.6104,-2.6173,-2.6134,-2.5717,-2.5605,-2.553,-2.5162,-2.4759,-2.4471,-2.443,-2.4199,-2.3921,-2.3837,-2.3098,-2.2363,-2.2331,-2.15,-2.066,-2.061,-2.0156,-1.9307,-1.7709,-1.7993,-1.7884,0.0,0.0,0.0,0.0,0.0,-1.3065,-1.4503,0.0,0.0,0.0,-0.5626,0.0,0.0,-0.0786,0.0,0.0,0.0,0.0,-0.2579,-0.4426,-0.537,-0.5293,-0.549,-0.5645,-0.5632,-0.588,-0.598,-0.603,-0.5918,-0.6144,-0.6703,-0.672,-0.642,-0.5928,-0.6654,-0.626,-0.5206,-0.5262,-0.5259,-0.4992,-0.307,-0.2341,-0.2074,0.0,0.0,0.0,0.0,0.0,0.0,0.0,-2.2785,-2.3127,-2.348,-2.3451,-2.3451,-2.348,-2.3566,-2.3523,-2.3377,-2.3377,-2.329,-2.3068,-2.3216,-2.3319,-2.3319,-2.3319,-2.3319,-2.3319,-2.3494,-2.3392,0.0,0.0,0.0,0.0,0.0,0.0,0.0,0.0,-2.4981,-2.5291,-2.5351,-2.554,-2.5726,-2.5726,-2.598,-2.6315,-2.6175,-2.6367,-2.6691,-2.6691,-2.659,-2.647,-2.647,-2.6139,-2.5721,-2.5307,-2.5269,-2.5285,-2.4871,-2.4655,-2.4517,-2.4517,-2.4188,-2.3782,-2.361,-2.3054,-2.2498,-2.2282,-2.1623,-2.1068,-2.1068,-2.0409,-1.9631,-1.9044,-1.8317,-1.7829,-1.7754,0.0,0.0,0.0,0.0,0.0,-1.636,0.0,-1.4096,0.0,0.0,0.0,0.0,0.0,0.0,0.0,0.0,0.0,-0.4739,0.0,-0.8196,-0.7194,-0.9066,-0.967,-0.8878,-0.901,-0.9156,-0.9351,-0.9283,-0.9029,-0.8553,-0.7847,-0.7603,-0.7882,-0.8146,-0.8205,-0.8071,-0.7812,-0.7687,-0.7488,-0.5512,-0.4791,-0.4458,-2.2725,0.0,-2.2543,0.0,-2.268,-2.286,-2.3246,-2.3493,-2.3752,-2.4063,-2.3925,-2.3711,-2.3739,-2.3967,-2.4067,-2.3754,-2.3711,-2.3625,-2.3363,-2.3494,-2.3538,-2.3538,-2.3581,0.0,-2.3581,-2.3839,-2.3824,-2.3581,-2.3581,0.0,0.0,0.0,0.0,0.0,-2.5137,-2.5313,-2.5427,-2.5427,-2.5577,-2.5835,-2.5726,-2.5908,-2.628,-2.6139,-2.6367,-2.6691,-2.6691,-2.6607,-2.6539,-2.6539,-2.6068,-2.5465,-2.516,-2.5098,-2.5036,-2.4614,-2.4426,-2.4369,-2.4369,-2.4009,-2.3566,-2.3216,-2.2889,-2.2618,-2.2278,-2.1902,-2.1616,-2.1423,-2.0822,-2.0207,-2.0055,-1.8996,-1.8282,-1.8898,0.0,0.0,0.0,-1.7578,0.0,0.0,-1.7345,-1.6678,-1.5764,-1.3797,0.0,0.0,0.0,0.0,0.0,0.0,0.0,0.0,0.0,0.0,-1.0077,-1.2295,-1.3067,-1.2301,-1.2301,-1.2258,-1.2143,-1.174,-1.1226,-1.0488,-0.9406,-0.9099,-0.9238,-0.9442,-0.957,-0.9697,-0.9582,-0.9524,-0.9256,-0.7349,-0.6628,-0.6233,-2.4177,-2.3909,-2.3595,-2.3595,-2.3952,-2.4261,-2.4261,-2.4639,-2.4863,-2.4902,-2.4533,-2.4219,-2.4024,-2.4051,-2.3952,-2.3553,-2.3509,-2.3509,-2.3509,-2.3912,-2.4181,0.0,0.0,-2.4302,-2.4302,-2.4302,-2.4302,-2.4302,0.0,0.0,-2.4302,0.0,-2.5313,-2.6087,-2.6087,-2.6315,-2.6691,-2.6691,-2.6691,-2.6657,-2.6245,-2.6315,-2.6657,-2.6245,-2.6367,-2.6691,-2.6691,-2.6419,-2.6104,-2.6104,-2.5835,-2.5503,-2.5503,-2.5198,-2.4823,-2.4426,-2.4051,-2.3797,-2.3797,-2.3566,-2.3216,-2.2799,-2.2694,-2.2618,-2.2278,-2.2184,-2.2044,-2.152,-2.1375,-2.1215,-2.0709,-2.056,-2.0181,-1.9061,0.0,0.0,0.0,-1.7544,0.0,-1.8744,-1.6515,-1.5844,-1.8472,-1.5175,0.0,0.0,0.0,0.0,0.0,0.0,0.0,-1.0725,-1.2689,0.0,-1.4232,-1.4603,-1.4919,-1.5235,-1.5235,-1.4585,-1.3356,-1.2143,-1.1919,-1.2451,-1.1794,-1.0843,-0.9736,-1.0471,-1.0091,-0.9052,-0.9761,-1.0015,-0.9755,-0.7782,-0.7062,-0.6802,-2.4219,-2.4177,-2.4147,-2.4461,-2.4623,-2.4719,-2.4719,-2.4823,-2.4902,-2.4902,-2.502,-2.4981,-2.4639,-2.4436,-2.4395,0.0,-2.4664,-2.4558,0.0,-2.44,-2.4359,-2.4082,-2.4067,-2.4109,-2.4109,-2.4451,-2.4655,-2.4655,0.0,0.0,0.0,-2.5005,-2.5313,-2.5275,-2.5577,-2.5908,-2.628,-2.628,-2.6436,-2.6691,-2.6539,-2.659,-2.6691,-2.6539,-2.659,-2.6691,-2.6691,-2.6436,-2.6104,-2.6104,-2.5652,-2.5082,-2.5082,-2.502,-2.4863,-2.4759,-2.4451,-2.4135,-2.4135,-2.3739,-2.3275,-2.3127,-2.2723,-2.231,-2.2217,-2.2184,-2.2137,-2.1996,-2.1664,-2.1375,-2.1166,-2.0858,-2.0497,-2.0131,-2.0194,0.0,-1.9876,0.0,-1.9073,-1.9463,-1.8746,-1.8686,-1.9927,-1.778,0.0,0.0,0.0,0.0,0.0,0.0,0.0,0.0,-1.4073,0.0,-1.4316,-1.5319,-1.5414,-1.469,-1.469,-1.4287,-1.3476,-1.3078,-1.2773,-1.2512,-1.2274,-1.1779,-1.1038,-1.124,-1.1115,-1.0787,-1.0604,-1.0541,-1.0415,-0.9046,-0.8597,-0.8334,-2.4664,-2.4639,-2.4599,-2.4879,-2.5005,-2.5137,-2.5137,-2.5253,-2.54,-2.54,-2.5443,-2.5481,-2.54,-2.5059,0.0,-2.5059,-2.5114,-2.4997,-2.4735,-2.4574,-2.4492,-2.4426,-2.4302,-2.4302,-2.4451,-2.4614,0.0,-2.4958,-2.5028,-2.5067,-2.5005,-2.5481,-2.5668,-2.5577,-2.5835,-2.6087,-2.6315,-2.6315,-2.647,-2.6691,-2.6691,-2.6691,-2.6691,-2.6691,-2.6691,-2.6691,-2.6691,-2.6539,-2.628,-2.6175,-2.5762,-2.5313,-2.516,-2.502,-2.4863,-2.4719,-2.4517,-2.4313,-2.4162,-2.3696,-2.3275,-2.3127,-2.2723,-2.2356,-2.2231,-2.2184,-2.2184,-2.2091,-2.1793,-2.152,-2.1423,-2.1215,-2.0957,-2.066,-2.066,-2.066,-2.0359,0.0,-1.9695,0.0,0.0,0.0,0.0,-1.9129,-1.8717,0.0,0.0,0.0,0.0,0.0,-1.2994,-1.411,-1.5164,-1.5521,-1.5074,-1.6125,-1.626,-1.5458,-1.4993,-1.4718,-1.456,-1.3803,-1.3442,-1.3243,-1.3009,-1.265,-1.229,-1.2042,-1.1919,-1.1856,-1.1303,-1.1122,-1.0989,-1.0168,-0.9849,-0.9652,-2.5427,-2.5198,-2.4942,-2.4981,-2.5291,-2.554,-2.554,-2.5901,-2.622,-2.622,-2.5811,-2.5721,-2.6168,-2.5811,-2.5389,-2.502,0.0,0.0,-2.4942,-2.4623,-2.4639,-2.5052,-2.4791,-2.4815,-2.5192,-2.4855,-2.4895,-2.5307,-2.5307,-2.5551,-2.5974,-2.5974,-2.6225,-2.6624,-2.6657,-2.6657,-2.6691,-2.6691,-2.6691,-2.6691,-2.6691,-2.6691,-2.6691,-2.6691,-2.6691,-2.6691,-2.6691,-2.6691,-2.6624,-2.6245,-2.6087,-2.598,-2.5615,-2.5237,-2.4863,-2.4451,-2.4354,-2.4323,-2.3952,-2.3581,-2.3216,-2.2844,-2.2694,-2.2572,-2.2263,-2.2184,-2.2137,-2.1841,-2.1793,-2.1698,-2.1471,-2.1616,-2.1554,-2.0759,-2.0845,-2.0746,-2.0003,-1.9901,-1.9631,0.0,0.0,0.0,-1.9386,-1.9475,-1.9631,0.0,0.0,0.0,0.0,0.0,-1.5533,-1.5613,-1.6187,-1.6461,-1.6518,-1.7079,-1.7357,-1.7357,-1.6213,-1.5881,-1.6301,-1.4551,-1.4043,-1.4469,-1.3812,-1.3511,-1.3442,-1.2818,-1.2573,-1.2512,-1.1864,-1.1622,-1.1622,-1.0996,-1.0807,-1.0737,0.0,0.0,-2.5481,-2.5844,-2.5954,-2.6026,-2.6026,-2.6132,-2.622,-2.622,-2.6079,-2.6079,-2.6168,-2.6079,-2.6007,-2.5881,-2.5881,-2.5754,-2.5389,-2.5275,-2.516,-2.4958,-2.4879,-2.4863,-2.4981,-2.5269,-2.5701,-2.617,-2.617,-2.6099,-2.5917,-2.5917,-2.599,-2.6082,-2.6154,-2.6347,-2.664,-2.6674,-2.6691,-2.6691,-2.6691,-2.6691,-2.6691,-2.6691,-2.6691,-2.6691,-2.6691,-2.6505,-2.6245,-2.6123,-2.5908,-2.5615,-2.554,-2.5427,-2.5275,-2.4863,-2.4558,-2.4287,-2.4219,-2.3925,-2.3625,-2.326,-2.2723,-2.231,-2.2231,-2.2184,-2.2137,-2.1841,-2.1793,-2.1698,-2.1471,-2.1471,-2.141,-2.1215,-2.1264,-2.1264,-2.1068,-2.066,-2.0359,0.0,-1.9888,-1.985,-2.0245,-1.9695,-1.9488,0.0,0.0,-1.875,-1.8135,-1.7696,-1.7596,-1.7966,-1.8128,-1.8419,-1.8919,-1.9024,-1.9141,-1.9089,-1.8354,-1.7598,-1.6914,-1.6455,-1.5496,-1.4273,-1.4094,-1.3674,-1.313,-1.2948,-1.2948,-1.3078,-1.2421,-1.2228,-1.2151,-1.117,-1.0807,-1.0737,-2.5684,-2.5775,-2.5901,-2.6168,-2.622,-2.622,-2.622,-2.622,-2.622,-2.622,-2.622,-2.622,-2.622,-2.622,-2.622,-2.622,-2.622,-2.6079,-2.5864,-2.5631,-2.5519,-2.5476,-2.5291,-2.5291,-2.5476,-2.5572,-2.5758,-2.603,-2.6258,-2.6274,-2.6099,-2.6099,-2.6099,-2.6187,-2.6222,-2.6364,-2.6554,-2.6589,-2.6623,-2.6623,-2.6623,-2.6623,-2.6657,-2.6623,-2.6623,-2.6657,-2.6623,-2.6365,-2.6013,-2.5852,-2.554,-2.5198,-2.502,-2.4942,-2.4902,-2.4679,-2.4477,-2.4313,-2.412,-2.3839,-2.3538,-2.3363,-2.2859,-2.2449,-2.2449,-2.231,-2.2091,-2.1712,-2.1616,-2.152,-2.1131,-2.118,-2.118,-2.1082,-2.118,-2.118,-2.1082,-2.0835,-2.0636,-2.0636,-2.0207,-2.0055,-2.0372,-1.9811,-1.9643,-2.0245,-1.985,0.0,-1.9254,-1.9294,-1.8955,-1.812,-1.8012,-1.8186,-1.8561,-1.8519,-1.8519,-1.8561,-1.8078,-1.7599,-1.7058,-1.7013,-1.6224,-1.4982,-1.4982,-1.4569,-1.3863,-1.3563,-1.3511,-1.3571,-1.2903,-1.2474,-1.2212,-1.1608,-1.124,-1.0989,-2.5974,-2.6079,-2.6132,-2.6132,-2.6168,-2.6168,-2.6168,-2.6168,-2.622,-2.622,-2.622,-2.622,-2.622,-2.622,-2.622,-2.622,-2.622,-2.622,-2.622,-2.5811,-2.5775,-2.6168,-2.5811,-2.5775,-2.6168,-2.5811,-2.5594,-2.5594,-2.599,-2.6222,-2.626,-2.626,-2.6347,-2.645,-2.6485,-2.6485,-2.6485,-2.6485,-2.6485,-2.6485,-2.6485,-2.652,-2.6589,-2.652,-2.652,-2.6589,-2.652,-2.6329,-2.601,-2.5684,-2.5329,-2.4981,-2.4639,-2.4451,-2.4343,-2.4343,-2.4354,-2.4282,-2.3952,-2.3581,-2.3319,-2.3319,-2.3038,-2.274,-2.274,-2.2526,-2.217,-2.165,-2.1506,-2.1326,-2.0898,-2.0898,-2.0898,-2.0749,-2.0848,-2.0898,-2.0699,0.0,-2.0699,-2.0699,-2.0372,-2.0156,-2.0283,-1.9914,-1.9914,-2.0459,-2.0459,-2.051,-2.0597,-2.066,-1.9697,-1.7589,-1.7479,-1.7534,-1.7622,-1.7534,-1.7534,-1.7633,-1.7435,-1.7279,-1.7213,-1.7123,-1.6673,-1.5989,-1.5989,-1.5652,-1.5029,-1.4428,-1.4181,-1.407,-1.3381,-1.2773,-1.2297,-1.205,-1.174,-1.1365,-2.5934,-2.5934,-2.5934,-2.5934,-2.599,-2.6026,-2.6026,-2.6115,-2.622,-2.622,-2.622,-2.622,-2.622,-2.622,-2.622,-2.622,-2.622,-2.622,-2.622,-2.6132,-2.6132,-2.622,-2.6132,-2.6132,-2.622,-2.6132,-2.6079,-2.6079,-2.6168,-2.6203,-2.6203,-2.6203,-2.6239,-2.6239,-2.6312,-2.633,-2.6347,-2.6434,-2.6485,-2.6485,-2.6485,-2.6485,-2.652,-2.6485,-2.6485,-2.652,-2.6485,-2.645,-2.6415,-2.6364,-2.603,-2.5631,-2.5594,-2.5082,-2.4542,-2.4542,-2.4328,-2.4051,-2.4124,-2.3812,-2.3466,-2.3466,-2.3172,-2.2889,-2.2889,-2.2844,-2.2709,-2.2374,-2.2016,-2.1664,-2.1375,-2.0997,-2.0749,-2.0699,-2.0749,-2.0749,-2.0699,0.0,-2.0699,-2.0699,-2.0649,-2.0599,-2.0599,-2.022,-1.9991,-2.0093,-1.9901,-1.9759,-1.9811,-1.9901,-1.9631,-1.8898,-1.9399,-1.9709,-1.9748,-1.9709,-1.9709,-1.9748,-1.9709,-1.9178,-1.8274,-1.8274,-1.7578,-1.6513,-1.6513,-1.6046,-1.5362,-1.5235,-1.4942,-1.4529,-1.3941,-1.37,-1.358,-1.2413,-1.1926,-1.1802,-2.5873,-2.5844,-2.5897,-2.5897,-2.5934,-2.5954,-2.5954,-2.6007,-2.6059,-2.6059,-2.6079,-2.6079,-2.6079,-2.6168,-2.622,-2.622,-2.622,-2.622,-2.622,-2.622,-2.622,-2.622,-2.622,-2.622,-2.622,-2.622,-2.622,-2.622,-2.622,-2.622,-2.622,-2.622,-2.622,-2.622,-2.6222,-2.6258,-2.6258,-2.631,-2.6345,-2.6345,-2.6345,-2.6364,-2.6399,-2.6345,-2.6364,-2.6347,-2.6082,-2.5885,-2.5717,-2.546,-2.5137,-2.4823,-2.4823,-2.4599,-2.4287,-2.4287,-2.4135,-2.4024,-2.4082,-2.394,-2.3769,-2.3769,-2.3494,-2.3216,-2.3216,-2.3083,-2.2844,-2.2558,-2.2328,-2.2109,-2.1827,-2.1589,-2.1348,-2.1131,-2.1082,-2.0997,-2.0749,-2.0699,-2.0699,-2.0699,-2.0699,-2.0699,-2.0699,-2.0485,-2.0372,-2.0372,-2.0283,-2.0067,-1.985,-1.985,-1.9695,-1.9303,-1.954,-1.9527,-1.9226,-1.9436,-1.9488,-1.9331,-1.9162,-1.8845,-1.8429,-1.8309,-1.7765,-1.6944,-1.6944,-1.6549,-1.5853,-1.5853,-1.5575,-1.5059,-1.4765,-1.4291,-1.364,-1.3025,-1.2413,-1.1864,-2.6037,-2.5884,-2.5824,-2.5824,-2.5844,-2.5844,-2.5844,-2.5881,-2.5897,-2.5897,-2.5954,-2.599,-2.599,-2.6079,-2.6132,-2.6132,-2.6132,-2.6168,-2.6168,-2.6168,-2.622,-2.622,-2.622,-2.622,-2.622,-2.622,-2.622,-2.622,-2.622,-2.622,-2.622,-2.622,-2.622,-2.622,-2.622,-2.622,-2.622,-2.622,-2.622,-2.622,-2.622,-2.6222,-2.6277,-2.6239,-2.6222,-2.6225,-2.5795,-2.5551,-2.5285,-2.4823,-2.4436,-2.4177,-2.4109,-2.3967,-2.3925,-2.3925,-2.3925,-2.3925,-2.3925,-2.3925,-2.3925,-2.3925,-2.3625,-2.3363,-2.3363,-2.3038,-2.2649,-2.2466,-2.242,-2.2314,-2.2128,-2.2081,-2.1988,-2.1636,0.0,-2.141,-2.0947,-2.0848,-2.0799,-2.0699,-2.0699,-2.0699,-2.0699,-2.0699,-2.0699,-2.0699,-2.0599,-2.0372,-1.9991,-1.9991,-1.985,-1.9565,-1.9344,-1.904,-1.8637,-1.8946,-1.8987,-1.8774,-1.841,-1.8356,-1.8476,-1.8205,-1.7854,-1.7435,-1.7435,-1.709,-1.6528,-1.6528,-1.6083,-1.541,-1.541,-1.4706,-1.3692,-1.3571,-1.2834,-1.1919,-2.662,-2.6069,-2.5616,-2.5616,-2.5696,-2.5701,-2.5701,-2.5828,-2.5897,-2.5897,-2.5881,-2.5897,-2.5897,-2.5934,-2.5934,-2.5934,-2.599,-2.6026,-2.6026,-2.6115,-2.622,-2.622,-2.622,-2.622,-2.622,-2.622,-2.622,-2.622,-2.622,-2.622,-2.622,-2.622,-2.622,-2.622,-2.622,-2.622,-2.622,-2.622,-2.622,-2.622,-2.622,-2.6203,-2.6203,-2.6203,-2.6203,-2.6203,-2.6168,-2.6132,-2.6043,-2.5572,-2.516,-2.4744,-2.4385,-2.3994,-2.3638,-2.3638,-2.3638,-2.3638,-2.3638,-2.3638,-2.3638,-2.3638,-2.329,-2.2934,-2.2934,-2.2558,-2.2128,-2.2128,-2.2128,-2.2128,-2.2081,-2.2081,-2.2081,-2.2035,0.0,0.0,-2.141,-2.1375,-2.118,-2.0749,-2.0699,-2.0699,-2.0699,-2.0699,-2.0699,-2.0699,-2.0321,-2.0042,-1.9991,-1.9991,-1.9991,-1.994,-1.9552,-1.9368,-1.9316,-1.9368,-1.9368,-1.9316,-1.8958,-1.8744,-1.8744,-1.8302,-1.8084,-1.803,-1.803,-1.7678,-1.7146,-1.7146,-1.6472,-1.541,-1.541,-1.502,-1.4327,-1.3761,-1.307,-1.2389,-2.6782,-2.6118,-2.5616,-2.5616,-2.5637,-2.5637,-2.5637,-2.5675,-2.5712,-2.5712,-2.577,-2.5791,-2.5791,-2.5844,-2.5897,-2.5897,-2.5917,-2.5954,-2.5954,-2.597,-2.6059,-2.6168,-2.622,-2.622,-2.622,-2.622,-2.622,-2.622,-2.622,-2.622,-2.622,-2.622,-2.622,-2.622,-2.622,-2.622,-2.622,-2.622,-2.622,-2.622,-2.622,-2.622,-2.622,-2.622,-2.622,-2.6168,-2.5864,-2.5775,-2.5647,-2.4981,-2.4639,-2.4451,-2.3994,-2.3739,-2.3595,-2.3595,-2.3595,-2.3595,-2.3595,-2.3595,-2.3595,-2.3595,-2.3465,-2.3334,-2.3334,-2.3187,-2.2965,-2.2649,-2.2603,-2.2512,-2.2175,-2.2081,-2.1988,-2.1732,0.0,-2.1955,-2.1458,-2.1423,-2.1326,-2.118,-2.0898,-2.0699,-2.0699,-2.0699,-2.0699,-2.0699,-2.0536,-2.0435,-2.0435,-2.0156,-1.9991,-1.9991,-1.9617,-1.942,-1.942,-1.9656,-1.9656,-1.942,-1.9011,-1.8798,-1.8798,-1.8302,-1.8084,-1.8084,-1.8084,-1.7963,-1.7733,-1.7733,-1.7056,-1.5968,-1.5968,-1.5352,-1.4446,-1.4198,-1.37,-1.3009,-2.7106,-2.6264,-2.5616,-2.5616,-2.5616,-2.5616,-2.5616,-2.5616,-2.5616,-2.5616,-2.5621,-2.568,-2.568,-2.5733,-2.5824,-2.5824,-2.5807,-2.5942,-2.6188,-2.6438,-2.643,-2.6148,-2.6132,-2.6168,-2.622,-2.622,-2.622,-2.622,-2.622,-2.622,-2.622,-2.622,-2.622,-2.622,-2.622,-2.622,-2.622,-2.622,-2.622,-2.622,-2.622,-2.622,-2.622,-2.622,-2.622,-2.6132,-2.5684,-2.5503,-2.5389,-2.4558,-2.4302,-2.4219,-2.3739,-2.3595,-2.3595,-2.3595,-2.3595,-2.3595,-2.3595,-2.3595,-2.3551,-2.3421,-2.3143,-2.292,-2.292,-2.2785,-2.2589,-2.2282,-2.2328,-2.2328,-2.1955,-2.1988,-2.1988,-2.1684,-2.1908,-2.1955,-2.1458,-2.1423,-2.1375,-2.118,-2.0898,-2.0699,-2.0699,-2.0699,-2.0699,-2.0699,-2.0549,-2.0485,-2.0485,-2.0156,-2.0042,-2.022,-1.9978,-1.9733,-1.9617,-1.9759,-1.9656,-1.942,-1.9011,-1.8798,-1.8798,-1.8302,-1.8084,-1.8084,-1.8084,-1.8084,-1.8084,-1.8084,-1.739,-1.6312,-1.6244,-1.5517,-1.4506,-1.4446,-1.401,-1.3381,-2.7705,-2.6571,-2.5616,-2.5616,-2.5616,-2.5616,-2.5616,-2.5616,-2.5616,-2.5632,-2.5632,-2.5632,-2.5632,-2.5632,-2.5632,-2.5632,-2.5659,-2.6043,-2.6753,-2.7555,-2.741,-2.6056,-2.6043,-2.6079,-2.6201,-2.622,-2.622,-2.622,-2.622,-2.622,-2.622,-2.622,-2.622,-2.622,-2.622,-2.622,-2.622,-2.622,-2.622,-2.622,-2.622,-2.622,-2.622,-2.622,-2.622,-2.6132,-2.5668,-2.5503,-2.5389,-2.4574,-2.4302,-2.4219,-2.3739,-2.3595,-2.3595,-2.3595,-2.3595,-2.3595,-2.3595,-2.3595,-2.3465,-2.3024,-2.2156,-2.1423,-2.1423,-2.1033,-2.0699,-2.0699,-2.1082,-2.1423,-2.1423,-2.1779,-2.2081,-2.2081,-2.2081,-2.1955,-2.1471,-2.1423,-2.1229,-2.0749,-2.0699,-2.0699,-2.0699,-2.0699,-2.0699,-2.0699,-2.0271,-1.9991,-1.9991,-1.9991,-2.0207,-2.0699,-2.0712,-2.0485,-1.9991,-1.9617,-1.942,-1.942,-1.9011,-1.8798,-1.8798,-1.8302,-1.8084,-1.8084,-1.8084,-1.8084,-1.8084,-1.8084,-1.739,-1.6312,-1.613,-1.5459,-1.4506,-1.4327,-1.395,-1.339,-2.7089,-2.6247,-2.5616,-2.5616,-2.5616,-2.5616,-2.5616,-2.5616,-2.5794,-2.6312,-2.6377,-2.6555,-2.7025,-2.7073,-2.7073,-2.7073,-2.7073,-2.7194,-2.7421,-2.7672,-2.7648,-2.7359,-2.7388,-2.741,-2.7465,-2.6956,-2.6693,-2.6693,-2.6274,-2.6063,-2.6063,-2.6168,-2.622,-2.622,-2.622,-2.622,-2.622,-2.622,-2.622,-2.622,-2.622,-2.622,-2.622,-2.622,-2.622,-2.6168,-2.6043,-2.599,-2.5864,-2.4997,-2.4719,-2.4599,-2.3852,-2.3595,-2.3595,-2.3595,-2.3377,-2.3113,-2.2965,-2.2512,-2.2189,-2.2754,-2.2663,-2.2342,-2.2002,-2.1766,-2.1575,-2.1277,-2.1277,-2.1277,-2.0997,-2.1033,-2.1118,-2.1118,-2.141,-2.1554,-2.1423,-2.1423,-2.1375,-2.1229,-2.0898,-2.0699,-2.0699,-2.0699,-2.0699,-2.0699,-2.0586,-2.0485,-2.0485,-2.0156,-2.0042,-2.0207,-1.9926,-1.972,-1.9565,-1.9759,-1.9656,-1.942,-1.9011,-1.8798,-1.8798,-1.8302,-1.7854,-1.749,-1.749,-1.7213,-1.6821,-1.6821,-1.6652,-1.6244,-1.568,-1.5284,-1.4893,-1.4309,-1.401,-1.3761,-2.6782,-2.6345,-2.6053,-2.6053,-2.6264,-2.6442,-2.6442,-2.6442,-2.6604,-2.7041,-2.7106,-2.7251,-2.7672,-2.7705,-2.7705,-2.7705,-2.7964,-2.8142,-2.8142,-2.8401,-2.8621,-2.8679,-2.873,-2.8535,-2.8027,-2.7568,-2.7355,-2.7355,-2.6967,-2.6792,-2.6792,-2.6883,-2.69,-2.6883,-2.6603,-2.6471,-2.6438,-2.6231,-2.6115,-2.6115,-2.6168,-2.622,-2.622,-2.622,-2.622,-2.6132,-2.5807,-2.568,-2.5551,-2.4664,-2.4379,-2.4297,-2.3724,-2.3566,-2.3566,-2.348,-2.3304,-2.2979,-2.2694,-2.2235,-2.1874,-2.2081,-2.2095,-2.1955,-2.1623,-2.1527,-2.1444,-2.118,-2.1131,-2.1033,-2.0749,-2.0699,-2.0699,-2.0699,-2.0947,-2.1082,-2.1033,-2.1082,-2.1082,-2.1033,-2.0848,-2.0699,-2.0699,-2.0699,-2.0699,-2.0699,-2.0699,-2.0699,-2.0699,-2.0258,-2.0105,-2.0271,-1.9862,-1.9656,-1.9656,-1.985,-1.9656,-1.9158,-1.8625,-1.8367,-1.8367,-1.792,-1.7457,-1.6922,-1.6922,-1.6585,-1.6073,-1.6073,-1.6026,-1.5796,-1.5216,-1.4932,-1.4775,-1.413,-1.395,-1.3881,-2.6798,-2.6782,-2.6782,-2.6782,-2.73,-2.7705,-2.7705,-2.7705,-2.7737,-2.7802,-2.7802,-2.7834,-2.7899,-2.7899,-2.7899,-2.7899,-2.8498,-2.8887,-2.8887,-2.9545,-2.9918,-2.9918,-2.9918,-2.9371,-2.8199,-2.8101,-2.8069,-2.8069,-2.8003,-2.797,-2.797,-2.801,-2.801,-2.7977,-2.7306,-2.7011,-2.6962,-2.6414,-2.6138,-2.6072,-2.6214,-2.6234,-2.6168,-2.6168,-2.6168,-2.6043,-2.523,-2.4942,-2.4863,-2.3964,-2.3638,-2.3566,-2.3494,-2.3466,-2.3466,-2.3319,-2.3275,-2.3127,-2.2603,-2.2466,-2.2175,-2.1237,-2.0871,-2.0699,-2.0649,-2.0662,-2.0662,-2.0662,-2.0662,-2.0662,-2.0662,-2.0662,-2.0662,-2.0649,-2.0662,-2.0662,-2.0511,-2.0612,-2.0612,-2.0511,-2.0562,-2.0662,-2.0662,-2.0649,-2.0712,-2.0699,-2.0699,-2.0699,-2.0649,-2.0207,-2.0156,-2.0549,-2.0156,-1.994,-1.994,-1.9747,-1.9344,-1.8744,-1.803,-1.7711,-1.7645,-1.7301,-1.6899,-1.6436,-1.6368,-1.6083,-1.5613,-1.5613,-1.5449,-1.5108,-1.4737,-1.4519,-1.4267,-1.389,-1.383,-1.3821,-2.7608,-2.7494,-2.7494,-2.7494,-2.7608,-2.7705,-2.7705,-2.7705,-2.7915,-2.8482,-2.8547,-2.8773,-2.934,-2.9405,-2.9405,-2.9405,-2.9594,-2.9675,-2.9675,-2.9821,-2.9918,-2.9918,-2.9918,-2.9756,-2.9491,-2.8923,-2.863,-2.863,-2.816,-2.7939,-2.7939,-2.7987,-2.801,-2.7994,-2.783,-2.7765,-2.7765,-2.7601,-2.7246,-2.6721,-2.6738,-2.6447,-2.597,-2.597,-2.597,-2.5881,-2.5346,-2.5346,-2.5567,-2.4664,-2.3937,-2.3363,-2.3363,-2.3319,-2.3319,-2.3319,-2.2979,-2.2649,-2.242,-2.2156,-2.1779,-2.1042,-2.0894,-2.0809,-2.0385,-2.0334,-2.0334,-2.0334,-2.0334,-2.0334,-2.0334,-2.0448,-2.0511,-2.0334,-2.0549,-2.0599,-2.0283,-2.0448,-2.0461,-2.0296,-2.0283,-2.0334,-2.0334,-2.0448,-2.0612,-2.0712,-2.0699,-2.0536,-2.0156,-2.0055,-1.9901,-1.9681,-1.9565,-1.9512,-1.9512,-1.8922,-1.8548,-1.8398,-1.817,-1.7788,-1.7301,-1.6842,-1.6312,-1.5776,-1.5429,-1.4923,-1.441,-1.441,-1.4638,-1.4914,-1.4231,-1.424,-1.4538,-1.3812,-1.3571,-1.345,-2.7786,-2.798,-2.8223,-2.8223,-2.8514,-2.8741,-2.8741,-2.8741,-2.8871,-2.9243,-2.9335,-2.9497,-2.987,-2.9918,-2.9918,-2.9918,-2.9918,-2.9918,-2.9918,-2.9918,-2.9918,-2.9918,-2.9918,-2.9918,-2.9918,-2.9545,-2.9335,-2.9335,-2.902,-2.8842,-2.8842,-2.8909,-2.8893,-2.8876,-2.8534,-2.8372,-2.8355,-2.8054,-2.7735,-2.7392,-2.7398,-2.7011,-2.6372,-2.6372,-2.6048,-2.5513,-2.5075,-2.4784,-2.4583,-2.4131,-2.3681,-2.3275,-2.3231,-2.3201,-2.3201,-2.3112,-2.2918,-2.2632,-2.2342,-2.2123,-2.1841,-2.1237,-2.1126,-2.1042,-2.0372,-2.0182,-2.0182,-2.0182,-2.0182,-2.0182,-2.0182,-2.0296,-2.0347,-2.0233,-2.0334,-2.0398,-2.0144,-2.0246,-2.0296,-2.0131,-2.0182,-2.0182,-2.0182,-2.0296,-2.0398,-2.0448,-2.0448,-2.0334,-2.0105,-1.9631,-1.9371,-1.9396,-1.8922,-1.8762,-1.8975,-1.8536,-1.8147,-1.7886,-1.7611,-1.729,-1.6976,-1.64,-1.5816,-1.5216,-1.4756,-1.4282,-1.3761,-1.3761,-1.3992,-1.4341,-1.3812,-1.3941,-1.424,-1.3692,-1.3321,-1.2887,-2.8077,-2.8563,-2.8968,-2.8968,-2.9513,-2.9918,-2.9918,-2.9918,-2.9918,-2.9918,-2.9918,-2.9918,-2.9918,-2.9918,-2.9918,-2.9918,-2.9918,-2.9918,-2.9918,-2.9918,-2.9918,-2.9918,-2.9918,-2.9918,-2.9918,-2.9918,-2.9918,-2.9918,-2.9918,-2.9918,-2.9918,-2.9918,-2.9918,-2.9886,-2.9243,-2.8968,-2.8935,-2.8436,-2.8168,-2.8054,-2.8127,-2.7669,-2.7032,-2.7032,-2.6383,-2.5384,-2.4892,-2.407,-2.3231,-2.3319,-2.3319,-2.3187,-2.3127,-2.3082,-2.3037,-2.2947,-2.2888,-2.2797,-2.2417,-2.2278,-2.2077,-2.1513,-2.1417,-2.1175,-2.0321,-2.0169,-2.0283,-2.0283,-2.0182,-2.0118,-2.0118,-2.0131,-2.0182,-2.0131,-2.0182,-2.0131,-1.999,-2.008,-2.0131,-1.9978,-2.008,-2.0131,-2.0182,-2.0182,-2.0182,-2.0182,-2.0182,-2.0182,-2.008,-1.9319,-1.8939,-1.9162,-1.8375,-1.805,-1.8255,-1.8135,-1.7809,-1.7279,-1.6909,-1.6705,-1.6705,-1.6019,-1.5439,-1.4893,-1.4419,-1.3941,-1.3511,-1.3511,-1.358,-1.37,-1.3571,-1.358,-1.37,-1.3571,-1.307,-1.2381,-2.961,-2.9691,-2.9772,-2.9772,-2.9853,-2.9918,-2.9918,-2.9918,-2.9918,-2.9918,-2.9918,-2.9918,-2.9918,-2.9918,-2.9918,-2.9918,-2.9918,-2.9918,-2.9918,-2.9918,-2.9918,-2.9918,-2.9918,-2.9918,-2.9918,-2.9918,-2.9918,-2.9918,-2.9918,-2.9918,-2.9918,-2.9918,-2.9918,-2.9918,-2.9805,-2.9772,-2.9756,-2.9659,-2.927,-2.8686,-2.8686,-2.8248,-2.7599,-2.7599,-2.7138,-2.6366,-2.5529,-2.4249,-2.3023,-2.3436,-2.3304,-2.2933,-2.2933,-2.2947,-2.2947,-2.2902,-2.2888,-2.2888,-2.2797,-2.2509,-2.2077,-2.1513,-2.1417,-2.1126,-2.0105,-2.0207,-2.056,-2.056,-2.0156,-1.985,-1.985,-1.9978,-1.9978,-1.9862,-2.0067,-2.0131,-1.9862,-1.9926,-1.9978,-1.9862,-1.985,-1.9914,-2.0042,-2.0042,-2.0093,-2.0182,-2.0182,-2.0029,-1.972,-1.9552,-1.9121,-1.8309,-1.8147,-1.7831,-1.7401,-1.7134,-1.6976,-1.6864,-1.6591,-1.6431,-1.6431,-1.5914,-1.5439,-1.4893,-1.4419,-1.3941,-1.3511,-1.3511,-1.3511,-1.3511,-1.3511,-1.3511,-1.3511,-1.3511,-1.307,-1.2381,-2.9665,-2.9665,-2.971,-2.9858,-2.9918,-2.9918,-2.9918,-2.9918,-2.9918,-2.9918,-2.9918,-2.9918,-2.9918,-2.9918,-2.9918,-2.9918,-2.9918,-2.9918,-2.9918,-2.9918,-2.9918,-2.9918,-2.9918,-2.9918,-2.9918,-2.9918,-2.9918,-2.9918,-2.9918,-2.9918,-2.9918,-2.9918,-2.9918,-2.9918,-2.9918,-2.9918,-2.9918,-2.9918,-2.9724,-2.9432,-2.9432,-2.8951,-2.8262,-2.7977,-2.7275,-2.6287,-2.4971,-2.3985,-2.326,-2.3231,-2.3053,-2.2888,-2.2888,-2.2888,-2.2888,-2.2888,-2.2888,-2.2888,-2.2888,-2.2752,-2.2463,-2.1969,-2.1827,-2.1623,-2.0881,-2.0646,-2.051,-2.0207,-1.9952,-1.9798,-1.9798,-1.9862,-1.9862,-1.9811,-1.9914,-1.9965,-1.9811,-1.9862,-1.9862,-1.9811,-1.9798,-1.9811,-1.9862,-1.9875,-1.9914,-1.9965,-1.9965,-1.9914,-1.9708,-1.946,-1.8922,-1.8147,-1.7754,-1.7335,-1.6761,-1.6648,-1.6602,-1.6602,-1.6431,-1.6384,-1.6374,-1.5914,-1.5556,-1.5313,-1.4547,-1.407,-1.3881,-1.3631,-1.3511,-1.3511,-1.3511,-1.3511,-1.3511,-1.3511,-1.2956,-1.2158]},{"header":{"parameterUnit":"m.s-1","parameterCategory":1,"la1":30.6,"la2":28.766,"lo1":-90.7593,"lo2":-88.6598,"dy":0.0162,"dx":0.0183,"nx":116,"ny":114,"refTime":"2023-04-30T12:00:00:Z","depth":0,"parameterNumber":3,"parameterNumberName":"V-component_of_WINDS"},"data":[0.0,0.0,0.0,0.0,0.0,0.0,0.0,0.0,0.0,0.0,0.0,0.0,0.0,0.0,0.0,0.0,0.0,0.0,0.0,0.0,0.0,0.0,0.0,0.0,0.0,0.0,0.0,0.0,0.0,0.0,0.0,0.0,0.0,0.0,0.0,0.0,0.0,0.0,0.0,0.0,0.0,0.0,0.0,0.0,0.0,0.0,0.0,0.0,0.0,0.0,0.0,0.0,0.0,0.0,0.0,0.0,0.0,0.0,0.0,0.0,0.0,0.0,0.0,0.0,0.0,0.0,0.0,0.0,0.0,0.0,0.0,0.0,0.0,0.0,0.0,0.0,0.0,0.0,0.0,0.0,0.0,0.0,0.0,0.0,0.0,0.0,0.0,0.0,0.0,0.0,0.0,0.0,0.0,0.0,0.0,0.0,0.0,0.0,0.0,0.0,0.0,0.0,0.0,0.0,0.0,0.0,0.0,0.0,0.0,0.0,0.0,0.0,0.0,0.0,0.0,0.0,0.0,0.0,0.0,0.0,0.0,0.0,0.0,0.0,0.0,0.0,0.0,0.0,0.0,0.0,0.0,0.0,0.0,0.0,0.0,0.0,0.0,0.0,0.0,0.0,0.0,0.0,0.0,0.0,0.0,0.0,0.0,0.0,0.0,0.0,0.0,0.0,0.0,0.0,0.0,0.0,0.0,0.0,0.0,0.0,0.0,0.0,0.0,0.0,0.0,0.0,0.0,0.0,0.0,0.0,0.0,0.0,0.0,0.0,0.0,0.0,0.0,0.0,0.0,0.0,0.0,0.0,0.0,0.0,0.0,0.0,0.0,0.0,0.0,0.0,0.0,0.0,0.0,0.0,0.0,0.0,0.0,0.0,0.0,0.0,0.0,0.0,0.0,0.0,0.0,0.0,0.0,0.0,0.0,0.0,0.0,0.0,0.0,0.0,0.0,0.0,0.0,0.0,0.0,0.0,0.0,0.0,0.0,0.0,0.0,0.0,0.0,0.0,0.0,0.0,0.0,0.0,0.0,0.0,0.0,0.0,0.0,0.0,0.0,0.0,0.0,0.0,0.0,0.0,0.0,0.0,0.0,0.0,0.0,0.0,0.0,0.0,0.0,0.0,0.0,0.0,0.0,0.0,0.0,0.0,0.0,0.0,0.0,0.0,0.0,0.0,0.0,0.0,0.0,0.0,0.0,0.0,0.0,0.0,0.0,0.0,0.0,0.0,0.0,0.0,0.0,0.0,0.0,0.0,0.0,0.0,0.0,0.0,0.0,0.0,0.0,0.0,0.0,0.0,0.0,0.0,0.0,0.0,0.0,0.0,0.0,0.0,0.0,0.0,0.0,0.0,0.0,0.0,0.0,0.0,0.0,0.0,0.0,0.0,0.0,0.0,0.0,0.0,0.0,0.0,0.0,0.0,0.0,0.0,0.0,0.0,0.0,0.0,0.0,0.0,0.0,0.0,0.0,0.0,0.0,0.0,0.0,0.0,0.0,0.0,0.0,0.0,0.0,0.0,0.0,0.0,0.0,0.0,0.0,0.0,0.0,0.0,0.0,0.0,0.0,0.0,0.0,0.0,0.0,0.0,0.0,0.0,0.0,0.0,0.0,0.0,0.0,0.0,0.0,0.0,0.0,0.0,0.0,0.0,0.0,0.0,0.0,0.0,0.0,0.0,0.0,0.0,0.0,0.0,0.0,0.0,0.0,0.0,0.0,0.0,0.0,0.0,0.0,0.0,0.0,0.0,0.0,0.0,0.0,0.0,0.0,0.0,0.0,0.0,0.0,0.0,0.0,0.0,0.0,0.0,0.0,0.0,0.0,0.0,0.0,0.0,0.0,0.0,0.0,0.0,0.0,0.0,0.0,0.0,0.0,0.0,0.0,0.0,0.0,0.0,0.0,0.0,0.0,0.0,0.0,0.0,0.0,0.0,0.0,0.0,0.0,0.0,0.0,0.0,0.0,0.0,0.0,0.0,0.0,0.0,0.0,0.0,0.0,0.0,0.0,0.0,0.0,0.0,0.0,0.0,0.0,0.0,0.0,0.0,0.0,0.0,0.0,0.0,0.0,0.0,0.0,0.0,0.0,0.0,0.0,0.0,0.0,0.0,0.0,0.0,0.0,0.0,0.0,0.0,0.0,0.0,0.0,0.0,0.0,0.0,0.0,0.0,0.0,0.0,0.0,0.0,0.0,0.0,0.0,0.0,0.0,0.0,0.0,0.0,0.0,0.0,0.0,0.0,0.0,0.0,0.0,0.0,0.0,0.0,0.0,0.0,0.0,0.0,0.0,0.0,0.0,0.0,0.0,0.0,0.0,0.0,0.0,0.0,0.0,0.0,0.0,0.0,0.0,0.0,0.0,0.0,0.0,0.0,0.0,0.0,0.0,0.0,0.0,0.0,0.0,0.0,0.0,0.0,0.0,0.0,0.0,0.0,0.0,0.0,0.0,0.0,0.0,0.0,0.0,0.0,0.0,0.0,0.0,0.0,0.0,0.0,0.0,0.0,0.0,0.0,0.0,0.0,0.0,0.0,0.0,0.0,0.0,0.0,0.0,0.0,0.0,0.0,0.0,0.0,0.0,0.0,0.0,0.0,0.0,0.0,0.0,0.0,0.0,0.0,0.0,0.0,0.0,0.0,0.0,0.0,0.0,0.0,0.0,0.0,0.0,0.0,0.0,0.0,0.0,0.0,0.0,0.0,0.0,0.0,0.0,0.0,0.0,0.0,0.0,0.0,0.0,0.0,0.0,0.0,0.0,0.0,0.0,0.0,0.0,0.0,0.0,0.0,0.0,0.0,0.0,0.0,0.0,0.0,0.0,0.0,0.0,0.0,0.0,0.0,0.0,0.0,0.0,0.0,0.0,0.0,0.0,0.0,0.0,0.0,0.0,0.0,0.0,0.0,0.0,0.0,0.0,0.0,0.0,0.0,0.0,0.0,0.0,0.0,0.0,0.0,0.0,0.0,0.0,0.0,0.0,0.0,0.0,0.0,0.0,0.0,0.0,0.0,0.0,0.0,0.0,0.0,0.0,0.0,0.0,0.0,0.0,0.0,0.0,0.0,0.0,0.0,0.0,0.0,0.0,0.0,0.0,0.0,0.0,0.0,0.0,0.0,0.0,0.0,0.0,0.0,0.0,0.0,0.0,0.0,0.0,0.0,0.0,0.0,0.0,0.0,0.0,0.0,0.0,0.0,0.0,0.0,0.0,0.0,0.0,0.0,0.0,0.0,0.0,0.0,0.0,0.0,0.0,0.0,0.0,0.0,0.0,0.0,0.0,0.0,0.0,0.0,0.0,0.0,0.0,0.0,0.0,0.0,0.0,0.0,0.0,0.0,0.0,0.0,0.0,0.0,0.0,0.0,0.0,0.0,0.0,0.0,0.0,0.0,0.0,0.0,0.0,0.0,0.0,0.0,0.0,0.0,0.0,0.0,0.0,0.0,0.0,0.0,0.0,0.0,0.0,0.0,0.0,0.0,0.0,0.0,0.0,0.0,0.0,0.0,0.0,0.0,0.0,0.0,0.0,0.0,0.0,0.0,0.0,0.0,0.0,0.0,0.0,0.0,0.0,0.0,0.0,0.0,0.0,0.0,0.0,0.0,0.0,0.0,0.0,0.0,0.0,0.0,0.0,0.0,0.0,0.0,0.0,0.0,0.0,0.0,0.0,0.0,0.0,0.0,0.0,0.0,0.0,0.0,0.0,0.0,0.0,0.0,0.0,0.0,0.0,0.0,0.0,0.0,0.0,0.0,0.0,0.0,0.0,0.0,0.0,0.0,0.0,0.0,0.0,0.0,0.0,0.0,0.0,0.0,0.0,0.0,0.0,0.0,0.0,0.0,0.0,0.0,0.0,0.0,0.0,0.0,0.0,0.0,0.0,0.0,0.0,0.0,0.0,0.0,0.0,0.0,0.0,0.0,0.0,0.0,0.0,0.0,0.0,0.0,0.0,0.0,0.0,0.0,0.0,0.0,0.0,0.0,0.0,0.0,0.0,0.0,0.0,0.0,0.0,0.0,0.0,0.0,0.0,0.0,0.0,0.0,0.0,0.0,0.0,0.0,0.0,0.0,0.0,0.0,0.0,0.0,0.0,0.0,0.0,0.0,0.0,0.0,0.0,0.0,0.0,0.0,0.0,0.0,0.0,0.0,0.0,0.0,0.0,0.0,0.0,0.0,0.0,0.0,0.0,0.0,0.0,0.0,0.0,0.0,0.0,0.0,0.0,0.0,0.0,0.0,0.0,0.0,0.0,0.0,0.0,0.0,0.0,0.0,0.0,0.0,0.0,0.0,0.0,0.0,0.0,0.0,0.0,0.0,0.0,0.0,0.0,0.0,0.0,0.0,0.0,0.0,0.0,0.0,0.0,0.0,0.0,0.0,0.0,0.0,0.0,0.0,0.0,0.0,0.0,0.0,0.0,0.0,0.0,0.0,0.0,0.0,0.0,0.0,0.0,0.0,0.0,0.0,0.0,0.0,0.0,0.0,0.0,0.0,0.0,0.0,0.0,0.0,0.0,0.0,0.0,0.0,0.0,0.0,0.0,0.0,0.0,0.0,0.0,0.0,0.0,0.0,0.0,0.0,0.0,0.0,0.0,0.0,0.0,0.0,0.0,0.0,0.0,0.0,0.0,0.0,0.0,0.0,0.0,0.0,0.0,0.0,0.0,0.0,0.0,0.0,0.0,0.0,0.0,0.0,0.0,0.0,0.0,0.0,0.0,0.0,0.0,0.0,0.0,0.0,0.0,0.0,0.0,0.0,0.0,0.0,0.0,0.0,0.0,0.0,0.0,0.0,0.0,0.0,0.0,0.0,0.0,0.0,0.0,0.0,0.0,0.0,0.0,0.0,0.0,0.0,0.0,0.0,0.0,0.0,0.0,0.0,0.0,0.0,0.0,0.0,0.0,0.0,0.0,0.0,0.0,0.0,0.0,0.0,0.0,0.0,0.0,0.0,0.0,0.0,0.0,0.0,0.0,0.0,0.0,0.0,0.0,0.0,0.0,0.0,0.0,0.0,0.0,0.0,0.0,0.0,0.0,0.0,0.0,0.0,0.0,0.0,0.0,0.0,0.0,0.0,0.0,0.0,0.0,0.0,0.0,0.0,0.0,0.0,0.0,0.0,0.0,0.0,0.0,0.0,0.0,0.0,0.0,0.0,0.0,0.0,0.0,0.0,0.0,0.0,0.0,0.0,0.0,0.0,0.0,0.0,0.0,0.0,0.0,0.0,0.0,0.0,0.0,0.0,0.0,0.0,0.0,0.0,0.0,0.0,0.0,0.0,0.0,0.0,0.0,0.0,0.0,0.0,0.0,0.0,0.0,0.0,0.0,0.0,0.0,0.0,0.0,0.0,0.0,0.0,0.0,0.0,0.0,0.0,0.0,0.0,0.0,0.0,0.0,0.0,0.0,0.0,0.0,0.0,0.0,0.0,0.0,0.0,0.0,0.0,0.0,0.0,0.0,0.0,0.0,0.0,0.0,0.0,0.0,0.0,0.0,0.0,0.0,0.0,0.0,0.0,0.0,0.0,0.0,0.0,0.0,0.0,0.0,0.0,0.0,0.0,0.0,0.0,0.0,0.0,0.0,0.0,0.0,0.0,0.0,0.0,0.0,0.0,0.0,0.0,0.0,0.0,0.0,0.0,0.0,0.0,0.0,0.0,0.0,0.0,0.0,0.0,0.0,0.0,0.0,0.0,0.0,0.0,0.0,0.0,0.0,0.0,0.0,0.0,0.0,0.0,0.0,0.0,0.0,0.0,0.0,0.0,0.0,0.0,0.0,0.0,0.0,0.0,0.0,0.0,0.0,0.0,0.0,0.0,0.0,0.0,0.0,0.0,0.0,0.0,0.0,0.0,0.0,0.0,0.0,0.0,0.0,0.0,0.0,0.0,0.0,0.0,0.0,0.0,0.0,0.0,0.0,0.0,0.0,0.0,0.0,0.0,0.0,0.0,0.0,0.0,0.0,0.0,0.0,0.0,0.0,0.0,0.0,0.0,0.0,0.0,0.0,0.0,0.0,0.0,0.0,0.0,0.0,0.0,0.0,0.0,0.0,0.0,0.0,0.0,0.0,0.0,0.0,0.0,0.0,0.0,1.2321,0.0,0.0,0.0,0.0,0.0,0.0,0.0,0.0,0.0,0.0,0.0,0.0,0.0,0.0,0.0,0.0,0.0,0.0,0.0,0.0,0.0,0.0,0.0,0.0,0.0,0.0,0.0,0.0,0.0,0.0,0.0,0.0,0.0,0.0,0.0,0.0,0.0,0.0,0.0,0.0,0.0,0.0,0.0,0.0,0.0,0.0,0.0,0.0,0.0,0.0,0.0,0.0,0.0,0.0,0.0,0.0,0.0,0.0,0.0,0.0,0.0,0.0,0.0,0.0,0.0,0.0,0.0,0.0,0.0,0.0,0.0,0.0,0.0,0.0,0.0,0.0,0.0,0.0,0.0,0.0,0.0,0.0,0.0,0.0,0.0,0.0,0.0,0.0,0.0,0.0,0.0,0.0,0.0,0.0,0.0,0.0,0.0,0.0,0.0,0.0,0.0,0.0,0.0,0.0,0.0,0.0,0.0,0.0,0.0,0.0,0.0,0.0,0.0,0.0,0.0,0.0,1.25,0.0,0.0,0.0,0.0,0.0,0.0,0.0,0.0,0.0,0.0,0.0,0.0,0.0,0.0,0.0,0.0,0.0,0.0,0.0,0.0,0.0,0.0,0.0,0.0,0.0,0.0,0.0,0.0,0.0,0.0,0.0,0.0,0.0,0.0,0.0,0.0,0.0,0.0,0.0,0.0,0.0,0.0,0.0,0.0,0.0,0.0,0.0,0.0,0.0,0.0,0.0,0.0,0.0,0.0,0.0,0.0,0.0,0.0,0.0,0.0,0.0,0.0,0.0,0.0,0.0,0.0,0.0,0.0,0.0,0.0,0.0,0.0,0.0,0.0,0.0,0.0,0.0,0.0,0.0,0.0,0.0,0.0,0.0,0.0,0.0,0.0,0.0,0.0,0.0,0.0,0.0,0.0,0.0,0.0,0.0,0.0,0.0,0.0,0.0,0.0,0.0,0.0,0.0,0.0,0.0,0.0,0.0,0.0,1.3511,1.3511,1.3511,1.3511,1.3511,1.3476,1.2851,1.2774,1.3048,1.2714,0.0,0.0,0.0,0.0,0.0,0.0,0.0,0.0,0.0,0.0,0.0,0.0,0.0,0.0,0.0,0.0,0.0,0.0,0.0,0.0,0.0,0.0,0.0,0.0,0.0,0.0,0.0,0.0,0.0,0.0,0.0,0.0,0.0,0.0,0.0,0.0,0.0,0.0,1.8987,1.8987,1.8987,1.8987,0.0,0.0,0.0,0.0,0.0,0.0,0.0,0.0,0.0,0.0,0.0,0.0,0.0,0.0,0.0,0.0,0.0,0.0,0.0,0.0,0.0,0.0,0.0,0.0,0.0,0.0,0.0,0.0,0.0,0.0,0.0,0.0,0.0,0.0,0.0,0.0,0.0,0.0,0.0,0.0,0.0,0.0,0.0,0.0,1.4515,1.4515,0.0,0.0,0.0,0.0,0.0,0.0,0.0,0.0,0.0,0.0,0.0,0.0,0.0,1.3821,1.3511,1.3511,1.3511,1.3511,1.3511,1.3511,1.3511,1.3511,1.3511,1.3502,1.3408,0.0,1.3434,1.3382,0.0,0.0,0.0,0.0,0.0,0.0,0.0,0.0,0.0,0.0,0.0,0.0,0.0,0.0,0.0,0.0,0.0,0.0,0.0,0.0,0.0,0.0,0.0,0.0,0.0,0.0,0.0,0.0,0.0,0.0,0.0,0.0,0.0,0.0,0.0,0.0,1.8987,1.8987,1.8987,1.8987,1.8987,1.8987,1.8987,1.8999,1.8893,1.8893,0.0,0.0,0.0,0.0,0.0,0.0,0.0,0.0,0.0,0.0,0.0,0.0,0.0,0.0,0.0,0.0,0.0,0.0,0.0,0.0,0.0,0.0,0.0,0.0,0.0,0.0,0.0,0.0,0.0,0.0,0.0,0.0,0.0,0.0,0.0,0.0,0.0,0.0,0.0,1.4515,1.4515,1.4515,1.4515,1.4515,0.0,0.0,0.0,0.0,0.0,0.0,0.0,0.0,0.0,1.4198,1.407,1.389,1.37,1.3571,1.3511,1.3511,1.3511,1.3511,1.3511,1.3511,1.3511,1.3511,1.3511,1.3631,1.3881,1.3631,1.3511,1.3511,0.0,0.0,0.0,0.0,1.3277,1.3398,0.0,0.0,0.0,0.0,0.0,0.0,0.0,0.0,0.0,0.0,0.0,0.0,0.0,0.0,0.0,1.8221,0.0,0.0,0.0,0.0,0.0,0.0,0.0,0.0,0.0,0.0,0.0,0.0,1.8987,1.8987,1.8987,1.8987,1.8987,1.8987,1.8987,1.8987,1.8987,1.8893,1.8851,0.0,0.0,0.0,0.0,0.0,0.0,0.0,0.0,0.0,0.0,0.0,0.0,0.0,0.0,0.0,0.0,0.0,0.0,0.0,0.0,0.0,0.0,0.0,0.0,0.0,0.0,0.0,0.0,0.0,0.0,0.0,0.0,0.0,0.0,0.0,0.0,0.0,0.0,1.4515,1.4515,1.4515,1.4515,1.4515,0.0,0.0,0.0,0.0,0.0,0.0,1.4515,1.4515,1.4455,1.4267,1.4139,1.401,1.383,1.37,1.3631,1.3631,1.3571,1.3571,1.3571,1.3511,1.3571,1.3692,1.3692,1.3941,1.43,1.3881,1.3692,1.3631,1.3519,1.3346,1.3285,1.3519,1.3631,1.3752,0.0,0.0,0.0,0.0,0.0,0.0,0.0,0.0,0.0,0.0,0.0,0.0,0.0,0.0,1.8717,1.9291,1.9003,1.9239,0.0,0.0,0.0,0.0,0.0,0.0,0.0,0.0,0.0,1.8987,1.8987,1.8987,1.8987,1.8987,1.8987,1.8987,1.8987,1.8987,1.8987,1.8987,1.8946,1.8798,0.0,0.0,0.0,0.0,0.0,0.0,0.0,0.0,0.0,0.0,0.0,0.0,0.0,0.0,0.0,0.0,0.0,0.0,0.0,0.0,0.0,0.0,0.0,0.0,0.0,0.0,0.0,0.0,0.0,0.0,0.0,0.0,0.0,0.0,0.0,0.0,0.0,0.0,0.0,1.4515,1.4515,0.0,0.0,0.0,0.0,1.4515,1.4515,1.4515,1.4515,1.4515,1.4455,1.4267,1.4267,1.4207,1.401,1.401,1.395,1.395,1.383,1.3769,1.3769,1.3571,1.3761,1.413,1.413,1.4359,1.4656,1.4309,1.413,1.4189,1.4478,1.4359,1.395,1.395,1.395,1.401,0.0,0.0,0.0,0.0,0.0,0.0,0.0,0.0,0.0,0.0,0.0,0.0,0.0,1.8829,1.9165,1.9376,2.0019,2.044,2.0514,0.0,0.0,0.0,0.0,0.0,0.0,0.0,1.95,1.95,1.9198,1.8987,1.8987,1.8987,1.8987,1.8987,1.8987,1.8987,1.8987,1.8893,1.8851,1.8798,1.8798,1.8798,0.0,0.0,0.0,0.0,0.0,0.0,0.0,0.0,0.0,0.0,0.0,0.0,0.0,0.0,0.0,0.0,0.0,0.0,0.0,0.0,0.0,0.0,0.0,0.0,0.0,0.0,0.0,0.0,0.0,0.0,0.0,0.0,0.0,0.0,0.0,0.0,0.0,1.4515,1.4515,0.0,1.4515,1.4515,1.4515,1.4515,1.4515,1.4396,1.4121,1.4112,1.3992,1.3679,1.3548,1.3426,1.337,1.3256,1.3191,1.3077,1.3029,1.2963,1.2914,1.2849,1.302,1.3417,1.337,1.3846,1.4706,1.4478,1.4406,1.4359,1.43,1.413,1.401,1.424,1.43,1.4419,0.0,0.0,0.0,0.0,0.0,0.0,0.0,0.0,0.0,0.0,0.0,1.8361,1.8478,1.9025,1.9474,1.9698,2.0681,2.122,2.1093,0.0,0.0,0.0,0.0,0.0,0.0,2.0258,2.0003,1.9798,1.9448,1.9198,1.8987,1.8987,1.8987,1.8987,1.8987,1.8987,1.8987,1.8851,1.8851,1.8839,1.8839,1.8839,1.8893,0.0,0.0,0.0,0.0,0.0,0.0,0.0,0.0,0.0,0.0,0.0,0.0,0.0,0.0,0.0,0.0,0.0,0.0,0.0,0.0,0.0,0.0,0.0,0.0,0.0,0.0,0.0,0.0,0.0,0.0,0.0,0.0,0.0,0.0,0.0,1.4455,1.4455,1.4446,1.4515,1.4515,1.4378,1.4304,1.4304,1.4176,1.3983,1.3699,1.3681,1.3561,1.3305,1.3177,1.3159,1.3313,1.3059,1.294,1.2986,1.2852,1.2867,1.2923,1.2998,1.3286,1.3784,1.3728,1.4213,1.5047,1.4934,1.4869,1.4765,1.4656,1.4488,1.4369,1.4715,1.4824,1.4883,0.0,0.0,0.0,0.0,0.0,0.0,0.0,0.0,0.0,0.0,1.8361,1.8478,1.8545,1.9053,1.9684,2.0372,2.0962,2.1597,2.2142,2.1712,0.0,0.0,0.0,0.0,2.066,2.066,2.0359,1.9798,0.0,0.0,0.0,0.0,0.0,0.0,1.904,1.8999,1.8987,1.8905,1.8893,1.8987,1.8987,1.8987,1.8987,0.0,0.0,0.0,0.0,0.0,0.0,0.0,0.0,0.0,0.0,0.0,0.0,0.0,0.0,0.0,0.0,0.0,0.0,0.0,0.0,0.0,0.0,0.0,0.0,0.0,0.0,0.0,0.0,0.0,0.0,0.0,0.0,0.0,1.4267,1.4396,1.4455,1.4336,1.4396,1.4455,1.4455,1.4139,1.3901,1.3901,1.3552,1.3332,1.3314,1.3314,1.3305,1.3296,1.3296,1.3495,1.4005,1.3386,1.3322,1.379,1.339,1.3473,1.3873,1.4092,1.4619,1.5371,1.5371,1.5507,1.5652,1.5662,1.5536,1.541,1.5604,1.5381,1.5029,1.5303,1.541,1.541,0.0,0.0,0.0,0.0,0.0,0.0,0.0,0.0,0.0,0.0,1.8361,1.8488,1.9095,1.9754,2.0386,2.102,2.1626,2.2002,2.217,0.0,0.0,0.0,0.0,0.0,2.1888,2.1458,0.0,0.0,0.0,0.0,0.0,0.0,0.0,0.0,0.0,0.0,1.904,1.9798,1.9708,1.8987,1.8893,1.8851,1.8839,0.0,0.0,0.0,0.0,0.0,0.0,0.0,0.0,0.0,0.0,0.0,0.0,0.0,0.0,0.0,0.0,0.0,0.0,0.0,0.0,0.0,0.0,0.0,0.0,0.0,0.0,0.0,0.0,0.0,0.0,0.0,0.0,1.401,1.4079,1.4139,1.413,1.4079,1.4139,1.4139,1.4139,1.4031,1.3969,1.3969,1.3997,1.3816,1.3405,1.3483,1.3347,1.2958,1.3268,1.353,1.3638,1.3476,1.3584,1.3951,1.3478,1.3479,1.3808,1.3866,1.4198,1.4646,1.4492,1.4733,1.5319,1.514,1.5204,1.541,1.5478,1.542,1.5303,1.5352,1.541,1.541,0.0,0.0,0.0,0.0,0.0,0.0,0.0,0.0,0.0,0.0,1.8361,1.8597,1.9319,2.0007,2.0682,2.1332,2.1879,2.2231,2.2278,0.0,0.0,0.0,0.0,2.2137,0.0,0.0,0.0,0.0,0.0,0.0,0.0,0.0,0.0,0.0,0.0,0.0,1.9695,2.0359,2.0258,1.9643,1.9604,1.9303,1.8893,1.8999,1.8987,1.8987,1.8987,1.8987,1.8987,1.8987,0.0,0.0,0.0,0.0,0.0,0.0,0.0,0.0,0.0,0.0,0.0,0.0,0.0,0.0,0.0,0.0,0.0,0.0,0.0,0.0,0.0,0.0,0.0,0.0,1.395,1.3821,1.3821,1.401,1.4079,1.395,1.4079,1.4198,1.4139,1.4046,1.3938,1.3938,1.391,1.3777,1.3532,1.3392,1.334,1.3377,1.3259,1.3476,1.4121,1.3638,1.3746,1.4334,1.3917,1.3948,1.434,1.4525,1.4723,1.5009,1.4854,1.5002,1.5286,1.5106,1.5186,0.0,0.0,0.0,0.0,0.0,1.541,1.541,0.0,0.0,0.0,0.0,0.0,0.0,0.0,0.0,0.0,0.0,0.0,1.877,1.9459,2.0091,2.0754,2.1535,2.2027,2.2324,0.0,0.0,0.0,2.2615,2.2615,0.0,0.0,0.0,0.0,0.0,0.0,0.0,0.0,0.0,0.0,0.0,0.0,0.0,2.061,2.0709,2.0709,2.061,2.066,2.0055,1.9093,1.9093,1.904,1.8987,1.8987,1.8987,1.8987,1.8987,0.0,0.0,0.0,0.0,0.0,0.0,0.0,0.0,0.0,0.0,0.0,0.0,0.0,0.0,0.0,0.0,0.0,0.0,0.0,0.0,0.0,0.0,0.0,0.0,1.364,1.3511,1.3511,1.389,1.4079,1.383,1.4139,1.4327,1.4207,1.3992,1.3832,1.3832,1.357,1.3534,1.3725,0.0,0.0,0.0,0.0,1.368,1.5046,1.3997,1.3943,1.4824,1.4603,1.4731,1.5077,1.5551,1.5798,1.5914,1.5856,1.5662,1.541,1.5352,1.5352,1.5352,1.541,1.541,1.541,1.5362,1.5362,1.5362,0.0,0.0,0.0,0.0,0.0,0.0,0.0,0.0,0.0,1.8595,1.8634,1.9098,2.0315,2.0542,2.1112,2.2298,2.2452,2.2509,0.0,0.0,2.2749,0.0,0.0,0.0,0.0,0.0,0.0,0.0,0.0,0.0,0.0,0.0,0.0,0.0,0.0,0.0,2.066,2.1541,2.1396,2.066,2.1068,2.061,1.9656,1.9656,1.9396,1.8987,1.8987,1.8987,1.8987,1.8987,1.8987,1.8827,1.7699,0.0,0.0,0.0,0.0,0.0,0.0,0.0,0.0,0.0,0.0,0.0,0.0,0.0,0.0,0.0,0.0,0.0,0.0,0.0,0.0,1.383,1.364,1.3511,1.3511,1.3511,1.3511,1.3571,1.364,1.37,1.364,1.3631,1.3579,1.3579,1.3992,1.424,1.4132,1.4531,1.4754,1.4763,1.4589,1.483,1.5538,1.4946,1.4763,1.5099,0.0,0.0,1.4974,1.5565,1.5856,1.5856,1.5604,1.5478,1.5352,1.5196,1.5088,1.5088,1.5303,1.541,1.541,1.5254,1.5264,1.5205,0.0,0.0,0.0,0.0,0.0,0.0,0.0,0.0,0.0,0.0,1.8863,1.9413,2.0444,2.0869,2.1467,2.2438,2.2555,0.0,0.0,2.2735,0.0,0.0,0.0,0.0,0.0,0.0,0.0,0.0,0.0,0.0,0.0,0.0,0.0,0.0,0.0,0.0,0.0,2.2077,2.1935,2.1444,2.1698,2.1299,2.056,2.0003,1.9656,1.9344,1.8999,1.8946,1.8999,1.8827,1.8667,1.8333,1.7655,1.7101,1.6549,0.0,0.0,0.0,0.0,0.0,0.0,0.0,0.0,0.0,0.0,0.0,0.0,0.0,0.0,1.4181,0.0,0.0,1.358,1.3407,1.3155,1.3025,1.3025,1.2964,1.2972,1.3216,1.339,1.339,1.3155,1.3329,1.345,1.326,1.3554,1.3923,1.43,1.4478,1.4775,1.5371,1.4951,1.5069,1.5798,1.5303,1.5245,1.5546,1.5546,1.5478,1.5294,1.5546,1.5614,1.5566,1.5371,1.5254,1.5196,1.5088,1.497,1.5029,1.5137,1.5196,1.5196,1.5088,1.5098,1.5098,0.0,0.0,0.0,0.0,0.0,0.0,0.0,0.0,0.0,0.0,0.0,1.9584,2.0387,2.101,2.1636,0.0,0.0,0.0,0.0,2.2826,0.0,0.0,0.0,0.0,0.0,0.0,0.0,0.0,0.0,0.0,0.0,0.0,0.0,0.0,0.0,0.0,2.237,2.237,2.2324,2.2184,2.2184,2.1949,2.1458,2.0359,1.9901,1.9747,1.9198,1.8999,1.8934,1.8721,1.829,1.7854,1.7611,1.6832,1.5999,1.5768,1.5371,0.0,0.0,0.0,0.0,0.0,0.0,0.0,0.0,0.0,1.4172,1.395,1.383,1.3709,1.3649,1.3398,1.3155,1.292,1.2613,1.2421,1.2421,1.2359,1.2428,1.2674,1.3094,1.3147,1.2805,1.3094,1.326,1.313,1.3191,1.3614,1.4588,1.4359,1.4725,1.5856,1.5069,1.501,1.5856,1.542,1.5303,1.5556,1.5614,1.5498,1.5371,1.5362,1.5254,1.5156,1.5088,1.5029,1.4921,1.4911,1.4911,1.4862,1.4852,1.4852,1.4793,1.4911,1.4911,1.4911,0.0,0.0,0.0,0.0,0.0,0.0,0.0,0.0,0.0,0.0,0.0,0.0,0.0,0.0,0.0,0.0,0.0,0.0,0.0,2.3157,0.0,0.0,0.0,0.0,0.0,0.0,0.0,0.0,0.0,0.0,0.0,0.0,0.0,0.0,0.0,0.0,2.2231,2.2231,2.2231,2.2184,2.2184,2.2184,2.1983,2.0908,2.0207,1.9798,1.9708,1.9396,1.8999,1.8839,1.841,1.7788,1.7112,1.6436,1.5816,1.5254,0.0,1.497,1.497,1.4843,1.4647,1.4588,1.4419,1.413,0.0,0.0,1.3329,1.3042,1.2928,1.2928,1.2928,1.2867,1.2736,1.2428,1.2367,1.2243,1.2112,1.1864,1.1685,1.1747,1.2236,1.2605,1.2552,1.2605,1.285,1.3381,1.3855,1.4382,1.505,1.5488,1.574,1.5914,1.542,1.5303,1.574,1.5264,1.4834,1.4392,1.4961,1.4911,1.4189,1.4784,1.5029,1.5029,1.4834,1.4666,1.4565,1.4547,1.4488,1.4387,1.4318,1.4189,1.413,1.4597,1.4656,1.4538,0.0,0.0,0.0,0.0,0.0,0.0,0.0,0.0,0.0,0.0,0.0,0.0,0.0,0.0,0.0,0.0,0.0,0.0,2.2963,2.3187,2.3275,0.0,0.0,0.0,0.0,0.0,0.0,0.0,0.0,0.0,0.0,0.0,0.0,0.0,0.0,2.2583,2.2417,2.237,2.2278,2.2184,2.1841,2.1949,2.2077,2.1188,2.0547,2.008,1.9331,1.8987,0.0,0.0,1.7788,1.7,1.6652,1.5911,1.5118,1.4734,1.4675,0.0,1.424,1.4052,1.3923,0.0,1.3563,1.345,1.3094,1.3033,1.292,1.2552,1.249,1.249,1.2367,1.2182,1.2058,0.0,1.1553,1.1233,1.1303,1.0919,1.073,1.0807,1.0975,1.1156,1.1483,1.1677,1.1864,1.1911,1.2458,1.313,1.3906,1.4469,1.4961,1.5391,1.5196,1.5137,1.5264,1.5088,1.4843,1.4519,1.4715,1.4547,1.413,1.4309,1.4428,1.4428,1.4437,1.4378,1.4198,1.4189,1.4189,1.4139,1.407,1.401,1.395,1.4181,1.424,1.4181,0.0,0.0,0.0,0.0,0.0,0.0,0.0,0.0,0.0,0.0,0.0,0.0,0.0,0.0,0.0,0.0,0.0,0.0,0.0,2.326,2.3363,2.3246,0.0,0.0,0.0,0.0,0.0,0.0,0.0,0.0,0.0,0.0,0.0,0.0,2.2735,2.2629,2.2463,2.237,2.2278,2.2137,2.1616,2.1602,2.1827,2.0993,2.0434,2.0016,1.9267,1.8827,0.0,0.0,1.7168,1.6255,1.6016,1.5216,1.435,1.413,1.4061,1.3983,1.3502,0.0,0.0,1.2895,1.2773,1.265,1.249,1.2498,1.2367,1.1988,1.1864,1.174,1.1545,1.1358,1.1108,1.085,1.0345,1.0028,1.0028,0.9697,0.9512,0.9786,0.9646,0.9703,1.0034,1.0604,1.0982,1.0982,1.1608,1.2282,1.3061,1.3692,1.4189,1.4734,1.4606,1.4606,1.4675,1.4675,1.4606,1.4538,1.4419,1.424,1.4001,1.3881,1.3881,1.3881,1.4139,1.4079,1.3881,1.3821,1.3769,1.3649,1.3709,1.3649,1.3588,1.3709,1.383,1.395,0.0,0.0,0.0,0.0,0.0,0.0,0.0,0.0,0.0,0.0,0.0,0.0,0.0,0.0,0.0,0.0,0.0,0.0,0.0,2.3566,2.3595,2.361,2.3538,2.3509,0.0,0.0,0.0,0.0,0.0,0.0,0.0,0.0,0.0,2.2615,2.2463,2.2324,2.2231,2.2231,2.2184,2.2137,2.1616,2.1348,2.114,2.0194,1.9695,1.9475,1.9837,0.0,0.0,0.0,1.6585,1.5728,1.5138,1.4332,0.0,1.3511,1.3321,0.0,0.0,0.0,1.2544,1.2544,1.2297,1.1988,1.1685,1.1622,1.1498,1.0926,1.0674,1.0485,1.0364,1.0161,0.9761,0.893,0.8801,0.8608,0.8156,0.8091,0.8156,0.8484,0.8549,0.849,0.0,0.932,1.0458,1.1392,1.195,1.2626,1.3468,1.3803,1.401,1.401,1.37,1.364,1.383,1.383,1.389,1.401,1.401,1.3821,1.3511,1.3511,1.3511,1.3511,1.3881,1.3821,1.3511,1.339,1.3155,1.2867,1.2989,1.305,1.305,1.305,1.3346,1.383,0.0,0.0,0.0,0.0,0.0,0.0,0.0,0.0,0.0,0.0,0.0,0.0,0.0,0.0,0.0,0.0,0.0,0.0,0.0,2.3566,2.3566,2.3538,2.3566,2.3538,2.3509,0.0,0.0,0.0,0.0,0.0,0.0,0.0,0.0,2.2797,2.2735,2.2385,2.1949,2.2231,2.2091,2.1664,2.1471,2.1299,2.114,2.0245,1.9527,1.8874,0.0,0.0,0.0,0.0,1.5948,1.5206,1.4483,0.0,0.0,1.3033,1.272,1.2343,1.2228,0.0,1.1872,1.1622,1.1373,1.1178,1.0926,1.0807,1.0555,0.9913,0.9448,0.9262,0.9526,0.9121,0.8857,0.9167,0.8057,0.7093,0.6954,0.6846,0.6859,0.7051,0.692,0.0,0.0,0.0,0.0,0.9958,1.0647,1.1399,1.2343,1.2895,1.326,1.3321,1.326,1.3139,1.3147,1.3147,1.3025,1.285,1.285,1.285,1.285,1.2972,1.2972,1.285,1.3103,1.3042,1.2842,1.2789,1.2728,1.2613,1.2674,1.2674,1.2674,1.2674,1.2797,1.2911,0.0,0.0,0.0,0.0,0.0,0.0,0.0,0.0,0.0,0.0,0.0,0.0,0.0,0.0,0.0,0.0,0.0,0.0,0.0,0.0,2.3711,2.3683,2.3711,2.3711,2.3683,2.3653,0.0,0.0,0.0,0.0,0.0,0.0,2.2873,2.2828,2.2721,2.2385,2.1949,2.1996,2.1793,2.1361,2.0795,2.0471,2.0307,1.9503,1.8727,0.0,0.0,0.0,0.0,0.0,1.4963,1.4323,1.3545,1.2887,1.2343,1.2174,1.174,1.1358,1.1365,1.1178,1.0926,1.0674,1.0421,1.0098,0.9767,0.9646,0.9396,0.8608,0.821,0.7952,0.7577,0.712,0.6724,0.6523,0.5508,0.4707,0.4769,0.4653,0.4866,0.5675,0.5543,0.5477,0.0,0.0,0.0,0.8215,0.9105,0.9933,1.064,1.1516,1.2012,1.2074,1.2081,1.2151,1.2158,1.2282,1.229,1.2182,1.212,1.2112,1.2174,1.2305,1.2305,1.2182,1.2428,1.2367,1.2174,1.2174,1.2112,1.1988,1.2112,1.2174,1.2174,1.2174,1.2174,1.2236,0.0,0.0,0.0,0.0,0.0,0.0,0.0,0.0,0.0,0.0,0.0,0.0,0.0,0.0,0.0,0.0,0.0,0.0,0.0,0.0,0.0,2.3982,2.3982,2.3982,2.3982,2.3882,2.3797,0.0,0.0,0.0,0.0,2.3083,2.2799,2.2649,2.2449,2.2263,2.2077,2.1554,2.1313,2.1166,1.9709,1.9032,1.8797,1.8027,0.0,0.0,0.0,0.0,0.0,0.0,0.0,0.0,0.0,1.1802,1.1185,1.0863,1.0555,1.0301,1.0358,1.0098,0.9709,0.9703,0.9262,0.8748,0.821,0.8215,0.8091,0.6967,0.6841,0.6433,0.4686,0.0,0.3447,0.1257,0.1259,0.1596,0.1798,0.1866,0.2603,0.0,0.0,0.0,0.0,0.0,0.0,0.6183,0.0,0.8372,0.8645,0.9806,1.0388,1.0451,1.0471,1.0611,1.0919,1.131,1.1622,1.1926,1.1677,1.156,1.156,1.156,1.156,1.156,1.1802,1.1802,1.156,1.156,1.1373,1.1122,1.1435,1.156,1.156,1.156,1.156,1.1685,0.0,0.0,0.0,0.0,0.0,0.0,0.0,0.0,0.0,0.0,0.0,0.0,0.0,0.0,0.0,0.0,0.0,0.0,0.0,0.0,0.0,0.0,0.0,0.0,0.0,0.0,0.0,0.0,0.0,0.0,0.0,2.274,2.2526,0.0,2.1766,2.1224,2.0733,2.0683,2.0383,1.9927,0.0,1.9386,1.8584,0.0,0.0,0.0,0.0,0.0,0.0,0.0,0.0,0.0,0.0,1.0996,1.0555,1.0428,1.0104,0.9652,0.9256,0.9,0.8672,0.8006,0.7618,0.7363,0.6967,0.6776,0.6244,0.471,0.4114,0.3517,0.2389,0.0,0.0,-0.1872,-0.0668,0.0,0.0468,0.1674,0.0,0.3153,0.0,0.2551,0.3019,0.3696,0.0,0.0,0.5515,0.6885,0.8495,0.8935,0.9314,0.9767,0.9773,0.9837,1.0091,1.0231,1.0428,1.0737,1.0681,1.0681,1.0877,1.0877,1.0877,1.087,1.1052,1.0996,1.087,1.0933,1.0926,1.087,1.0996,1.1122,1.1247,1.1247,1.1247,1.1247,0.0,0.0,0.0,0.0,0.0,0.0,0.0,0.0,0.0,0.0,0.0,0.0,0.0,0.0,0.0,0.0,0.0,0.0,0.0,0.0,0.0,0.0,0.0,0.0,0.0,0.0,0.0,0.0,0.0,0.0,0.0,2.2558,2.2021,2.1293,2.1126,2.0508,1.9608,0.0,0.0,0.0,0.0,0.0,0.0,0.0,0.0,0.0,0.0,0.0,0.0,0.0,0.0,1.0933,1.0681,1.0295,0.9913,0.9728,0.0,0.8613,0.8226,0.7772,0.7312,0.6846,0.6453,0.6125,0.587,0.5196,0.4188,0.2526,0.1795,0.0,0.0133,-0.1136,0.0,0.0,0.0,0.0,-0.0671,0.0,0.0737,0.0,0.1144,0.0,0.2214,0.323,0.384,0.0,0.4746,0.5796,0.6933,0.7442,0.7897,0.8291,0.8415,0.8737,0.932,0.9402,0.9536,0.9728,0.9728,0.9792,0.9919,1.004,1.0104,1.0104,0.0,1.0168,1.0104,1.0301,1.0371,1.0364,1.0428,1.0491,1.0618,1.0618,1.0618,1.0555,0.0,0.0,0.0,0.0,0.0,0.0,0.0,0.0,0.0,0.0,0.0,0.0,0.0,0.0,0.0,0.0,0.0,0.0,0.0,0.0,0.0,0.0,0.0,0.0,0.0,0.0,0.0,0.0,0.0,0.0,0.0,0.0,0.0,0.0,0.0,0.0,0.0,0.0,0.0,0.0,0.0,0.0,0.0,0.0,0.0,0.0,0.0,0.0,0.0,0.0,1.0787,1.0434,1.0047,0.9652,0.9198,0.8759,0.8107,0.7447,0.7186,0.6531,0.5877,0.5811,0.5276,0.4677,0.4422,0.3338,0.193,0.0267,0.0,-0.0733,-0.2136,-0.2541,-0.2811,-0.3222,0.0,-0.3485,-0.1882,-0.2014,-0.1747,-0.0404,-0.0067,0.0538,0.1812,0.2894,0.3574,0.377,0.4428,0.4821,0.5024,0.5807,0.6334,0.6605,0.6924,0.7572,0.8479,0.8683,0.8823,0.8823,0.8823,0.8888,0.8888,0.9198,0.939,0.939,0.9454,0.9454,0.946,0.9664,0.9734,0.9734,0.9856,0.9919,0.9983,0.9983,0.9989,0.9919,0.0,0.0,0.0,0.0,0.0,0.0,0.0,0.0,0.0,0.0,0.0,0.0,0.0,0.0,0.0,0.0,0.0,0.0,0.0,0.0,0.0,0.0,0.0,0.0,0.0,0.0,0.0,0.0,0.0,0.0,0.0,0.0,0.0,0.0,0.0,0.0,0.0,0.0,0.0,0.0,0.0,0.0,0.0,0.0,0.0,0.0,0.0,0.0,0.0,0.0,0.9594,1.0047,0.9716,0.9,0.8221,0.7967,0.7316,0.6465,0.5679,0.5147,0.468,0.4161,0.2948,0.174,0.1272,0.0467,0.0,0.0,-0.2136,-0.2403,-0.4541,-0.4414,-0.4217,-0.4891,0.0,0.0,0.0,0.0,-0.1614,0.0,0.0,0.0,0.0,0.0,0.0,0.0,0.0,0.3556,0.4637,0.5093,0.5547,0.6005,0.6535,0.6929,0.7181,0.7582,0.7842,0.7902,0.8112,0.8182,0.8177,0.8495,0.8683,0.8683,0.9139,0.0,0.9081,0.9274,0.9402,0.9402,0.9402,0.96,0.9862,0.9862,0.9926,0.9983,0.0,0.0,0.0,0.0,0.0,0.0,0.0,0.0,0.0,0.0,1.8669,1.8988,0.0,0.0,0.0,0.0,0.0,0.0,0.0,0.0,0.0,0.0,0.0,0.0,0.0,0.0,0.0,0.0,0.0,0.0,0.0,0.0,0.0,0.0,0.0,0.0,0.0,0.0,0.0,0.0,0.0,0.0,0.0,0.0,0.0,0.0,0.0,0.0,0.0,0.0,0.8533,0.8641,0.8683,0.8086,0.7312,0.7068,0.6067,0.4866,0.4146,0.3141,0.2339,0.2616,0.1676,0.067,0.0738,0.0,0.0,0.0,-0.3549,-0.3813,-0.5209,0.0,0.0,0.0,0.0,0.0,0.0,0.0,0.0,0.0,0.0,0.0,0.0,0.0,0.0,0.0,0.0,0.3291,0.4164,0.4428,0.4688,0.5087,0.5679,0.6071,0.6207,0.6601,0.6597,0.6322,0.6929,0.6999,0.6789,0.7517,0.7977,0.8236,0.8301,0.0,0.8501,0.8501,0.8301,0.8096,0.8231,0.8226,0.8221,0.8683,0.8877,0.8941,0.0,0.0,0.0,0.0,0.0,0.0,0.0,1.7922,1.8095,1.772,1.8108,1.8577,1.8898,1.8898,0.0,0.0,0.0,0.0,0.0,0.0,0.0,0.0,0.0,0.0,0.0,0.0,0.0,0.0,0.0,0.0,0.0,0.0,0.0,0.0,0.0,0.0,0.0,0.0,0.0,0.0,0.0,0.0,0.0,0.0,0.0,0.0,0.0,0.0,0.0,0.0,0.6889,0.6276,0.6706,0.6441,0.5994,0.5617,0.4408,0.3004,0.2474,0.1272,0.0268,0.0803,0.0268,-0.0402,-0.0402,-0.1205,0.0,0.0,-0.4758,-0.4885,-0.5345,0.0,0.0,0.0,0.0,0.0,0.0,0.0,0.0,0.0,0.0,0.0,0.0,0.0,0.0,0.0,0.0,0.0,0.3689,0.3825,0.3894,0.403,0.4686,0.5147,0.5352,0.5683,0.5609,0.514,0.5815,0.5881,0.5401,0.6334,0.6994,0.7451,0.7256,0.0,0.0,0.7596,0.7265,0.6863,0.6994,0.6854,0.6584,0.7302,0.7632,0.7632,0.0,0.0,0.0,0.0,0.0,0.0,0.0,1.7282,1.7323,1.7282,1.7323,1.7625,1.838,1.8846,0.0,0.0,0.0,0.0,0.0,0.0,0.0,0.0,0.0,0.0,0.0,0.0,0.0,0.0,0.0,0.0,0.0,0.0,0.0,0.0,0.0,0.0,0.0,0.0,0.0,0.0,0.0,0.0,0.0,0.0,0.0,0.0,0.0,0.0,0.0,0.0,0.0,0.2471,0.2799,0.3334,0.3739,0.3002,0.0,0.0,0.067,0.0134,-0.0469,-0.1471,-0.2342,-0.3282,-0.4767,0.0,0.0,-0.5881,-0.5613,-0.5345,-0.5752,-0.5881,0.0,0.0,0.0,0.0,0.0,0.0,0.0,0.0,0.0,0.0,0.0,0.0,0.0,0.0,0.0,0.0,0.3487,0.3357,0.3293,0.3293,0.3825,0.4228,0.4431,0.4764,0.4957,0.5087,0.5359,0.5219,0.4677,0.514,0.5467,0.5862,0.6125,0.0,0.0,0.7003,0.6741,0.6675,0.6203,0.6063,0.6125,0.6252,0.6379,0.6576,0.0,0.0,0.0,0.0,0.0,0.0,0.0,1.6035,1.6271,1.6299,1.6663,1.713,1.7786,1.804,1.8486,0.0,0.0,0.0,0.0,0.0,0.0,0.0,0.0,0.0,0.0,0.0,0.0,0.0,0.0,0.0,0.0,0.0,0.0,0.0,0.0,0.0,0.0,0.0,0.0,0.0,0.0,0.0,0.0,0.0,0.0,0.0,0.0,0.0,0.0,0.0,0.0,0.0,-0.0335,-0.0602,0.0,0.0,0.0536,-0.0134,-0.1276,-0.1945,-0.241,-0.3019,-0.3553,-0.402,-0.4703,0.0,-0.4683,-0.5147,-0.5345,-0.5613,-0.6086,-0.6478,-0.6671,0.0,0.0,0.0,0.0,0.0,0.0,0.0,0.0,0.0,0.0,0.0,0.0,0.0,0.0,0.0,0.3493,0.2958,0.2824,0.3355,0.3424,0.3493,0.3629,0.4095,0.4228,0.3959,0.4625,0.4688,0.4281,0.4815,0.5143,0.5269,0.5203,0.0,0.0,0.5342,0.5282,0.5216,0.4815,0.4683,0.468,0.4674,0.4866,0.5196,0.0,0.0,0.0,0.0,0.0,0.0,1.3891,1.4389,1.4681,1.4281,1.5274,1.614,1.6525,1.6833,1.7557,1.8831,0.0,0.0,0.0,0.0,0.0,0.0,0.0,0.0,0.0,0.0,0.0,0.0,0.0,0.0,0.0,0.0,0.0,0.0,0.0,0.0,0.0,0.0,0.0,0.0,0.0,0.0,0.0,0.0,0.0,0.0,0.0,0.0,0.0,0.0,0.0,0.0,0.0,0.0,0.0,0.0,-0.1074,-0.1609,-0.2891,-0.3426,-0.3758,-0.4233,-0.4495,-0.4688,0.0,0.0,-0.4613,-0.5143,-0.5547,-0.5951,-0.635,-0.6872,-0.7265,0.0,0.0,0.0,0.0,0.0,0.0,0.0,0.0,0.0,0.0,0.0,0.0,0.0,0.0,0.0,0.3293,0.2555,0.242,0.3153,0.309,0.309,0.3291,0.3558,0.356,0.3226,0.3959,0.4156,0.3754,0.422,0.455,0.4677,0.3875,0.0,0.0,0.3882,0.3887,0.3818,0.3489,0.3357,0.3288,0.3284,0.3416,0.3744,0.0,0.0,0.0,0.0,0.0,0.0,0.0,1.231,1.2488,1.1031,1.2894,1.4341,1.4334,1.5327,1.6506,1.7693,0.0,0.0,0.0,0.0,0.0,0.0,0.0,0.0,0.0,0.0,0.0,0.0,0.0,0.0,0.0,0.0,0.0,0.0,0.0,0.0,0.0,0.0,0.0,0.0,0.0,0.0,0.0,0.0,0.0,0.0,0.0,0.0,0.0,0.0,0.0,0.0,0.0,0.0,0.0,0.0,-0.3092,-0.3293,-0.3828,-0.3961,-0.4228,-0.5163,-0.5362,-0.5561,0.0,0.0,-0.5815,-0.6679,-0.6618,-0.642,-0.642,-0.7003,-0.7326,-0.6806,0.0,0.0,0.0,0.0,0.0,0.0,0.0,0.0,0.0,0.0,0.0,0.0,0.0,0.0,0.2744,0.2216,0.2084,0.2484,0.282,0.3157,0.3487,0.3157,0.3092,0.3226,0.3625,0.3625,0.3226,0.3023,0.3291,0.3825,0.0,0.0,0.0,0.2883,0.2885,0.288,0.242,0.2221,0.2221,0.2221,0.2221,0.2221,0.0,0.0,0.0,0.0,0.0,0.0,0.0,1.0468,1.0393,1.0275,1.1582,1.2381,1.1969,1.3673,1.4797,1.4735,0.0,0.0,0.0,0.0,0.0,0.0,0.0,0.0,0.0,0.0,0.0,0.0,0.0,0.0,0.0,0.0,0.0,0.0,0.0,0.0,0.0,0.0,0.0,0.0,0.0,0.0,0.0,0.0,0.0,0.0,0.0,0.0,0.0,0.0,0.0,0.0,0.0,0.0,0.0,0.0,0.0,0.0,-0.409,-0.4292,-0.4561,-0.5226,-0.5561,-0.5826,-0.6288,0.0,-0.6218,-0.6486,-0.635,-0.628,-0.6544,-0.6806,-0.7003,-0.7003,-0.7199,0.0,0.0,0.0,0.0,0.0,0.0,0.0,0.0,0.0,0.0,0.0,0.0,0.0,0.3842,0.3842,0.3634,0.3017,0.2887,0.2619,0.2217,0.2822,0.2956,0.2686,0.309,0.3226,0.3226,0.3424,0.3491,0.0,0.0,0.0,0.0,0.188,0.1678,0.1675,0.1882,0.2084,0.2284,0.168,0.1614,0.1817,0.0,0.0,0.0,0.0,0.0,0.0,0.0,0.8694,0.8634,0.8406,0.9776,1.0502,0.9883,1.1529,1.2589,1.2364,0.0,0.0,0.0,0.0,0.0,0.0,0.0,0.0,0.0,0.0,0.0,0.0,0.0,0.0,0.0,0.0,0.0,0.0,0.0,0.0,0.0,0.0,0.0,0.0,0.0,0.0,0.2609,0.0,0.0,0.0,0.0,0.0,0.0,0.0,0.0,0.0,0.0,0.0,0.0,0.0,-0.4489,0.0,0.0,-0.4824,-0.5027,-0.5557,-0.5888,0.0,0.0,0.0,-0.6218,-0.6354,-0.6284,-0.6346,-0.6609,-0.6872,-0.7134,-0.7466,-0.7526,0.0,0.0,0.0,0.0,0.0,0.0,0.0,0.0,0.0,0.0,0.0,0.0,0.0,0.2678,0.5708,0.6055,0.2743,0.2684,0.2418,0.1814,0.215,0.215,0.1813,0.215,0.2418,0.2619,0.3293,0.3295,0.0,0.0,0.0,0.0,0.0808,0.074,0.0873,0.1346,0.1682,0.1816,0.1278,0.1212,0.1414,0.0,0.0,0.0,0.0,0.0,0.0,0.0,0.0,0.0,0.0,0.7862,0.9046,0.8369,0.9429,1.033,0.0,0.0,0.0,0.0,0.0,0.0,0.0,0.0,0.0,0.0,0.0,0.0,0.0,0.8342,0.7762,0.8342,0.0,0.0,0.0,0.0,0.0,0.0,0.2631,0.1931,0.1536,0.0959,0.0714,0.0,0.0,0.0,0.0,0.0,0.0,0.0,0.0,0.0,0.0,0.0,0.0,0.0,0.0,0.0,0.0,0.0,0.0,0.0,0.0,0.0,0.0,0.0,0.0,0.0,-0.6416,-0.6482,-0.6482,-0.6741,-0.7195,-0.7657,-0.7982,0.0,0.0,0.0,0.0,0.0,0.0,0.0,0.0,0.0,0.0,0.0,0.0,0.0,0.0,0.2054,0.774,0.8282,0.2003,0.235,0.2484,0.2013,0.1276,0.0807,0.0672,0.1076,0.1344,0.1542,0.2557,0.2693,0.0,0.0,0.0,0.0,-0.0135,0.0067,0.0404,0.0809,0.1012,0.1079,0.1079,0.1079,0.1079,0.0,0.0,0.0,0.0,0.0,0.0,0.0,0.0,0.0,0.0,0.0,0.9853,0.9193,1.0961,0.0,0.0,0.0,0.0,0.0,0.0,0.0,0.0,0.0,0.0,0.0,0.0,0.0,0.8239,0.7404,0.6973,0.6968,0.5983,0.0,0.0,0.0,0.0,0.2026,0.1472,0.1046,0.0744,0.0,-0.0125,0.0,0.0,0.0,0.0,-0.2591,-0.3215,0.0,0.0,0.0,0.0,0.0,0.0,0.0,0.0,-0.7111,-0.7442,-0.7707,0.0,-0.5822,-0.6148,-0.621,0.0,0.0,0.0,0.0,0.0,0.0,0.0,0.0,0.0,0.0,0.0,0.0,0.0,0.0,0.0,0.0,0.0,0.0,0.0,0.0,0.0,0.0,0.0,0.0,0.5894,2.2497,1.029,0.2506,0.1817,0.2087,0.1951,0.1347,0.1814,0.1141,-0.0672,0.0403,0.0739,0.0403,0.0872,0.1476,0.0,0.0,0.0,0.0403,-0.0471,-0.0607,-0.0202,-0.0067,0.0202,0.0539,0.0539,0.0607,0.0674,0.0,0.0,0.0,0.0,0.0,0.0,0.0,0.0,0.0,0.0,0.0,0.0,0.0,0.0,0.0,0.0,0.0,0.0,0.0,0.0,0.0,0.0,0.0,0.0,0.0,0.0,0.0,0.0,0.0,0.5927,0.0,0.0,0.0,0.0,0.0,0.0928,0.0295,-0.0059,-0.0356,-0.0541,-0.1384,0.0,0.0,0.0,0.0,0.0,-0.3714,-0.4341,0.0,-0.52,-0.5939,-0.6588,0.0,0.0,0.0,0.0,-0.7962,-0.8291,-0.8425,-0.7842,-0.706,-0.7055,-0.7055,-0.6994,0.0,0.0,0.0,0.0,0.0,0.0,0.0,0.0,0.0,0.0,0.0,0.0,0.0,0.0,0.0,0.0,0.0,0.0,0.0,0.0,0.0,0.0,0.0,0.3668,1.4072,0.788,0.282,0.0201,0.1412,0.1481,0.0135,0.1075,0.0604,-0.1412,-0.0874,-0.0739,-0.1008,-0.0134,0.047,0.0,0.0,0.0,-0.0201,-0.0808,-0.0944,-0.0742,-0.0742,-0.0539,-0.027,-0.0067,0.0,0.0135,0.0,0.0,0.0,0.0,0.0,0.0,0.0,0.0,0.0,0.0,0.0,0.0,0.0,0.0,0.0,0.0,0.0,0.0,0.0,0.0,0.0,0.0,0.0,0.0,0.0,0.0,0.0,0.0,0.0,0.0,0.0,0.0,0.0,0.0,0.0,-0.056,-0.1121,-0.1511,-0.1705,-0.1865,-0.2739,0.0,0.0,0.0,0.0,0.0,0.0,0.0,0.0,-0.6173,-0.6876,-0.7648,-0.7822,0.0,0.0,0.0,0.0,0.0,-0.8935,-0.8935,-0.8807,-0.8156,-0.7897,-0.7712,0.0,0.0,0.0,0.0,0.0,0.0,0.0,0.0,0.0,0.0,0.0,0.0,0.0,0.0,0.0,0.0,0.0,0.0,0.0,0.0,0.0,0.0,0.0,0.0388,-0.4185,0.2675,0.3946,-0.2068,-0.0067,0.0201,-0.1613,-0.0739,-0.0807,-0.1817,-0.1951,-0.2153,-0.2287,-0.1008,-0.0604,-0.0873,0.0,0.0,-0.1008,-0.1078,-0.1146,-0.1078,-0.1078,-0.1079,-0.1079,-0.0876,-0.0808,-0.0876,0.0,0.0,0.0,0.0,0.0,0.0,0.0,0.0,0.0,0.0,0.0,0.0,0.0,0.0,0.0,0.0,0.0,0.0,0.0,0.0,0.0,0.0,0.0,0.0,0.0,0.0,0.0,0.0,0.0,0.0,0.1905,0.0504,-0.056,0.0,0.0,-0.1567,-0.2015,-0.2071,-0.2355,-0.2703,-0.2986,0.0,0.0,0.0,0.0,0.0,0.0,0.0,0.0,-0.6991,-0.7684,-0.8459,-0.8734,0.0,0.0,0.0,0.0,0.0,-1.0856,-1.0856,-1.0408,-0.8479,-0.7517,-0.7138,0.0,0.0,0.0,0.0,0.0,0.0,0.0,0.0,0.0,0.0,0.0,0.0,0.0,0.0,0.0,0.0,0.0,0.0,0.0,0.0,0.0,0.0,0.0,-0.3898,-0.4837,-0.3589,-0.3318,-0.43,-0.3699,-0.3565,-0.4169,-0.3782,-0.304,-0.2018,-0.1547,-0.1882,-0.3025,-0.2485,-0.1879,-0.1207,0.0,-0.121,-0.047,-0.1008,-0.1211,-0.1076,-0.1076,-0.1078,-0.1214,-0.1949,-0.2418,-0.2891,0.0,0.0,0.0,0.0,0.0,0.0,0.0,0.0,0.0,0.0,0.0,0.0,0.0,0.0,0.0,0.0,0.0,0.0,0.0,0.0,0.0,0.0,0.0,0.0,0.0,0.0,0.0,0.0,0.0,0.0502,0.056,-0.0952,-0.1793,-0.2018,-0.1959,-0.2071,-0.2352,-0.2573,-0.2852,-0.3188,0.0,0.0,0.0,0.0,0.0,0.0,0.0,0.0,0.0,0.0,-0.8453,-0.9511,-0.9988,0.0,0.0,0.0,0.0,0.0,-1.2336,-1.2143,-1.1633,-1.0368,-0.9436,-0.8812,0.0,0.0,0.0,0.0,0.0,0.0,0.0,0.0,0.0,0.0,0.0,0.0,0.0,0.0,0.0,0.0,0.0,0.0,0.0,0.0,0.0,0.0,0.0,0.0,-0.5239,-0.5432,-0.5432,-0.4967,-0.4761,-0.4697,-0.4709,-0.4456,-0.3574,-0.2083,-0.2353,-0.2893,-0.3775,-0.3228,-0.2686,-0.2214,0.0,-0.2082,-0.1877,-0.2014,-0.2214,-0.2479,-0.2415,-0.2149,-0.1816,-0.2149,-0.2417,-0.2753,0.0,0.0,0.0,0.0,0.0,0.0,0.0,0.0,0.0,0.0,0.0,0.0,0.0,0.0,0.0,0.0,0.0,0.0,0.0,0.0,0.0,0.0,0.0,0.0,0.0,0.0,0.1842,0.184,0.0167,-0.0726,-0.0892,-0.2071,-0.2577,0.0,-0.2464,-0.2631,-0.2854,-0.3241,-0.3466,-0.3635,0.0,0.0,0.0,0.0,0.0,0.0,0.0,0.0,0.0,0.0,0.0,0.0,0.0,0.0,0.0,-1.2862,-1.3191,-1.3304,-1.3304,-1.3105,-1.2785,-1.2435,0.0,0.0,0.0,0.0,0.0,0.0,0.0,0.0,0.0,0.0,0.0,0.0,0.0,-0.8533,-0.7111,-0.6662,-0.6334,-0.6137,-0.6268,0.0,0.0,0.0,0.0,0.0,0.0,0.0,-0.5428,-0.5752,-0.5749,-0.5415,-0.5342,-0.5213,-0.5036,-0.4773,-0.403,-0.2684,-0.3429,-0.4041,-0.4453,-0.3701,-0.336,-0.3357,-0.282,-0.2818,-0.3151,-0.2952,-0.3151,-0.3613,-0.3549,-0.3284,-0.2948,-0.2815,-0.2802,-0.2986,0.0,0.0,0.0,0.0,0.0,0.0,0.0,0.0,0.0,0.0,0.0,0.0,0.0,0.0,0.0,0.0,0.0,0.0,0.0,0.0,0.0,0.0,0.0,0.0,0.0,-0.0839,-0.0616,-0.0614,-0.1898,-0.279,-0.3347,-0.2796,-0.28,-0.3302,-0.3302,-0.3524,-0.391,-0.4242,-0.4298,-0.4249,-0.5285,0.0,0.0,0.0,0.0,0.0,0.0,0.0,0.0,0.0,0.0,0.0,0.0,0.0,-1.2638,-1.3091,-1.3416,-1.3648,-1.3648,-1.3777,-1.3906,-1.3846,-1.2219,0.0,0.0,0.0,0.0,0.0,0.0,0.0,0.0,0.0,0.0,0.0,0.0,0.0,-0.6404,0.0,-0.6071,-0.5286,-0.5939,-0.6141,0.0,0.0,0.0,0.0,0.0,0.0,-0.5428,-0.5428,-0.5686,-0.6268,-0.6141,-0.6009,-0.6013,-0.5877,-0.5352,-0.4506,-0.4303,-0.4498,-0.5024,-0.4159,-0.4025,-0.4425,-0.356,-0.3092,-0.3023,-0.3353,-0.3351,-0.3282,-0.3547,-0.4079,-0.4613,-0.4613,-0.4869,-0.5152,0.0,0.0,0.0,0.0,0.0,0.0,0.0,0.0,0.0,0.0,0.0,0.0,0.0,0.0,0.0,0.0,0.0,0.0,0.0,0.0,0.0,0.0,0.0,-0.0672,-0.0335,-0.1064,-0.1289,-0.0894,-0.2347,-0.3411,-0.3965,-0.3962,0.0,0.0,-0.4992,-0.532,-0.5647,-0.5756,-0.5764,-0.5719,-0.6204,-0.6578,0.0,0.0,0.0,0.0,0.0,0.0,0.0,0.0,-0.9828,-1.0709,0.0,-1.2626,-1.3535,-1.4468,-1.4815,-1.4932,-1.5059,-1.5118,-1.5118,-1.4815,0.0,0.0,0.0,0.0,0.0,0.0,0.0,0.0,0.0,0.0,0.0,0.0,0.0,-0.6985,-0.64,-0.6009,-0.5686,-0.5359,-0.5554,-0.5686,-0.5428,-0.562,0.0,0.0,0.0,0.0,-0.5428,-0.5815,-0.6141,-0.6396,-0.6728,-0.6929,-0.6929,-0.6789,-0.6527,-0.6207,-0.516,-0.47,-0.4834,-0.4827,-0.4824,-0.4891,-0.4619,-0.4752,-0.5087,-0.5014,-0.5209,-0.5477,-0.4875,-0.5071,-0.5536,-0.5011,-0.5173,-0.5697,0.0,0.0,0.0,0.0,0.0,0.0,0.0,0.0,0.0,0.0,0.0,0.0,0.0,0.0,0.0,0.0,0.0,0.0,0.0,0.0,0.0,0.0,0.0,-0.2699,-0.0782,-0.1847,-0.2184,-0.162,-0.2903,-0.4018,-0.4901,0.0,0.0,0.0,-0.6293,-0.6617,-0.6676,-0.6886,-0.6891,-0.6848,-0.7224,-0.7605,0.0,0.0,0.0,0.0,0.0,0.0,0.0,0.0,-0.9963,0.0,0.0,0.0,0.0,0.0,-1.5678,-1.5846,-1.5961,-1.6029,-1.5972,0.0,0.0,0.0,0.0,0.0,0.0,0.0,0.0,0.0,0.0,0.0,0.0,0.0,-0.867,-0.7414,-0.7782,-0.6889,-0.6441,-0.7075,-0.6633,-0.6252,-0.6252,-0.6252,-0.5997,-0.5425,-0.5428,-0.5428,-0.5428,-0.5815,-0.6207,-0.6396,-0.6859,-0.7186,-0.7386,-0.7316,-0.7246,-0.7246,-0.6141,-0.5491,-0.5299,-0.5229,-0.5292,-0.5418,-0.5348,-0.5683,-0.6218,-0.6079,-0.6408,-0.6815,-0.6075,-0.6005,-0.6264,-0.5606,-0.5767,-0.6282,0.0,0.0,0.0,0.0,0.0,0.0,0.0,0.0,0.0,0.0,0.0,0.0,0.0,0.0,0.0,0.0,0.0,0.0,0.0,0.0,0.0,0.0,0.0,-0.3607,-0.3599,-0.3816,-0.3641,-0.313,-0.3846,-0.4941,-0.6411,-0.614,0.0,0.0,-0.7154,-0.716,-0.6848,-0.7481,-0.7581,-0.7422,-0.8243,-0.8626,-0.8679,0.0,0.0,0.0,0.0,0.0,0.0,0.0,-1.0115,-1.1133,0.0,0.0,0.0,-1.5064,-1.5608,-1.6114,-1.6114,-1.6249,-1.6384,0.0,0.0,0.0,0.0,0.0,0.0,0.0,0.0,0.0,0.0,0.0,0.0,-1.0877,-0.9963,-0.9605,-1.0746,-0.931,-0.8811,-1.0684,-0.9247,-0.8122,-0.8122,-0.8042,-0.7297,-0.555,-0.5352,-0.5348,-0.5428,-0.5428,-0.5752,-0.64,-0.64,-0.6728,-0.7386,-0.7386,-0.7386,-0.7386,-0.7386,-0.7129,-0.6675,-0.5422,-0.5289,-0.6075,-0.5624,-0.5624,-0.5954,-0.6284,-0.6613,-0.6946,-0.6881,-0.6881,-0.6881,-0.6741,-0.6939,-0.7202,0.0,0.0,0.0,0.0,0.0,0.0,0.0,0.0,0.0,0.0,0.0,0.0,0.0,0.0,0.0,0.0,0.0,0.0,0.0,0.0,0.0,0.0,0.0,0.0,0.0,0.0,-0.4515,-0.4346,-0.4508,-0.516,0.0,0.0,0.0,-0.7906,0.0,0.0,0.0,-0.9033,-0.9086,-0.8967,-0.9309,-0.9427,-0.948,0.0,0.0,0.0,0.0,0.0,0.0,0.0,0.0,0.0,0.0,0.0,0.0,-1.5471,-1.5955,-1.6114,-1.6249,-1.6374,0.0,0.0,0.0,0.0,0.0,0.0,0.0,0.0,0.0,0.0,0.0,0.0,0.0,-1.2587,-1.1431,-1.0505,-1.087,-1.043,-1.0299,-1.0965,-1.0485,-1.0112,-1.0217,-0.5104,-0.3839,-0.889,-0.4126,-0.2843,-0.7063,-0.7316,-0.701,-0.6396,-0.64,-0.6728,-0.7386,-0.7907,-0.8166,-0.8166,-0.8166,-0.7512,-0.6276,-0.6272,-0.6527,-0.7046,-0.7237,-0.7827,-0.8608,-0.8613,-0.8361,-0.8037,-0.7847,-0.7782,-0.7717,-0.6999,-0.7089,-0.7526,0.0,0.0,0.0,0.0,0.0,0.0,0.0,0.0,0.0,0.0,0.0,0.0,0.0,0.0,0.0,0.0,0.0,0.0,0.0,0.0,0.0,0.0,0.0,0.0,0.0,-0.4567,-0.5336,0.0,0.0,0.0,0.0,0.0,0.0,-0.8862,0.0,-0.9732,0.0,-0.9895,-0.9895,-0.9792,-1.0031,-1.0038,-0.9901,0.0,0.0,0.0,0.0,0.0,0.0,0.0,0.0,0.0,0.0,0.0,0.0,-1.5583,-1.6095,-1.6249,-1.6374,0.0,0.0,0.0,0.0,0.0,0.0,0.0,0.0,0.0,0.0,0.0,0.0,-1.2329,0.0,-1.3441,-1.2707,-1.2337,-1.3075,-1.2578,-1.245,-1.3297,-1.2682,-1.2192,-1.2297,-0.7882,-0.672,-1.0784,-0.6633,-0.5529,-0.9101,-0.8551,-0.7817,-0.708,-0.6392,-0.647,-0.7386,-0.7842,-0.8361,-0.8888,-0.8888,-0.8355,-0.7302,-0.7372,-0.7692,-0.8264,-0.8726,-0.9308,-0.9837,-0.9709,-0.939,-0.9005,-0.8812,-0.8748,-0.8619,-0.7647,-0.7712,-0.8275,0.0,0.0,0.0,0.0,0.0,0.0,0.0,0.0,0.0,0.0,0.0,0.0,0.0,0.0,0.0,0.0,0.0,0.0,0.0,0.0,0.0,0.0,0.0,0.0,0.0,0.0,0.0,0.0,0.0,0.0,0.0,0.0,-0.9242,-0.9673,0.0,-1.011,0.0,-1.0192,-1.026,-1.0127,-1.0501,-1.0483,-1.0192,-1.0928,0.0,0.0,0.0,0.0,0.0,0.0,0.0,0.0,-1.2784,-1.371,-1.4654,-1.5501,-1.6042,-1.6431,-1.6431,0.0,0.0,0.0,0.0,0.0,0.0,0.0,0.0,0.0,0.0,0.0,-1.1844,-1.3058,-1.4277,-1.3933,-1.3992,-1.4674,-1.6379,-1.5283,-1.4965,-1.6616,-1.5341,-1.4326,-1.4384,-1.3669,-1.2838,-1.1904,-1.1137,-1.0929,-1.1365,-0.9725,-0.8678,-0.8371,-0.6755,-0.6461,-0.7572,-0.7762,-0.8415,-0.9542,-0.967,-0.9588,-0.9424,-0.8656,-0.8784,-0.9615,-1.0009,-1.0212,-1.0205,-1.0085,-0.9964,-0.9901,-0.9703,-0.9582,-0.9454,-0.8554,-0.8683,-0.9204,0.0,0.0,0.0,0.0,0.0,0.0,0.0,0.0,0.0,0.0,0.0,0.0,0.0,0.0,0.0,0.0,0.0,0.0,0.0,0.0,0.0,0.0,0.0,0.0,0.0,0.0,0.0,0.0,0.0,0.0,0.0,0.0,0.0,-0.994,0.0,-1.0272,-1.0236,-1.0659,-1.083,-1.0808,-1.1194,-1.1264,-1.1168,-1.0778,-1.0701,0.0,0.0,0.0,0.0,0.0,0.0,0.0,-1.3016,-1.38,-1.4496,-1.5699,-1.627,-1.6581,0.0,-1.6477,0.0,0.0,0.0,0.0,0.0,0.0,0.0,0.0,0.0,-1.611,-1.5621,-1.5928,-1.6177,-1.612,-1.612,-1.6312,-1.6694,-1.6436,-1.6415,-1.6899,-1.6528,-1.628,-1.6384,-1.068,-0.9389,-1.5192,-0.9883,-0.8455,-1.3201,-1.2922,-1.2003,-1.0636,-1.005,-0.9454,-0.8972,-1.0283,-1.0615,-1.0034,-1.0752,-1.1267,-1.1571,-0.9799,-0.9545,-1.0551,-1.1406,-1.1794,-1.1794,-1.167,-1.1288,-1.0766,-1.0703,-1.0268,-0.9646,-0.8748,-0.8807,-0.9186,0.0,0.0,0.0,0.0,0.0,0.0,0.0,0.0,0.0,0.0,0.0,0.0,0.0,0.0,0.0,0.0,0.0,0.0,0.0,0.0,0.0,0.0,0.0,0.0,0.0,0.0,0.0,0.0,0.0,0.0,0.0,0.0,0.0,-0.9629,0.0,-1.0187,-1.0461,-1.1014,-1.1353,-1.154,-1.2011,-1.2086,-1.1856,-1.1908,-1.1744,-1.1449,-1.1567,0.0,0.0,0.0,0.0,0.0,0.0,0.0,-1.4542,-1.5467,-1.6056,-1.6285,0.0,0.0,0.0,0.0,0.0,0.0,0.0,0.0,0.0,0.0,0.0,-1.6987,-1.6818,-1.6864,-1.6864,-1.6807,-1.6864,-1.6909,-1.6909,-1.6987,-1.7043,-1.7145,-1.7088,-1.7043,-1.7145,-1.3355,-1.2598,-1.6749,-1.3215,-1.2204,-1.5338,-1.4587,-1.3602,-1.2658,-1.1639,-1.1034,-1.087,-1.1676,-1.2012,-1.1744,-1.1658,-1.1757,-1.2035,-1.1024,-1.0954,-1.171,-1.2236,-1.2428,-1.2436,-1.2243,-1.1981,-1.1593,-1.1531,-1.1101,-1.0408,-0.964,-0.9384,-0.9256,0.0,0.0,0.0,0.0,0.0,0.0,0.0,0.0,0.0,0.0,0.0,0.0,0.0,0.0,0.0,0.0,0.0,0.0,0.0,0.0,0.0,0.0,0.0,0.0,0.0,0.0,0.0,0.0,0.0,0.0,0.0,0.0,0.0,-0.942,0.0,0.0,-1.0871,-1.1485,-1.1927,-1.2245,-1.2862,-1.2814,-1.2521,-1.3142,-1.2887,-1.232,-1.2642,-1.2826,-1.2895,-1.2895,0.0,0.0,0.0,0.0,-1.4647,-1.5177,-1.5642,-1.5826,0.0,0.0,0.0,0.0,0.0,0.0,0.0,0.0,0.0,0.0,-1.7278,-1.6806,-1.5121,-1.6001,-1.6597,-1.51,-1.4935,-1.544,-1.6903,-1.605,-1.5816,-1.718,-1.739,-1.739,-1.7434,-1.7334,-1.7334,-1.739,-1.7334,-1.7211,-1.7078,-1.5618,-1.4753,-1.4636,-1.3093,-1.2434,-1.2895,-1.3075,-1.3348,-1.3656,-1.2562,-1.2051,-1.2104,-1.212,-1.2305,-1.2683,-1.2621,-1.2621,-1.256,-1.2428,-1.2367,-1.2367,-1.2243,-1.1872,-1.1365,-1.0591,-1.0085,-0.9646,0.0,0.0,0.0,0.0,0.0,0.0,0.0,0.0,0.0,0.0,0.0,0.0,0.0,0.0,0.0,0.0,0.0,0.0,0.0,0.0,0.0,0.0,0.0,0.0,0.0,0.0,0.0,0.0,0.0,0.0,0.0,0.0,0.0,-1.0257,0.0,0.0,0.0,-1.2479,-1.2851,-1.2871,-1.3297,-1.3374,-1.3313,-1.2992,-1.3078,-1.326,-1.2895,-1.3078,-1.339,-1.339,-1.345,0.0,0.0,0.0,-1.4765,-1.5118,-1.541,-1.5526,0.0,0.0,0.0,0.0,0.0,0.0,0.0,0.0,0.0,0.0,-1.7278,-1.5118,-0.8044,-1.2497,-1.5036,-0.8276,-0.6935,-0.9322,-1.6602,-1.164,-0.9818,-1.6798,-1.7656,-1.7767,-1.7986,-1.7545,-1.739,-1.7656,-1.7434,-1.7278,-1.7267,-1.6888,-1.6698,-1.6888,-1.6348,-1.5668,-1.4926,-1.5803,-1.5756,-1.4857,-1.3903,-1.3442,-1.3408,-1.2466,-1.2359,-1.292,-1.2683,-1.2621,-1.2621,-1.256,-1.256,-1.256,-1.256,-1.2375,-1.205,-1.0899,-1.0717,-1.0793,0.0,0.0,0.0,0.0,0.0,0.0,0.0,0.0,0.0,0.0,0.0,0.0,0.0,0.0,0.0,0.0,0.0,0.0,0.0,0.0,0.0,2.1794,1.7179,1.306,0.0,0.0,0.0,0.0,0.0,0.0,0.0,-0.9204,-0.9664,0.0,0.0,0.0,0.0,0.0,-1.3549,-1.3879,-1.4236,-1.1751,-0.8425,-1.2464,-1.149,-0.8498,-1.2555,-1.4172,-1.4359,-1.4359,-1.4359,-1.4369,-1.4488,0.0,0.0,0.0,-1.5371,0.0,0.0,0.0,0.0,0.0,0.0,0.0,0.0,0.0,0.0,-1.0933,-1.3528,-1.522,-1.2648,-1.5133,-1.4914,-0.6996,-0.9493,-1.2097,-1.1101,-1.1918,-1.2223,-1.1093,-1.1001,-1.1039,-1.1125,-1.0954,-1.28,-1.7564,-1.781,-1.7767,-1.7767,-1.7634,-1.7634,-1.7767,-1.749,-1.7067,-1.662,-1.6955,-1.6492,-1.539,-1.4974,-1.4514,-1.3957,-1.3295,-1.307,-1.3277,-1.3155,-1.2981,-1.2805,-1.2805,-1.2744,-1.2621,-1.2621,-1.2375,-1.1988,-1.1413,-1.117,-1.0926,0.0,0.0,0.0,0.0,0.0,0.0,0.0,0.0,0.0,0.0,0.0,0.0,0.0,0.0,0.0,0.0,0.0,0.0,0.0,0.0,0.0,2.5023,2.1406,1.843,1.6485,0.0,0.0,0.0,0.0,0.0,-0.9211,-0.9604,-1.0067,0.0,-1.1144,0.0,0.0,0.0,0.0,0.0,-1.2757,-0.8679,0.0,0.0,-0.57,-0.1731,-0.9388,-1.2091,-1.2425,-1.4357,-1.497,-1.497,-1.497,-1.4852,0.0,0.0,0.0,0.0,0.0,0.0,0.0,0.0,0.0,0.0,0.0,0.0,0.0,0.0,-0.6995,-0.9435,-1.1352,-1.5048,-1.3811,-0.1564,-0.8267,-1.2158,-0.3793,-0.8026,-0.9669,-0.3386,-0.2619,-0.3475,-0.5693,-0.3844,-0.6885,-1.7424,-1.6186,-1.5888,-1.7961,-1.8084,-1.8084,-1.8084,-1.7931,-1.781,-1.781,-1.7545,-1.6955,-1.6053,-1.5746,-1.5168,-1.4382,-1.4136,-1.3906,-1.3683,-1.3563,-1.3338,-1.3103,-1.3103,-1.2981,-1.2797,-1.2744,-1.2428,-1.205,-1.1864,-1.1553,-1.1108,0.0,0.0,0.0,0.0,0.0,0.0,0.0,0.0,0.0,0.0,0.0,0.0,0.0,0.0,0.0,2.4101,0.0,0.0,0.0,0.0,0.0,2.5094,2.4782,0.0,1.6433,0.0,0.0,0.0,0.0,0.0,-0.9218,-1.0682,-1.161,-1.2006,-1.2014,-1.2914,-1.4327,0.0,0.0,0.0,-0.7126,-0.3941,0.0,0.0,0.0,0.0,0.0,-0.421,-0.529,-1.2533,-1.497,-1.497,-1.497,0.0,0.0,0.0,0.0,0.0,0.0,0.0,0.0,0.0,0.0,0.0,0.0,0.0,0.0,0.0,0.2857,0.7207,0.5072,-0.7782,-1.0332,1.3308,0.3708,-0.38,0.4587,0.5124,0.4935,0.5684,0.5776,0.2548,-0.5677,0.1191,-0.0712,-1.7311,-1.1001,-0.9802,-1.7682,-1.8084,-1.8084,-1.8084,-1.8084,-1.8084,-1.8084,-1.7822,-1.7545,-1.7211,-1.611,-1.5342,-1.4845,-1.4855,-1.461,-1.4145,-1.3683,-1.3511,-1.345,-1.345,-1.345,-1.345,-1.3103,-1.2989,-1.2858,-1.205,-1.1802,-1.1615,0.0,0.0,0.0,0.0,0.0,0.0,0.0,0.0,0.0,0.0,0.0,0.0,0.0,2.3414,2.4037,2.428,2.471,0.0,0.0,0.0,0.0,2.5032,2.5018,2.3971,2.1806,0.0,0.0,0.0,0.0,-0.7559,-0.9775,-1.08,-1.1776,-1.2683,-1.3325,-1.4072,-1.4946,-1.5089,0.0,0.0,-0.6957,-0.0998,0.3697,0.0,0.0,0.0,0.0,0.0,0.0,0.0,0.0,0.0,0.0,0.0,0.0,0.0,0.0,0.0,0.0,0.0,0.0,0.0,0.0,0.0,0.0,0.0,0.2645,0.9298,0.9655,1.1365,1.9918,0.8316,0.1999,1.6008,0.4405,-0.1577,1.2164,0.4788,0.1956,1.2812,1.41,1.287,0.9774,1.2359,0.9476,-0.2028,-0.4966,-0.7516,-1.0481,-1.5752,-1.8667,-1.8667,-1.8518,-1.8302,-1.8084,-1.7975,-1.792,-1.7822,-1.739,-1.6968,-1.6461,-1.612,-1.5891,-1.5766,-1.4874,-1.4359,-1.4291,-1.4291,-1.3992,-1.3511,-1.339,-1.3164,-1.2981,-1.2674,-1.2243,-1.1677,0.0,0.0,0.0,0.0,0.0,0.0,0.0,0.0,0.0,0.0,0.0,0.0,0.0,0.0,2.481,2.4715,2.5149,2.5412,2.5331,2.5273,2.5145,2.5019,2.498,2.4898,0.0,0.0,0.0,0.0,0.0,0.0,0.0,-0.8732,-0.9814,-1.3061,-1.4029,-1.4763,0.0,0.0,0.0,-1.4515,0.0,0.2727,0.7616,0.0,0.0,0.0,0.0,0.0,0.0,0.0,0.0,0.0,0.0,0.0,0.0,0.0,0.0,0.0,0.0,0.0,0.0,0.0,0.0,0.0,0.0,0.0,0.9103,1.7329,1.7293,1.8676,2.8339,2.1377,1.5978,2.147,0.8424,0.3445,2.0252,1.0635,0.7017,2.0953,2.2611,2.1492,1.8676,2.0953,1.7946,0.6736,0.077,0.0,-0.6085,-1.4185,-1.865,-1.847,-1.8303,-1.8043,-1.7739,-1.7739,-1.7675,-1.7569,-1.7741,-1.7474,-1.6841,-1.6746,-1.6595,-1.627,-1.57,-1.5303,-1.5059,-1.4893,-1.4478,-1.3872,-1.3752,-1.358,-1.3346,-1.3224,-1.2666,-1.1864,0.0,0.0,0.0,0.0,0.0,0.0,0.0,0.0,0.0,0.0,0.0,0.0,0.0,0.0,0.0,2.5512,2.5499,2.5471,2.541,2.5332,2.5203,2.5019,0.0,0.0,0.0,0.0,0.0,0.0,0.0,0.0,0.0,0.0,-0.591,0.0,-1.3965,-1.4824,-1.541,0.0,-1.541,-1.407,0.0,0.716,0.8213,0.0,0.0,0.0,1.1737,0.9094,0.0,0.829,0.0,0.0,0.0,0.0,0.0,0.0,0.0,0.0,0.0,0.0,0.0,0.0,0.0,0.0,1.0915,0.0,1.9747,2.0915,2.583,2.9905,2.9888,3.0075,3.0276,3.0531,1.6791,1.1876,2.8541,2.3682,2.1512,2.9899,3.0879,2.767,1.9519,2.6067,2.4075,0.7793,0.6319,0.2804,-0.495,-1.3503,-1.7941,-1.7436,-1.7412,-1.7265,-1.702,-1.702,-1.686,-1.655,-1.7031,-1.6702,-1.5719,-1.6675,-1.6543,-1.5581,-1.6053,-1.6083,-1.5853,-1.5245,-1.4902,-1.4656,-1.4359,-1.413,-1.395,-1.364,-1.2964,-1.2236,0.0,0.0,0.0,0.0,0.0,0.0,0.0,0.0,0.0,0.0,0.0,0.0,0.0,0.0,0.0,2.5576,2.5535,2.5473,2.5394,2.5372,2.5271,2.5075,2.5094,0.0,0.0,0.0,0.0,0.0,0.0,0.0,0.0,0.0,0.0,0.0,-1.2184,-1.5069,-1.573,-1.5672,0.0,0.0,0.0711,0.6936,0.0,0.0,0.0,0.0,0.0,2.4376,2.3461,0.0,2.0018,2.3199,0.0,0.0,0.0,0.0,0.0,0.0,0.5701,0.0,0.0,0.0,0.0,0.0,0.0,0.0,0.0,2.6252,2.881,3.0066,2.9937,2.995,3.0056,3.0257,2.1551,1.8478,2.9177,2.359,2.1512,2.9899,3.0332,2.9059,2.6731,2.8039,2.7093,0.0,1.6478,0.9907,0.2724,-1.0345,-1.7568,-1.7424,-1.7412,-1.7363,-1.7314,-1.7314,-1.7265,-1.7156,-1.6553,-1.614,-1.581,-1.4894,-1.474,-1.5213,-1.4443,-1.4759,-1.5756,-1.5591,-1.5264,-1.4902,-1.4656,-1.4359,-1.413,-1.3941,-1.3025,-1.1926,0.0,0.0,0.0,0.0,0.0,0.0,0.0,0.0,0.0,0.0,0.0,0.0,0.0,0.0,0.0,2.6658,2.6651,2.6607,2.6571,2.6547,2.644,2.6275,2.6275,2.6197,0.0,0.0,0.0,0.0,0.0,0.0,0.0,0.0,0.0,0.0,0.0,0.0,0.0,0.0,0.0,0.0,0.1949,0.0,0.0,2.2062,2.5754,0.0,0.0,0.0,2.5822,2.4365,2.6699,0.0,0.0,0.0,0.0,0.0,0.0,0.0,0.0,0.0,0.0,0.0,0.0,0.0,2.3594,2.2355,2.0625,0.0,2.5676,2.66,2.9336,2.9857,2.9888,2.9973,2.6098,2.4831,2.9823,2.6118,2.475,2.9687,2.9503,2.8999,2.9043,2.8594,2.8301,2.8301,1.7836,0.7013,-0.322,-0.9297,-1.3794,-1.6656,-1.6715,-1.6715,-1.6715,-1.6715,-1.6504,-1.6101,-1.574,-1.5311,-1.4847,-1.3849,-1.3893,-1.4695,-1.3717,-1.3988,-1.5077,-1.5263,-1.5216,-1.5088,-1.4961,-1.4784,-1.4488,-1.4437,-1.345,-1.2097,0.0,0.0,0.0,0.0,0.0,0.0,0.0,0.0,0.0,0.0,0.0,0.0,0.0,0.0,0.0,0.0,2.8201,2.8201,2.8205,2.8165,2.8074,2.7939,2.7883,2.7785,2.7644,0.0,0.0,0.0,0.0,0.0,0.0,0.0,0.0,0.0,0.0,0.0,0.0,0.0,0.0,-0.1686,0.5415,1.2334,0.0,0.0,2.0981,2.0966,2.0618,2.0737,2.1895,2.7225,2.9292,0.0,0.0,0.0,0.0,0.0,1.1721,0.0,0.0,0.0,0.0,0.0,0.0,0.0,2.0571,2.0588,2.0577,0.0,2.0788,2.2639,2.8671,2.979,2.9736,2.9588,2.9739,2.9958,3.0172,2.9613,2.9188,2.9211,2.845,2.7969,2.8097,2.8024,2.7966,2.7964,1.4609,0.0414,-1.3488,-0.8754,-0.8725,-1.5584,-1.5792,-1.5792,-1.5792,-1.5792,-1.4979,-1.3334,-1.437,-1.3952,-1.2283,-1.2755,-1.328,-1.3768,-1.3264,-1.3418,-1.3985,-1.4482,-1.4875,-1.5148,-1.5128,-1.5029,-1.4911,-1.4784,-1.3803,-1.2451,0.0,0.0,0.0,0.0,0.0,0.0,0.0,0.0,0.0,0.0,0.0,0.0,0.0,0.0,0.0,0.0,0.0,2.8223,2.8276,2.8265,2.8225,2.8131,2.812,2.8029,2.7844,2.8379,0.0,0.0,0.0,0.0,0.0,0.0,0.0,0.0,0.0,0.0,0.0,0.0,0.0,1.3466,1.5021,0.0,1.9236,2.5658,2.8036,2.7943,2.786,2.7594,2.7447,2.866,2.85,2.7826,0.0,0.0,0.0,2.6586,0.0,0.0,0.0,0.0,0.0,0.0,0.0,0.0,2.8165,2.8256,2.8237,0.0,2.8074,2.8521,2.9529,2.9719,2.9476,2.8781,2.9249,2.9572,2.9111,2.9033,2.8783,2.8113,2.7362,2.6883,2.6838,2.6273,2.5896,2.589,1.7955,0.9471,0.1084,-0.3322,-0.8725,-1.5584,-1.5792,-1.5792,-1.5792,-1.5792,-1.2956,-0.7332,-1.1294,-1.0199,-0.4772,-0.8609,-1.0621,-1.1156,-1.1464,-1.2111,-1.3001,-1.3565,-1.4219,-1.4828,-1.4508,-1.4401,-1.4282,-1.3623,-1.2834,-1.2104,0.0,0.0,0.0,0.0,0.0,0.0,0.0,0.0,0.0,0.0,0.0,0.0,0.0,0.0,0.0,0.0,0.0,0.0,0.0,0.0,2.9517,2.9455,2.946,2.9382,2.9259,2.9506,2.9548,0.0,0.0,0.0,0.0,0.0,0.0,0.0,0.0,0.0,0.0,0.0,2.0094,2.3205,1.9591,0.0,2.4329,2.8435,2.9779,2.9364,2.869,2.7725,2.6882,2.784,2.758,0.0,0.0,2.9011,2.8989,0.0,2.9862,2.9578,0.0,0.0,0.0,3.041,0.0,0.0,0.0,2.5167,2.5179,2.5,2.4967,2.5947,2.9202,2.9681,2.9289,2.8409,2.9062,2.9141,2.7571,2.7803,2.7877,2.7082,2.6323,2.5862,2.5909,2.5543,2.3846,2.0333,2.001,1.4002,0.0247,-0.0585,-0.5347,-1.5568,-1.5969,-1.6013,-1.6013,-1.6013,-1.2299,-0.5023,-0.749,-0.4782,0.2236,-0.0256,-0.1649,-0.2207,-0.2459,-0.4578,-0.7923,-0.8714,-0.8805,-0.8487,-0.8723,-0.8957,-0.9092,-0.8312,-0.7583,-0.7445,0.0,0.0,0.0,0.0,0.0,0.0,0.0,0.0,0.0,0.0,0.0,0.0,0.0,0.0,0.0,0.0,0.0,0.0,0.0,0.0,3.0742,3.071,3.0729,3.0681,3.0642,3.0474,3.0346,0.0,0.0,0.0,0.0,0.0,0.0,0.0,0.0,0.0,0.0,0.0,0.0,2.8852,0.0,2.4135,2.9288,2.9456,2.9169,2.8482,2.7148,2.566,2.4602,2.6458,2.6723,2.6561,2.7961,2.8662,0.0,0.0,0.0,0.0,0.0,0.0,0.0,0.0,0.0,2.8786,0.0,0.0,0.0,2.2027,2.1844,0.0,0.0,0.0,0.0,0.0,0.0,0.0,0.0,2.6456,0.0,2.6151,2.5512,2.5159,2.5219,2.5232,2.2868,1.7135,2.1859,1.6567,-0.2835,0.134,-0.194,-1.5596,-1.6144,-1.62,-1.62,-1.4865,-1.0371,-0.2741,-0.2636,0.1423,0.8824,0.7537,0.67,0.6263,0.6172,0.3372,-0.1247,-0.2191,-0.175,-0.0651,-0.253,-0.2626,-0.1816,-0.2483,-0.2343,-0.2738,2.6631,2.7104,0.0,0.0,0.0,0.0,0.0,0.0,0.0,0.0,0.0,0.0,0.0,0.0,0.0,0.0,0.0,0.0,3.0525,0.0,0.0,3.0781,3.0793,3.0786,3.0784,3.0697,3.0659,3.0646,0.0,0.0,0.0,0.0,0.0,0.0,2.9591,0.0,0.0,0.0,2.9273,0.0,2.8515,2.8753,0.0,2.8546,2.7874,2.7229,2.6032,2.4791,2.4004,0.0,2.6134,2.5936,0.0,2.8445,2.8695,2.9698,0.0,0.0,0.0,0.0,0.0,0.0,3.0739,0.0,0.0,0.0,2.9508,2.9342,0.0,0.0,0.0,0.0,0.0,0.0,0.0,0.0,2.503,2.5403,2.5778,2.529,2.5262,2.5196,2.4965,2.5,2.4626,2.3643,2.446,1.8606,0.3933,0.3884,-0.2006,-1.5738,-1.6188,-1.62,-1.62,-1.0113,-0.3558,0.333,0.4253,0.8248,1.465,0.9507,0.7039,0.6788,0.6485,0.5974,0.5312,0.4831,0.4927,0.4888,-0.0614,0.1097,0.6056,0.0577,-0.1369,-0.2238,0.0,2.7653,0.0,0.0,0.0,0.0,0.0,0.0,0.0,0.0,0.0,0.0,0.0,0.0,0.0,0.0,0.0,3.0203,0.0,0.0,0.0,0.0,3.0674,3.0691,3.0739,3.07,3.0696,3.0691,3.07,0.0,0.0,0.0,0.0,0.0,2.9929,0.0,2.9468,0.0,2.9312,0.0,0.0,0.0,0.0,2.7712,2.672,2.5491,2.4658,2.3631,2.2892,0.0,2.4777,0.0,0.0,0.0,0.0,0.0,0.0,0.0,0.0,0.0,0.0,0.0,0.0,0.0,3.0643,0.0,3.0771,0.0,0.0,0.0,0.0,0.0,0.0,0.0,2.8504,0.0,0.0,0.0,2.5945,0.0,0.0,0.0,2.4984,2.5098,2.5023,2.4676,2.4831,2.0611,1.069,1.0081,0.3791,-0.9911,-0.6537,-0.6385,-1.0419,-0.3616,0.3282,1.0056,1.0436,1.4132,2.0582,1.7974,1.6728,1.6648,1.6409,1.4557,1.164,1.1064,1.1825,1.3061,1.0155,1.107,1.3744,1.1529,0.8149,0.429,0.0,0.0,0.0,0.0,0.0,0.0,0.0,0.0,0.0,0.0,0.0,0.0,3.044,3.0305,0.0,0.0,2.9775,2.9768,0.0,0.0,3.0188,0.0,0.0,0.0,0.0,3.0648,3.0703,3.0735,0.0,0.0,0.0,0.0,0.0,0.0,0.0,2.9611,2.9195,0.0,2.8721,2.81,2.802,2.7303,2.6277,2.6277,2.5123,2.349,2.3259,2.2682,2.2189,2.3199,2.3738,0.0,2.4981,0.0,0.0,0.0,0.0,0.0,2.9934,0.0,0.0,0.0,0.0,0.0,0.0,0.0,0.0,0.0,0.0,0.0,0.0,0.0,0.0,0.0,0.0,2.8214,0.0,0.0,0.0,0.0,0.0,0.0,0.0,2.5069,2.5,2.4596,2.4747,2.1787,1.4711,1.4256,0.8815,-0.2954,0.1438,0.1588,-0.343,0.336,0.9274,1.4209,1.6019,1.9443,2.4154,2.3939,2.3798,2.3753,2.3707,2.1482,1.7864,1.7648,1.8818,2.0713,2.0494,2.0789,2.1191,1.9806,1.6123,1.1518,3.0027,2.999,0.0,0.0,0.0,0.0,0.0,0.0,0.0,0.0,0.0,0.0,0.0,0.0,0.0,0.0,0.0,2.8672,2.8924,0.0,2.9539,0.0,0.0,3.045,0.0,3.0492,3.0722,3.0796,0.0,0.0,0.0,0.0,0.0,0.0,0.0,2.9097,2.8851,2.796,2.7123,2.6368,2.6368,2.5388,2.391,0.0,2.2819,2.1369,2.1927,0.0,0.0,2.2907,2.3457,0.0,0.0,0.0,0.0,0.0,0.0,0.0,0.0,0.0,0.0,3.0501,0.0,0.0,0.0,0.0,3.081,0.0,0.0,0.0,0.0,0.0,0.0,0.0,0.0,0.0,0.0,0.0,0.0,0.0,0.0,0.0,0.0,2.482,2.4733,2.4515,2.4693,2.1703,1.4578,1.4209,1.0977,0.3902,0.3902,0.3902,0.366,1.0456,1.3982,1.4288,2.0962,2.4137,2.4116,2.4173,2.4077,2.3896,2.4096,2.408,2.3988,2.4949,2.5857,2.6691,2.7451,2.8285,2.8264,2.1709,1.9165,1.8037,0.0,0.0,0.0,0.0,0.0,0.0,0.0,2.9855,0.0,0.0,2.9433,0.0,0.0,2.8913,2.8686,0.0,0.0,2.8323,2.8232,2.8846,0.0,0.0,0.0,2.9973,0.0,0.0,0.0,0.0,0.0,0.0,0.0,0.0,0.0,0.0,0.0,2.8893,0.0,0.0,0.0,0.0,0.0,2.3393,2.2239,0.0,2.2331,2.1799,2.1684,2.1636,0.0,2.1894,2.2376,2.2901,2.282,2.3553,2.4441,2.4557,2.4911,2.5558,0.0,0.0,2.6233,2.8574,0.0,0.0,0.0,0.0,0.0,0.0,0.0,0.0,0.0,0.0,0.0,0.0,0.0,0.0,0.0,0.0,0.0,0.0,0.0,0.0,0.0,0.0,0.0,2.4549,2.4801,2.3825,2.1166,2.1017,1.7856,1.0977,1.519,1.5379,1.0781,1.7582,2.1017,2.1035,2.3327,2.4394,2.4284,2.4172,2.4174,2.4243,2.4208,2.4243,2.4403,2.5308,2.6152,2.6934,2.7955,2.8868,2.9325,2.6982,2.3239,1.9076,2.9107,0.0,0.0,0.0,0.0,0.0,0.0,0.0,0.0,0.0,2.8466,0.0,2.799,0.0,2.7709,0.0,2.7443,2.749,2.7531,2.7942,0.0,2.8204,2.887,0.0,0.0,0.0,0.0,0.0,0.0,2.9723,0.0,0.0,0.0,0.0,0.0,0.0,2.7161,0.0,2.5466,0.0,0.0,2.2053,0.0,0.0,2.1417,2.1575,0.0,2.0908,2.0633,2.1019,2.1191,2.1261,2.152,2.2218,2.2977,2.3039,2.3372,2.4005,2.5231,2.4794,0.0,2.6832,2.6801,0.0,2.866,0.0,2.9855,0.0,0.0,0.0,0.0,0.0,0.0,0.0,0.0,0.0,0.0,2.6183,0.0,0.0,0.0,0.0,0.0,0.0,2.5072,2.453,2.4809,2.4854,0.0,2.45,2.2447,1.8005,2.219,2.2355,1.7911,2.2263,2.4465,2.4465,2.4495,2.4493,2.4458,2.4454,2.4507,2.4615,2.4538,2.4737,2.513,2.6029,2.6836,2.7638,2.8673,2.9389,2.9842,2.9798,2.7009,2.3262,0.0,0.0,0.0,0.0,2.9052,0.0,0.0,0.0,2.7861,0.0,2.7203,2.6771,2.6739,2.6519,2.6371,2.6371,2.6112,2.6214,2.679,2.6742,0.0,0.0,2.7754,2.7922,2.7908,0.0,0.0,0.0,0.0,0.0,0.0,0.0,0.0,0.0,2.7885,0.0,2.5478,2.4351,2.3112,2.1941,2.1444,2.1264,2.1166,2.0156,2.0131,2.0599,2.0599,1.9991,1.927,2.0271,1.994,1.9258,2.0271,2.0649,2.0749,2.118,2.1313,2.1727,2.3351,2.3819,2.4126,2.5374,2.5666,0.0,0.0,0.0,2.8206,0.0,0.0,0.0,0.0,0.0,0.0,0.0,0.0,0.0,0.0,0.0,0.0,0.0,0.0,0.0,0.0,2.4982,2.4938,2.4547,2.4686,2.4695,0.0,2.45,2.45,2.45,2.45,2.45,2.4498,2.4446,2.4429,2.4446,2.4625,2.4686,2.4639,2.4946,2.5058,2.5018,2.5126,2.5597,2.6376,2.7305,2.8168,2.8984,2.9802,3.0121,3.0122,3.0106,3.0152,3.0186,2.763,2.7855,2.8075,0.0,2.8148,2.8218,0.0,0.0,0.0,0.0,2.6604,2.6235,2.5848,2.579,2.5733,2.5733,2.5693,0.0,0.0,0.0,0.0,2.6019,2.671,2.6966,2.6676,2.7366,2.7736,2.7736,0.0,0.0,2.8189,0.0,0.0,0.0,0.0,0.0,2.478,2.3727,2.215,2.0268,1.9837,1.9604,1.9604,0.0,1.9303,1.946,1.946,1.9239,1.9069,1.9344,1.9239,1.9069,1.9344,1.9708,2.0067,2.0156,2.0523,2.1028,2.1815,2.1791,2.1934,2.3462,2.3828,2.4103,0.0,0.0,0.0,0.0,0.0,0.0,0.0,0.0,0.0,0.0,0.0,0.0,0.0,0.0,0.0,2.5707,0.0,0.0,2.5041,2.5062,2.4998,2.4743,2.4761,2.4681,2.4429,0.0,2.4482,2.443,2.443,2.453,2.4727,2.4657,2.472,2.4924,2.4917,2.4918,2.4889,2.4918,2.5054,2.5253,2.5936,2.6328,2.6645,2.8163,2.8809,2.8935,2.9994,3.0495,3.0589,3.0344,3.0346,3.0477,2.6965,0.0,0.0,2.6967,0.0,0.0,2.7455,2.6943,0.0,2.611,2.5648,0.0,2.5005,2.4981,2.4981,2.4981,2.4981,0.0,2.5335,0.0,0.0,2.5635,2.5639,2.5645,2.5599,2.5859,0.0,2.6503,0.0,0.0,2.6842,0.0,0.0,0.0,0.0,2.4722,0.0,2.2209,2.0917,1.9709,1.9186,1.8987,0.0,1.8709,1.8655,1.8762,1.8398,1.8278,1.8363,1.8815,1.8697,1.8363,1.8869,1.9198,1.9448,1.9448,1.9708,2.008,2.0573,2.0523,2.0597,2.1796,2.2093,2.2382,2.3634,2.4257,2.4896,0.0,2.6511,2.7031,0.0,0.0,0.0,0.0,0.0,0.0,0.0,0.0,0.0,0.0,2.5566,0.0,2.5369,2.5197,2.5011,2.4826,2.4815,2.4733,2.4591,0.0,2.4651,2.47,2.4719,2.479,2.4927,2.4847,2.4905,2.5059,2.5108,2.513,2.515,2.5607,2.5896,2.6094,2.6897,2.7465,2.7891,2.8886,2.9418,2.9688,3.0362,3.0691,3.0771,3.0589,3.0562,3.0639,0.0,0.0,0.0,0.0,0.0,0.0,0.0,2.5884,0.0,2.5147,0.0,2.4135,2.4135,2.4135,2.4135,2.4135,0.0,2.4354,2.4855,2.442,2.4502,2.5379,2.4545,2.4179,2.4554,2.4284,2.4548,0.0,0.0,0.0,0.0,0.0,0.0,0.0,0.0,0.0,0.0,2.0256,1.954,1.9423,1.8869,1.8667,1.8602,1.805,1.7984,1.8093,1.7423,1.729,1.7578,1.8483,1.8147,1.7523,1.8483,1.8827,1.8881,1.8881,1.8934,1.9093,1.9552,1.9708,1.9811,2.0347,2.0586,2.0979,2.2084,2.2816,2.3488,2.4548,2.5562,2.607,0.0,0.0,0.0,0.0,0.0,0.0,0.0,0.0,0.0,0.0,0.0,0.0,2.5689,2.5343,2.5063,2.4898,2.4847,2.4835,2.4826,0.0,2.4919,2.5072,2.509,2.5106,2.5139,2.5065,2.5054,2.5084,2.527,2.5403,2.5563,2.6552,2.7069,2.7207,2.7964,2.8701,2.9404,2.9524,3.0025,3.071,3.0774,3.08,3.08,3.081,3.0762,3.0697,0.0,0.0,0.0,0.0,0.0,2.4318,2.4808,2.4465,2.4081,2.3857,2.3448,2.3157,2.3157,2.3157,2.3157,2.3157,2.3157,0.0,0.0,0.0,0.0,2.342,2.3216,2.3172,2.3201,2.3389,2.3758,0.0,0.0,0.0,0.0,0.0,0.0,0.0,0.0,0.0,1.98,1.8797,0.0,1.7623,1.7011,1.6786,1.6729,1.6684,1.6616,1.6684,1.6524,1.6965,1.7645,1.7601,1.7479,1.7368,1.7545,1.7909,1.8255,1.8255,1.8602,1.904,1.9093,1.9146,1.9146,1.9251,2.0016,2.0766,2.097,2.1895,2.2952,2.3926,2.4259,2.4764,2.5966,0.0,0.0,0.0,0.0,0.0,0.0,0.0,0.0,0.0,0.0,2.5679,0.0,2.5453,2.533,2.5309,2.5148,2.5011,0.0,0.0,2.5043,0.0,2.502,0.0,0.0,0.0,2.5356,2.5588,2.5605,2.6015,2.6718,2.6913,2.7357,2.8042,2.8893,2.9316,2.9468,3.017,3.0564,3.0711,3.078,3.0793,3.0797,3.0797,3.0788,3.0765,0.0,0.0,0.0,0.0,0.0,0.0,0.0,2.2906,2.2831,2.3143,2.2846,2.2575,2.2575,2.2392,2.2346,2.2575,2.2575,2.268,2.2889,2.2889,2.2889,2.2889,2.2678,2.254,2.254,2.2193,2.2426,2.3332,0.0,0.0,0.0,0.0,0.0,0.0,0.0,2.0356,0.0,0.0,0.0,1.8061,1.7468,1.7022,1.674,1.674,1.6684,1.656,1.6343,1.6684,1.719,1.6864,1.6751,1.6807,1.7155,1.7301,1.7512,1.7788,1.8073,1.841,1.8655,1.8869,1.9093,1.9604,2.0144,2.062,2.0917,2.1609,2.2466,2.3289,2.3593,2.4209,2.5797,2.6667,0.0,0.0,0.0,0.0,0.0,0.0,0.0,0.0,0.0,0.0,0.0,0.0,0.0,0.0,0.0,0.0,0.0,0.0,2.5293,0.0,0.0,0.0,2.5291,0.0,2.526,2.5867,2.5867,2.6285,2.711,2.7532,2.8027,2.8605,2.9453,2.9894,3.0056,3.0392,3.0525,3.049,3.0529,3.0549,3.0547,3.0623,3.0637,3.0641,0.0,2.3275,0.0,0.0,2.3009,2.2603,2.2067,2.1623,2.1636,2.2267,2.2067,2.1852,2.1852,2.1663,2.1663,2.1946,2.1993,2.21,2.2406,2.2374,2.2314,2.2314,2.1969,2.1779,2.1779,2.1055,2.1197,0.0,0.0,0.0,0.0,0.0,0.0,0.0,0.0,0.0,0.0,0.0,1.8429,1.8375,1.7897,1.7346,1.6842,1.6955,1.6775,1.6492,1.6218,1.6332,1.6652,1.6389,1.6285,1.641,1.7022,1.7088,1.6976,1.759,1.7865,1.8018,1.8417,1.8804,1.9239,2.0003,2.0359,2.0646,2.1055,2.1684,2.231,2.2799,2.329,2.4024,2.5406,2.6051,0.0,0.0,0.0,0.0,0.0,0.0,0.0,0.0,0.0,0.0,2.5776,0.0,0.0,0.0,0.0,0.0,2.5454,0.0,0.0,0.0,0.0,2.5054,2.531,0.0,2.5344,2.6263,2.6251,2.6676,2.7502,2.8139,2.8664,2.9113,2.9742,3.021,3.0472,3.0351,3.0301,3.0307,3.0276,3.0285,3.0307,3.0464,3.052,3.0556,0.0,0.0,0.0,0.0,0.0,2.1307,2.152,2.1077,2.066,2.066,2.051,2.0422,2.0422,2.0696,2.0894,2.0944,2.0944,2.0944,2.0993,2.066,2.0472,2.0472,2.0422,2.0372,2.0372,2.0271,2.0547,0.0,0.0,2.089,0.0,0.0,0.0,0.0,0.0,0.0,0.0,1.6698,1.6528,1.6528,1.6472,1.6083,1.5642,1.6197,1.6036,1.5526,1.5526,1.5864,1.6368,1.6312,1.6275,1.641,1.7022,1.719,1.7301,1.7865,1.8321,1.8608,1.8661,1.8992,1.9371,1.9475,2.0257,2.1037,2.1099,2.1974,2.2844,2.2889,2.329,2.3948,2.5057,2.4879,2.4957,0.0,0.0,0.0,0.0,0.0,2.6788,2.4869,0.0,0.0,0.0,2.512,0.0,0.0,2.5711,0.0,0.0,0.0,0.0,2.5063,2.4784,2.4996,2.5731,2.5829,2.6275,2.7077,2.7084,2.7542,2.837,2.8453,2.8905,2.9622,2.9698,2.9884,3.0145,3.0013,3.0098,3.0298,3.0229,3.021,3.0235,3.049,3.0594,3.0613,0.0,0.0,0.0,0.0,0.0,0.0,0.0,2.0696,2.0372,1.9965,2.0029,2.0029,1.9965,1.9862,1.9914,2.0055,2.0055,2.0156,2.0409,2.0271,2.0182,2.0182,2.0182,2.0182,2.0182,1.9978,2.0067,0.0,0.0,0.0,0.0,0.0,0.0,0.0,0.0,1.7984,1.7545,1.7424,1.7146,1.6866,1.6866,1.6472,1.5968,1.6197,1.5921,1.541,1.541,1.5584,1.5748,1.5748,1.6255,1.6944,1.7556,1.7611,1.7623,1.8236,1.8494,1.8643,1.8643,1.9069,1.9604,1.9811,2.0396,2.0979,2.1237,2.1908,2.2495,2.2495,2.3068,2.3709,2.4158,2.4641,2.4996,2.5121,0.0,0.0,0.0,0.0,0.0,2.5193,0.0,2.5169,0.0,0.0,0.0,0.0,0.0,0.0,0.0,0.0,0.0,2.4666,0.0,2.5225,2.5509,2.5424,2.6036,2.7324,2.7322,2.7768,2.8567,2.8569,2.8855,2.9345,2.9542,2.9666,2.9674,2.9623,2.9586,2.9603,2.9672,2.9725,2.9756,3.0105,3.0248,3.0279,2.0733,0.0,2.093,0.0,2.0782,2.0584,2.0207,1.9888,1.9579,1.9226,1.946,1.972,1.9656,1.9408,1.9316,1.9668,1.972,1.9823,2.0131,1.9978,1.9926,1.9926,1.9875,0.0,1.9875,1.9565,1.9552,1.9875,1.9875,0.0,0.0,0.0,0.0,0.0,1.7765,1.7479,1.7313,1.7313,1.709,1.6698,1.6866,1.6585,1.6026,1.6255,1.5921,1.541,1.541,1.5517,1.5633,1.5633,1.6368,1.7257,1.7699,1.782,1.7941,1.8548,1.8827,1.8869,1.8869,1.9356,1.9862,2.0271,2.061,2.0908,2.1326,2.1712,2.1996,2.2184,2.2723,2.3246,2.3377,2.4096,2.4594,2.4297,0.0,0.0,0.0,2.5221,0.0,0.0,2.5002,2.4843,2.4508,2.4262,0.0,0.0,0.0,0.0,0.0,0.0,0.0,0.0,0.0,0.0,2.5419,2.5208,2.5784,2.7148,2.7148,2.7531,2.8264,2.8518,2.8682,2.8815,2.9165,2.9303,2.9301,2.9277,2.9235,2.9193,2.9272,2.9312,2.9357,2.975,2.9899,2.9964,1.9146,1.9448,1.9798,1.9798,1.9396,1.904,1.904,1.8483,1.8147,1.8093,1.8655,1.9093,1.9368,1.9303,1.9396,1.9939,1.999,1.999,1.999,1.9537,1.9235,0.0,0.0,1.8987,1.8987,1.8987,1.8987,1.8987,0.0,0.0,1.8987,0.0,1.7479,1.6301,1.6301,1.5968,1.541,1.541,1.541,1.5468,1.6083,1.5968,1.5468,1.6083,1.5921,1.541,1.541,1.5796,1.6312,1.6312,1.6698,1.7202,1.7202,1.7644,1.8201,1.8827,1.9303,1.9617,1.9617,1.9862,2.0271,2.0709,2.0795,2.0908,2.1326,2.1423,2.1568,2.2091,2.2231,2.2356,2.2799,2.2934,2.3216,2.407,0.0,0.0,0.0,2.5173,0.0,2.4318,2.4834,2.499,2.4182,2.3935,0.0,0.0,0.0,0.0,0.0,0.0,0.0,2.5577,2.4903,0.0,2.5675,2.5421,2.5711,2.6521,2.6521,2.6862,2.7537,2.8264,2.8422,2.8129,2.8474,2.8808,2.9098,2.8966,2.9101,2.9379,2.9172,2.9086,2.9153,2.9559,2.9699,2.976,1.9093,1.9146,1.9121,1.8685,1.8471,1.8375,1.8375,1.8201,1.8093,1.8093,1.7929,1.7984,1.8483,1.875,1.8804,0.0,1.8417,1.859,0.0,1.8893,1.8946,1.9328,1.9316,1.9263,1.9263,1.8762,1.8494,1.8494,0.0,0.0,0.0,1.7918,1.7479,1.7534,1.709,1.6585,1.6026,1.6026,1.5806,1.541,1.5633,1.5584,1.541,1.5633,1.5584,1.541,1.541,1.5806,1.6312,1.6312,1.6978,1.7809,1.7809,1.7929,1.8147,1.8321,1.8762,1.9198,1.9198,1.9656,2.0233,2.0372,2.0822,2.1264,2.1361,2.1423,2.1471,2.1616,2.1949,2.2231,2.2402,2.2663,2.2965,2.326,2.3231,0.0,2.3478,0.0,2.4085,2.3822,2.3994,2.3917,2.3332,2.3383,0.0,0.0,0.0,0.0,0.0,0.0,0.0,0.0,2.5651,0.0,2.5695,2.5749,2.6169,2.6916,2.6916,2.7155,2.7631,2.7886,2.8027,2.8102,2.8228,2.8438,2.8755,2.8718,2.8767,2.885,2.8938,2.8962,2.9007,2.936,2.9495,2.955,1.8417,1.8483,1.8536,1.8159,1.7918,1.7765,1.7765,1.76,1.7457,1.7457,1.7324,1.7268,1.7457,1.7875,0.0,1.7875,1.7831,1.7995,1.8387,1.8602,1.8709,1.8827,1.8987,1.8987,1.8762,1.8548,0.0,1.805,1.7852,1.7797,1.7918,1.7268,1.6989,1.709,1.6698,1.6301,1.5968,1.5968,1.5748,1.541,1.541,1.541,1.541,1.541,1.541,1.541,1.541,1.5633,1.6026,1.6197,1.681,1.7479,1.7699,1.7929,1.8147,1.8375,1.8643,1.891,1.9133,1.9708,2.0233,2.0372,2.0822,2.1215,2.1375,2.1423,2.1423,2.152,2.1793,2.2091,2.2184,2.2356,2.2572,2.2844,2.2844,2.2844,2.3113,0.0,2.3681,0.0,0.0,0.0,0.0,2.3413,2.332,0.0,0.0,0.0,0.0,0.0,2.6061,2.5586,2.6134,2.6219,2.5848,2.5806,2.6021,2.6506,2.6771,2.6967,2.7098,2.7535,2.7713,2.7765,2.7897,2.8083,2.8264,2.837,2.8422,2.8448,2.8694,2.8785,2.8815,2.9115,2.9225,2.927,1.7313,1.7644,1.8038,1.7984,1.7545,1.7146,1.7146,1.674,1.6384,1.6384,1.6842,1.6944,1.6431,1.6842,1.7368,1.7929,0.0,0.0,1.8038,1.8471,1.8483,1.7952,1.8344,1.8278,1.7722,1.8224,1.817,1.7556,1.7556,1.7234,1.6627,1.6627,1.6228,1.5526,1.5468,1.5468,1.541,1.541,1.541,1.541,1.541,1.541,1.541,1.541,1.541,1.541,1.541,1.541,1.5526,1.6083,1.6301,1.6472,1.7034,1.7589,1.8147,1.8762,1.8857,1.8833,1.9396,1.9875,2.0271,2.066,2.0795,2.0957,2.1313,2.1423,2.1471,2.1746,2.1793,2.1888,2.2137,2.1996,2.203,2.2754,2.2649,2.274,2.3421,2.3508,2.3709,0.0,0.0,0.0,2.3834,2.3837,2.3709,0.0,0.0,0.0,0.0,0.0,2.5597,2.6505,2.6158,2.5964,2.5928,2.5561,2.5373,2.5373,2.6073,2.63,2.6087,2.708,2.7413,2.7213,2.7552,2.7701,2.7713,2.7964,2.8075,2.8102,2.8466,2.8587,2.8587,2.8834,2.8905,2.891,0.0,0.0,1.7268,1.6864,1.6694,1.6581,1.6581,1.6488,1.6384,1.6384,1.6534,1.6534,1.6431,1.6534,1.6648,1.6807,1.6807,1.6965,1.7368,1.7534,1.7699,1.805,1.8159,1.8147,1.7984,1.7611,1.7011,1.6353,1.6353,1.6467,1.6751,1.6751,1.6637,1.6457,1.6343,1.6066,1.5614,1.5478,1.541,1.541,1.541,1.541,1.541,1.541,1.541,1.541,1.541,1.569,1.6083,1.6244,1.6585,1.7034,1.7146,1.7313,1.7534,1.8147,1.859,1.8975,1.9093,1.946,1.9823,2.022,2.0822,2.1264,2.1375,2.1423,2.1471,2.1746,2.1793,2.1888,2.2137,2.2137,2.217,2.2356,2.231,2.231,2.2495,2.2844,2.3113,0.0,2.3493,2.3551,2.3187,2.3681,2.3852,0.0,0.0,2.4436,2.4847,2.4923,2.4898,2.4729,2.4611,2.4443,2.4107,2.4024,2.3956,2.3998,2.4467,2.5016,2.5554,2.5829,2.6438,2.7272,2.7365,2.7577,2.784,2.7926,2.7926,2.7886,2.8228,2.8291,2.8281,2.8725,2.8905,2.891,1.7,1.6899,1.674,1.6431,1.6384,1.6384,1.6384,1.6384,1.6384,1.6384,1.6384,1.6384,1.6384,1.6384,1.6384,1.6384,1.6384,1.6534,1.6797,1.7045,1.7213,1.7346,1.7545,1.7545,1.7346,1.7168,1.6888,1.6503,1.6249,1.6259,1.6467,1.6467,1.6467,1.6363,1.6306,1.6077,1.5798,1.5662,1.5604,1.5604,1.5604,1.5604,1.5546,1.5604,1.5604,1.5546,1.5604,1.5999,1.6492,1.6708,1.7146,1.7644,1.7929,1.8038,1.8093,1.8429,1.8697,1.891,1.9186,1.9565,1.9926,2.0131,2.0673,2.1118,2.1118,2.1264,2.152,2.1902,2.1996,2.2091,2.2463,2.2417,2.2417,2.2509,2.2417,2.2417,2.2509,2.2737,2.2918,2.2918,2.3246,2.3377,2.3127,2.361,2.3724,2.3187,2.3551,0.0,2.3991,2.3933,2.4153,2.4713,2.4792,2.4689,2.4409,2.4465,2.4465,2.4409,2.4768,2.5134,2.5529,2.5582,2.609,2.6889,2.6889,2.7115,2.7504,2.7654,2.7701,2.7672,2.7989,2.8183,2.8255,2.8551,2.8718,2.8815,1.6627,1.6534,1.6488,1.6488,1.6431,1.6431,1.6431,1.6431,1.6384,1.6384,1.6384,1.6384,1.6384,1.6384,1.6384,1.6384,1.6384,1.6384,1.6384,1.6842,1.6899,1.6431,1.6842,1.6899,1.6431,1.6842,1.7101,1.7101,1.6637,1.6306,1.6171,1.6171,1.6066,1.5972,1.5914,1.5914,1.5914,1.5914,1.5914,1.5914,1.5914,1.5856,1.574,1.5856,1.5856,1.574,1.5856,1.6134,1.657,1.7,1.749,1.7984,1.8483,1.8762,1.8934,1.8934,1.8857,1.8886,1.9396,1.9875,2.0182,2.0182,2.0472,2.0746,2.0746,2.1006,2.141,2.1935,2.2077,2.2278,2.2706,2.2706,2.2706,2.2843,2.2752,2.2706,2.2888,0.0,2.2888,2.2888,2.3127,2.329,2.3231,2.3523,2.3523,2.3024,2.3024,2.2979,2.2875,2.2844,2.3578,2.5237,2.5313,2.5275,2.5166,2.5275,2.5275,2.5182,2.5368,2.5497,2.5519,2.5626,2.5921,2.6349,2.6349,2.6572,2.6975,2.7279,2.7386,2.7465,2.7742,2.8027,2.8282,2.8388,2.8518,2.8669,1.6761,1.6761,1.6761,1.6761,1.6637,1.6581,1.6581,1.6477,1.6384,1.6384,1.6384,1.6384,1.6384,1.6384,1.6384,1.6384,1.6384,1.6384,1.6384,1.6488,1.6488,1.6384,1.6488,1.6488,1.6384,1.6488,1.6534,1.6534,1.6431,1.6374,1.6374,1.6374,1.6316,1.6316,1.6124,1.6056,1.6066,1.5961,1.5914,1.5914,1.5914,1.5914,1.5856,1.5914,1.5914,1.5856,1.5914,1.5972,1.6029,1.6077,1.6503,1.7045,1.7101,1.7809,1.8578,1.8578,1.8922,1.9303,1.9275,1.9629,2.0042,2.0042,2.0321,2.061,2.061,2.066,2.0809,2.114,2.1541,2.1949,2.2231,2.2615,2.2843,2.2888,2.2843,2.2843,2.2888,0.0,2.2888,2.2888,2.2933,2.2978,2.2978,2.326,2.3406,2.3319,2.3508,2.3653,2.361,2.3508,2.3709,2.4297,2.3849,2.3593,2.3535,2.3593,2.3593,2.3535,2.3593,2.4002,2.4697,2.4697,2.5221,2.6046,2.6046,2.6314,2.6742,2.6791,2.6956,2.7181,2.7509,2.763,2.7689,2.821,2.844,2.8492,1.6963,1.6864,1.6818,1.6818,1.6761,1.6694,1.6694,1.6648,1.6602,1.6602,1.6534,1.6534,1.6534,1.6431,1.6384,1.6384,1.6384,1.6384,1.6384,1.6384,1.6384,1.6384,1.6384,1.6384,1.6384,1.6384,1.6384,1.6384,1.6384,1.6384,1.6384,1.6384,1.6384,1.6384,1.6306,1.6249,1.6249,1.6202,1.6144,1.6144,1.6144,1.6077,1.6019,1.6144,1.6077,1.6066,1.6457,1.6729,1.7022,1.7335,1.7765,1.8201,1.8201,1.8536,1.8975,1.8975,1.9198,1.9368,1.9328,1.9473,1.9681,1.9681,1.9978,2.0271,2.0271,2.0422,2.066,2.0944,2.1188,2.1444,2.1732,2.1969,2.2203,2.2463,2.2509,2.2615,2.2843,2.2888,2.2888,2.2888,2.2888,2.2888,2.2888,2.3053,2.3127,2.3127,2.3231,2.3392,2.3551,2.3551,2.3681,2.4051,2.3809,2.3794,2.4063,2.3894,2.3852,2.3979,2.409,2.4338,2.4679,2.4744,2.5137,2.5721,2.5721,2.5977,2.6385,2.6385,2.6573,2.6891,2.7053,2.7307,2.7659,2.7933,2.821,2.8466,1.7316,1.7051,1.6931,1.6931,1.6864,1.6864,1.6864,1.6807,1.6818,1.6818,1.6694,1.6637,1.6637,1.6534,1.6488,1.6488,1.6488,1.6431,1.6431,1.6431,1.6384,1.6384,1.6384,1.6384,1.6384,1.6384,1.6384,1.6384,1.6384,1.6384,1.6384,1.6384,1.6384,1.6384,1.6384,1.6384,1.6384,1.6384,1.6384,1.6384,1.6384,1.6306,1.6181,1.6316,1.6306,1.6228,1.6832,1.7234,1.7623,1.8201,1.875,1.9146,1.9263,1.9408,1.946,1.946,1.946,1.946,1.946,1.946,1.946,1.946,1.9823,2.0131,2.0131,2.0472,2.0845,2.1042,2.1091,2.1175,2.1369,2.1417,2.1513,2.1921,0.0,2.217,2.2661,2.2752,2.2797,2.2888,2.2888,2.2888,2.2888,2.2888,2.2888,2.2888,2.2978,2.3127,2.3406,2.3406,2.3551,2.3839,2.3994,2.4261,2.462,2.4359,2.4302,2.4467,2.4766,2.4806,2.4742,2.4942,2.5146,2.5368,2.5368,2.5577,2.5944,2.5944,2.6245,2.6691,2.6691,2.7085,2.7612,2.7672,2.8,2.8422,1.7955,1.7584,1.7278,1.7278,1.7088,1.7011,1.7011,1.6853,1.6818,1.6818,1.6807,1.6818,1.6818,1.6761,1.6761,1.6761,1.6637,1.6581,1.6581,1.6477,1.6384,1.6384,1.6384,1.6384,1.6384,1.6384,1.6384,1.6384,1.6384,1.6384,1.6384,1.6384,1.6384,1.6384,1.6384,1.6384,1.6384,1.6384,1.6384,1.6384,1.6384,1.6374,1.6374,1.6374,1.6374,1.6374,1.6431,1.6488,1.6591,1.7168,1.7699,1.8309,1.8881,1.9344,1.9747,1.9747,1.9747,1.9747,1.9747,1.9747,1.9747,1.9747,2.0156,2.056,2.056,2.0944,2.1369,2.1369,2.1369,2.1369,2.1417,2.1417,2.1417,2.1465,0.0,0.0,2.217,2.2231,2.2417,2.2843,2.2888,2.2888,2.2888,2.2888,2.2888,2.2888,2.3172,2.3363,2.3406,2.3406,2.3406,2.345,2.3824,2.4024,2.4067,2.4024,2.4024,2.4067,2.4374,2.4539,2.4539,2.4846,2.5005,2.5045,2.5045,2.5246,2.554,2.554,2.598,2.6691,2.6691,2.6957,2.7376,2.76,2.7869,2.8156,1.8065,1.7617,1.7278,1.7278,1.7211,1.7211,1.7211,1.7155,1.7099,1.7099,1.6976,1.6909,1.6909,1.6864,1.6818,1.6818,1.6751,1.6694,1.6694,1.6705,1.6602,1.6431,1.6384,1.6384,1.6384,1.6384,1.6384,1.6384,1.6384,1.6384,1.6384,1.6384,1.6384,1.6384,1.6384,1.6384,1.6384,1.6384,1.6384,1.6384,1.6384,1.6384,1.6384,1.6384,1.6384,1.6431,1.6797,1.6899,1.7056,1.7984,1.8483,1.8762,1.9344,1.9656,1.9798,1.9798,1.9798,1.9798,1.9798,1.9798,1.9798,1.9798,1.9952,2.0105,2.0105,2.0245,2.0497,2.0845,2.0894,2.0993,2.1321,2.1417,2.1513,2.1827,0.0,2.1575,2.2123,2.2184,2.2278,2.2417,2.2706,2.2888,2.2888,2.2888,2.2888,2.2888,2.3008,2.3098,2.3098,2.329,2.3406,2.3406,2.3797,2.3982,2.3982,2.3739,2.3739,2.3982,2.4333,2.4498,2.4498,2.4846,2.5005,2.5005,2.5005,2.5068,2.5208,2.5208,2.5647,2.6315,2.6315,2.6725,2.7313,2.7421,2.763,2.7897,1.8283,1.7715,1.7278,1.7278,1.7278,1.7278,1.7278,1.7278,1.7278,1.7278,1.72,1.7078,1.7078,1.7032,1.6931,1.6931,1.692,1.6928,1.7088,1.7169,1.7001,1.6498,1.6488,1.6431,1.6384,1.6384,1.6384,1.6384,1.6384,1.6384,1.6384,1.6384,1.6384,1.6384,1.6384,1.6384,1.6384,1.6384,1.6384,1.6384,1.6384,1.6384,1.6384,1.6384,1.6384,1.6488,1.7,1.7202,1.7368,1.859,1.8987,1.9093,1.9656,1.9798,1.9798,1.9798,1.9798,1.9798,1.9798,1.9798,1.985,2.0003,2.0295,2.0547,2.0547,2.0696,2.0881,2.1237,2.1188,2.1188,2.1575,2.1513,2.1513,2.1874,2.1623,2.1575,2.2123,2.2184,2.2231,2.2417,2.2706,2.2888,2.2888,2.2888,2.2888,2.2888,2.3023,2.3053,2.3053,2.329,2.3363,2.326,2.3494,2.3726,2.3797,2.3653,2.3739,2.3982,2.4333,2.4498,2.4498,2.4846,2.5005,2.5005,2.5005,2.5005,2.5005,2.5005,2.5422,2.6104,2.6123,2.6607,2.7282,2.7313,2.7496,2.7742,1.8687,1.7923,1.7278,1.7278,1.7278,1.7278,1.7278,1.7278,1.7278,1.7289,1.7289,1.7289,1.7289,1.7289,1.7289,1.7289,1.7145,1.7237,1.7791,1.8066,1.7715,1.668,1.6591,1.6534,1.6452,1.6384,1.6384,1.6384,1.6384,1.6384,1.6384,1.6384,1.6384,1.6384,1.6384,1.6384,1.6384,1.6384,1.6384,1.6384,1.6384,1.6384,1.6384,1.6384,1.6384,1.6488,1.6989,1.7202,1.7368,1.8602,1.8987,1.9093,1.9656,1.9798,1.9798,1.9798,1.9798,1.9798,1.9798,1.9798,1.9952,2.0459,2.1396,2.2184,2.2184,2.2555,2.2888,2.2888,2.2509,2.2184,2.2184,2.1779,2.1417,2.1417,2.1417,2.1575,2.2137,2.2184,2.237,2.2843,2.2888,2.2888,2.2888,2.2888,2.2888,2.2888,2.3216,2.3406,2.3406,2.3406,2.3246,2.2888,2.2902,2.3053,2.3406,2.3797,2.3982,2.3982,2.4333,2.4498,2.4498,2.4846,2.5005,2.5005,2.5005,2.5005,2.5005,2.5005,2.5422,2.6104,2.6193,2.6641,2.7282,2.7376,2.7526,2.776,1.8272,1.7704,1.7278,1.7278,1.7278,1.7278,1.7278,1.7278,1.7398,1.7748,1.7791,1.7912,1.8228,1.8261,1.8261,1.8261,1.8261,1.8256,1.8409,1.849,1.8386,1.7937,1.7786,1.7715,1.7666,1.7339,1.717,1.717,1.6738,1.6524,1.6524,1.6431,1.6384,1.6384,1.6384,1.6384,1.6384,1.6384,1.6384,1.6384,1.6384,1.6384,1.6384,1.6384,1.6384,1.6431,1.6591,1.6637,1.6797,1.7995,1.8375,1.8536,1.9488,1.9798,1.9798,1.9798,2.0055,2.0359,2.0497,2.0993,2.1334,2.0759,2.0858,2.1202,2.1527,2.1766,2.1955,2.2324,2.2324,2.2324,2.2615,2.2555,2.2449,2.2449,2.217,2.203,2.2184,2.2184,2.2231,2.237,2.2706,2.2888,2.2888,2.2888,2.2888,2.2888,2.2963,2.3053,2.3053,2.329,2.3363,2.3246,2.3538,2.3711,2.3839,2.3653,2.3739,2.3982,2.4333,2.4498,2.4498,2.4846,2.5146,2.5329,2.5329,2.5519,2.5779,2.5779,2.5888,2.6123,2.6488,2.6741,2.7006,2.7341,2.7496,2.76,1.8065,1.777,1.7573,1.7573,1.7715,1.7835,1.7835,1.7835,1.7944,1.8239,1.8283,1.8381,1.8665,1.8687,1.8687,1.8687,1.8862,1.8982,1.8982,1.9157,1.9214,1.9163,1.9016,1.8708,1.8201,1.7903,1.7765,1.7765,1.7429,1.7233,1.7233,1.7126,1.7137,1.7126,1.6948,1.6864,1.6843,1.655,1.6477,1.6477,1.6431,1.6384,1.6384,1.6384,1.6384,1.6488,1.692,1.7078,1.7234,1.8417,1.8792,1.8898,1.9643,1.9862,1.9862,1.9965,2.0169,2.051,2.0795,2.1286,2.1684,2.1417,2.1431,2.1575,2.1908,2.2002,2.2109,2.2417,2.2463,2.2555,2.2843,2.2888,2.2888,2.2888,2.2661,2.2509,2.2555,2.2509,2.2509,2.2555,2.2752,2.2888,2.2888,2.2888,2.2888,2.2888,2.2888,2.2888,2.2888,2.3201,2.3334,2.3216,2.3566,2.3739,2.3739,2.3551,2.3739,2.4193,2.4605,2.4822,2.4822,2.5123,2.54,2.5689,2.5689,2.5908,2.6229,2.6229,2.628,2.6419,2.6757,2.6939,2.707,2.7434,2.7526,2.7539,1.8075,1.8065,1.8065,1.8065,1.8414,1.8687,1.8687,1.8687,1.8709,1.8753,1.8753,1.8774,1.8818,1.8818,1.8818,1.8818,1.9222,1.9484,1.9484,1.9835,2.0085,2.0085,2.0085,1.9533,1.8401,1.8337,1.8315,1.8315,1.8272,1.8251,1.8251,1.819,1.819,1.8169,1.7733,1.7541,1.7509,1.699,1.6732,1.669,1.654,1.6472,1.6431,1.6431,1.6431,1.6591,1.7667,1.8038,1.8147,1.9319,1.9747,1.9862,1.9978,2.0042,2.0042,2.0182,2.0233,2.0372,2.0894,2.1042,2.1321,2.2282,2.2678,2.2888,2.2933,2.2947,2.2947,2.2947,2.2947,2.2947,2.2947,2.2947,2.2947,2.2933,2.2947,2.2947,2.3082,2.2992,2.2992,2.3082,2.3037,2.2947,2.2947,2.2933,2.2902,2.2888,2.2888,2.2888,2.2933,2.3246,2.329,2.3023,2.329,2.345,2.345,2.3638,2.3994,2.4539,2.5045,2.5294,2.5317,2.553,2.5775,2.6049,2.6068,2.6245,2.6505,2.6505,2.6624,2.6841,2.7002,2.7164,2.7407,2.7557,2.7587,2.7569,1.8622,1.8545,1.8545,1.8545,1.8622,1.8687,1.8687,1.8687,1.8829,1.9211,1.9255,1.9408,1.979,1.9834,1.9834,1.9834,1.9868,1.9922,1.9922,2.002,2.0085,2.0085,2.0085,1.9976,1.9705,1.9326,1.913,1.913,1.8639,1.8405,1.8405,1.8262,1.819,1.8179,1.8073,1.803,1.803,1.7924,1.7609,1.727,1.7281,1.7011,1.6705,1.6705,1.6705,1.6807,1.7501,1.7501,1.7245,1.8417,1.9384,2.0131,2.0131,2.0182,2.0182,2.0182,2.051,2.0845,2.1091,2.1396,2.1779,2.2466,2.2603,2.2709,2.3142,2.3187,2.3187,2.3187,2.3187,2.3187,2.3187,2.3112,2.3082,2.3187,2.3023,2.2978,2.3231,2.3112,2.3127,2.3246,2.3231,2.3187,2.3187,2.3112,2.2992,2.2902,2.2888,2.3008,2.329,2.3377,2.3508,2.3769,2.3839,2.3882,2.3882,2.4328,2.4614,2.4751,2.4895,2.5169,2.553,2.5811,2.6104,2.6386,2.659,2.6922,2.7244,2.7244,2.71,2.6905,2.7338,2.7355,2.7198,2.7552,2.7672,2.773,1.8742,1.8873,1.9037,1.9037,1.9233,1.9386,1.9386,1.9386,1.9473,1.9725,1.9693,1.9802,2.0053,2.0085,2.0085,2.0085,2.0085,2.0085,2.0085,2.0085,2.0085,2.0085,2.0085,2.0085,2.0085,1.9835,1.9693,1.9693,1.9391,1.9271,1.9271,1.9134,1.9124,1.9113,1.8887,1.8779,1.8768,1.848,1.8184,1.7959,1.7878,1.7541,1.7126,1.7126,1.7159,1.729,1.7886,1.8255,1.8525,1.9109,1.9695,2.0233,2.0283,2.0347,2.0347,2.0448,2.0636,2.0921,2.1202,2.1458,2.1746,2.2282,2.236,2.2466,2.3127,2.3319,2.3319,2.3319,2.3319,2.3319,2.3319,2.3246,2.3201,2.3275,2.3187,2.3157,2.3378,2.329,2.3246,2.3363,2.3319,2.3319,2.3319,2.3246,2.3157,2.3112,2.3112,2.3187,2.3334,2.3709,2.3921,2.3952,2.4328,2.4451,2.4287,2.4599,2.4863,2.5075,2.5269,2.5513,2.577,2.6118,2.6453,2.6757,2.7036,2.7289,2.76,2.76,2.7461,2.7258,2.7552,2.7509,2.7355,2.7612,2.7771,2.7954,1.8938,1.9266,1.9539,1.9539,1.9813,2.0085,2.0085,2.0085,2.0085,2.0085,2.0085,2.0085,2.0085,2.0085,2.0085,2.0085,2.0085,2.0085,2.0085,2.0085,2.0085,2.0085,2.0085,2.0085,2.0085,2.0085,2.0085,2.0085,2.0085,2.0085,2.0085,2.0085,2.0085,2.0064,1.9725,1.9539,1.9517,1.9,1.8732,1.8657,1.8441,1.8141,1.7723,1.7723,1.7712,1.7856,1.8503,1.9405,2.0283,2.0182,2.0182,2.0334,2.0461,2.0511,2.0562,2.0662,2.0699,2.0799,2.118,2.1326,2.1506,2.1988,2.2081,2.2314,2.3172,2.3304,2.3231,2.3231,2.3319,2.3348,2.3348,2.3363,2.3319,2.3363,2.3319,2.3363,2.3509,2.3407,2.3363,2.3494,2.3407,2.3363,2.3319,2.3319,2.3319,2.3319,2.3319,2.3319,2.3407,2.3964,2.4241,2.409,2.4719,2.4958,2.4784,2.4847,2.5082,2.5497,2.5791,2.597,2.597,2.6399,2.6742,2.7006,2.7261,2.7509,2.7701,2.7701,2.7689,2.763,2.7672,2.7689,2.763,2.7672,2.7869,2.8139,1.9878,1.9933,1.9987,1.9987,2.0042,2.0085,2.0085,2.0085,2.0085,2.0085,2.0085,2.0085,2.0085,2.0085,2.0085,2.0085,2.0085,2.0085,2.0085,2.0085,2.0085,2.0085,2.0085,2.0085,2.0085,2.0085,2.0085,2.0085,2.0085,2.0085,2.0085,2.0085,2.0085,2.0085,2.0009,1.9987,1.9976,1.9911,1.965,1.9258,1.9258,1.8964,1.8529,1.8529,1.8305,1.8121,1.9151,1.9989,2.0549,2.0016,2.0169,2.0649,2.0649,2.0662,2.0662,2.0712,2.0699,2.0699,2.0799,2.1082,2.1506,2.1988,2.2081,2.236,2.3334,2.3246,2.2934,2.2934,2.329,2.3551,2.3551,2.3494,2.3494,2.3566,2.3392,2.3363,2.3566,2.3538,2.3494,2.3566,2.3551,2.3523,2.3466,2.3466,2.3422,2.3319,2.3319,2.3451,2.3711,2.3824,2.4147,2.4744,2.4863,2.5114,2.5438,2.5642,2.577,2.5844,2.6043,2.6168,2.6168,2.6485,2.6742,2.7006,2.7261,2.7509,2.7701,2.7701,2.7701,2.7701,2.7701,2.7701,2.7701,2.7701,2.7869,2.8139,2.0388,2.0388,2.0324,2.014,2.0085,2.0085,2.0085,2.0085,2.0085,2.0085,2.0085,2.0085,2.0085,2.0085,2.0085,2.0085,2.0085,2.0085,2.0085,2.0085,2.0085,2.0085,2.0085,2.0085,2.0085,2.0085,2.0085,2.0085,2.0085,2.0085,2.0085,2.0085,2.0085,2.0085,2.0085,2.0085,2.0085,2.0085,1.9955,1.9759,1.9759,1.9528,1.9153,1.9499,1.9545,1.954,2.0402,2.0485,2.022,2.0283,2.0485,2.0699,2.0699,2.0699,2.0699,2.0699,2.0699,2.0699,2.0699,2.0848,2.1131,2.1589,2.1732,2.1908,2.2589,2.283,2.2979,2.3246,2.3465,2.3595,2.3595,2.3566,2.3566,2.361,2.3523,2.348,2.361,2.3566,2.3566,2.361,2.3595,2.361,2.3566,2.3581,2.3523,2.348,2.348,2.3523,2.3696,2.3925,2.4328,2.4863,2.5121,2.546,2.5934,2.6007,2.6059,2.6059,2.6168,2.622,2.6203,2.6485,2.6674,2.6792,2.7215,2.7465,2.7539,2.7642,2.7701,2.7701,2.7701,2.7701,2.7701,2.7701,2.7943,2.8299]}]]